[[{"header":{"parameterUnit":"m.s-1","parameterCategory":1,"la1":31.0,"la2":29.5877,"lo1":-88.7671,"lo2":-86.6584,"dy":0.0162,"dx":0.0185,"nx":115,"ny":88,"refTime":"2023-05-31T06:00:00:Z","depth":0,"parameterNumber":2,"parameterNumberName":"U-component_of_WINDS"},"data":[0.0,0.0,0.0,0.0,0.0,0.0,0.0,0.0,0.0,0.0,0.0,0.0,0.0,0.0,0.0,0.0,0.0,0.0,0.0,0.0,0.0,0.0,0.0,0.0,0.0,0.0,0.0,0.0,0.0,0.0,0.0,0.0,0.0,0.0,0.0,0.0,0.0,0.0,0.0,0.0,0.0,0.0,0.0,0.0,0.0,0.0,0.0,0.0,0.0,0.0,0.0,0.0,0.0,0.0,0.0,0.0,0.0,0.0,0.0,0.0,0.0,0.0,0.0,0.0,0.0,0.0,0.0,0.0,0.0,0.0,0.0,0.0,0.0,0.0,0.0,0.0,0.0,0.0,0.0,0.0,0.0,0.0,0.0,0.0,0.0,0.0,0.0,0.0,0.0,0.0,0.0,0.0,0.0,0.0,0.0,0.0,0.0,0.0,0.0,0.0,0.0,0.0,0.0,0.0,0.0,0.0,0.0,0.0,0.0,0.0,0.0,0.0,0.0,0.0,0.0,0.0,0.0,0.0,0.0,0.0,0.0,0.0,0.0,0.0,0.0,0.0,0.0,0.0,0.0,0.0,0.0,0.0,0.0,0.0,0.0,0.0,0.0,0.0,0.0,0.0,0.0,0.0,0.0,0.0,0.0,0.0,0.0,0.0,0.0,0.0,0.0,0.0,0.0,0.0,0.0,0.0,0.0,0.0,0.0,0.0,0.0,0.0,0.0,0.0,0.0,0.0,0.0,0.0,0.0,0.0,0.0,0.0,0.0,0.0,0.0,0.0,0.0,0.0,0.0,0.0,0.0,0.0,0.0,0.0,0.0,0.0,0.0,0.0,0.0,0.0,0.0,0.0,0.0,0.0,0.0,0.0,0.0,0.0,0.0,0.0,0.0,0.0,0.0,0.0,0.0,0.0,0.0,0.0,0.0,0.0,0.0,0.0,0.0,0.0,0.0,0.0,0.0,0.0,0.0,0.0,0.0,0.0,0.0,0.0,0.0,0.0,0.0,0.0,0.0,0.0,0.0,0.0,0.0,0.0,0.0,0.0,0.0,0.0,0.0,0.0,0.0,0.0,0.0,0.0,0.0,0.0,0.0,0.0,0.0,0.0,0.0,0.0,0.0,0.0,0.0,0.0,0.0,0.0,0.0,0.0,0.0,0.0,0.0,0.0,0.0,0.0,0.0,0.0,0.0,0.0,0.0,0.0,0.0,0.0,0.0,0.0,0.0,0.0,0.0,0.0,0.0,0.0,0.0,0.0,0.0,0.0,0.0,0.0,0.0,0.0,0.0,0.0,0.0,0.0,0.0,0.0,0.0,0.0,0.0,0.0,0.0,0.0,0.0,0.0,0.0,0.0,0.0,0.0,0.0,0.0,0.0,0.0,0.0,0.0,0.0,0.0,0.0,0.0,0.0,0.0,0.0,0.0,0.0,0.0,0.0,0.0,0.0,0.0,0.0,0.0,0.0,0.0,0.0,0.0,0.0,0.0,0.0,0.0,0.0,0.0,0.0,0.0,0.0,0.0,0.0,0.0,0.0,0.0,0.0,0.0,0.0,0.0,0.0,0.0,0.0,0.0,0.0,0.0,0.0,0.0,0.0,0.0,0.0,0.0,0.0,0.0,0.0,0.0,0.0,0.0,0.0,0.0,0.0,0.0,0.0,0.0,0.0,0.0,0.0,0.0,0.0,0.0,0.0,0.0,0.0,0.0,0.0,0.0,0.0,0.0,0.0,0.0,0.0,0.0,0.0,0.0,0.0,0.0,0.0,0.0,0.0,0.0,0.0,0.0,0.0,0.0,0.0,0.0,0.0,0.0,0.0,0.0,0.0,0.0,0.0,0.0,0.0,0.0,0.0,0.0,0.0,0.0,0.0,0.0,0.0,0.0,0.0,0.0,0.0,0.0,0.0,0.0,0.0,0.0,0.0,0.0,0.0,0.0,0.0,0.0,0.0,0.0,0.0,0.0,0.0,0.0,0.0,0.0,0.0,0.0,0.0,0.0,0.0,0.0,0.0,0.0,0.0,0.0,0.0,0.0,0.0,0.0,0.0,0.0,0.0,0.0,0.0,0.0,0.0,0.0,0.0,0.0,0.0,0.0,0.0,0.0,0.0,0.0,0.0,0.0,0.0,0.0,0.0,0.0,0.0,0.0,0.0,0.0,0.0,0.0,0.0,0.0,0.0,0.0,0.0,0.0,0.0,0.0,0.0,0.0,0.0,0.0,0.0,0.0,0.0,0.0,0.0,0.0,0.0,0.0,0.0,0.0,0.0,0.0,0.0,0.0,0.0,0.0,0.0,0.0,0.0,0.0,0.0,0.0,0.0,0.0,0.0,0.0,0.0,0.0,0.0,0.0,0.0,0.0,0.0,0.0,0.0,0.0,0.0,0.0,0.0,0.0,0.0,0.0,0.0,0.0,0.0,0.0,0.0,0.0,0.0,0.0,0.0,0.0,0.0,0.0,0.0,0.0,0.0,0.0,0.0,0.0,0.0,0.0,0.0,0.0,0.0,0.0,0.0,0.0,0.0,0.0,0.0,0.0,0.0,0.0,0.0,0.0,0.0,0.0,0.0,0.0,0.0,0.0,0.0,0.0,0.0,0.0,0.0,0.0,0.0,0.0,0.0,0.0,0.0,0.0,0.0,0.0,0.0,0.0,0.0,0.0,0.0,0.0,0.0,0.0,0.0,0.0,0.0,0.0,0.0,0.0,0.0,0.0,0.0,0.0,0.0,0.0,0.0,0.0,0.0,0.0,0.0,0.0,0.0,0.0,0.0,0.0,0.0,0.0,0.0,0.0,0.0,0.0,0.0,0.0,0.0,0.0,0.0,0.0,0.0,0.0,0.0,0.0,0.0,0.0,0.0,0.0,0.0,0.0,0.0,0.0,0.0,0.0,0.0,0.0,0.0,0.0,0.0,0.0,0.0,0.0,0.0,0.0,0.0,0.0,0.0,0.0,0.0,0.0,0.0,0.0,0.0,0.0,0.0,0.0,0.0,0.0,0.0,0.0,0.0,0.0,0.0,0.0,0.0,0.0,0.0,0.0,0.0,0.0,0.0,0.0,0.0,0.0,0.0,0.0,0.0,0.0,0.0,0.0,0.0,0.0,0.0,0.0,0.0,0.0,0.0,0.0,0.0,0.0,0.0,0.0,0.0,0.0,0.0,0.0,0.0,0.0,0.0,0.0,0.0,0.0,0.0,0.0,0.0,0.0,0.0,0.0,0.0,0.0,0.0,0.0,0.0,0.0,0.0,0.0,0.0,0.0,0.0,0.0,0.0,0.0,0.0,0.0,0.0,0.0,0.0,0.0,0.0,0.0,0.0,0.0,0.0,0.0,0.0,0.0,0.0,0.0,0.0,0.0,0.0,0.0,0.0,0.0,0.0,0.0,0.0,0.0,0.0,0.0,0.0,0.0,0.0,0.0,0.0,0.0,0.0,0.0,0.0,0.0,0.0,0.0,0.0,0.0,0.0,0.0,0.0,0.0,0.0,0.0,0.0,0.0,0.0,0.0,0.0,0.0,0.0,0.0,0.0,0.0,0.0,0.0,0.0,0.0,0.0,0.0,0.0,0.0,0.0,0.0,0.0,0.0,0.0,0.0,0.0,0.0,0.0,0.0,0.0,0.0,0.0,0.0,0.0,0.0,0.0,0.0,0.0,0.0,0.0,0.0,0.0,0.0,0.0,0.0,0.0,0.0,0.0,0.0,0.0,0.0,0.0,0.0,0.0,0.0,0.0,0.0,0.0,0.0,0.0,0.0,0.0,0.0,0.0,0.0,0.0,0.0,0.0,0.0,0.0,0.0,0.0,0.0,0.0,0.0,0.0,0.0,0.0,0.0,0.0,0.0,0.0,0.0,0.0,0.0,0.0,0.0,0.0,0.0,0.0,0.0,0.0,0.0,0.0,0.0,0.0,0.0,0.0,0.0,0.0,0.0,0.0,0.0,0.0,0.0,0.0,0.0,0.0,0.0,0.0,0.0,0.0,0.0,0.0,0.0,0.0,0.0,0.0,0.0,0.0,0.0,0.0,0.0,0.0,0.0,0.0,0.0,0.0,0.0,0.0,0.0,0.0,0.0,0.0,0.0,0.0,0.0,0.0,0.0,0.0,0.0,0.0,0.0,0.0,0.0,0.0,0.0,0.0,0.0,0.0,0.0,0.0,0.0,0.0,0.0,0.0,0.0,0.0,0.0,0.0,0.0,0.0,0.0,0.0,0.0,0.0,0.0,0.0,0.0,0.0,0.0,0.0,0.0,0.0,0.0,0.0,0.0,2.3864,0.0,0.0,0.0,0.0,0.0,0.0,0.0,0.0,0.0,0.0,0.0,0.0,0.0,0.0,0.0,0.0,0.0,0.0,0.0,0.0,0.0,0.0,0.0,0.0,0.0,0.0,0.0,0.0,0.0,0.0,0.0,0.0,0.0,0.0,0.0,0.0,0.0,0.0,0.0,0.0,0.0,0.0,0.0,0.0,0.0,0.0,0.0,0.0,0.0,0.0,0.0,0.0,0.0,0.0,0.0,0.0,0.0,0.0,0.0,0.0,0.0,0.0,0.0,0.0,0.0,0.0,0.0,0.0,0.0,0.0,0.0,0.0,0.0,0.0,0.0,0.0,0.0,0.0,0.0,0.0,0.0,0.0,0.0,0.0,0.0,0.0,0.0,0.0,0.0,0.0,0.0,0.0,0.0,0.0,0.0,0.0,0.0,0.0,0.0,0.0,0.0,0.0,0.0,0.0,0.0,0.0,0.0,0.0,0.0,0.0,2.4317,2.4194,2.4194,2.4194,2.4194,0.0,0.0,0.0,0.0,0.0,0.0,0.0,0.0,0.0,0.0,0.0,0.0,0.0,0.0,0.0,0.0,0.0,0.0,0.0,0.0,0.0,0.0,0.0,0.0,0.0,0.0,0.0,0.0,0.0,0.0,0.0,0.0,0.0,0.0,0.0,0.0,0.0,0.0,0.0,0.0,0.0,0.0,0.0,0.0,0.0,0.0,0.0,0.0,0.0,0.0,0.0,0.0,0.0,0.0,0.0,0.0,0.0,0.0,0.0,0.0,0.0,0.0,0.0,0.0,0.0,0.0,0.0,0.0,0.0,0.0,0.0,0.0,0.0,0.0,0.0,0.0,0.0,0.0,0.0,0.0,0.0,0.0,0.0,0.0,0.0,0.0,0.0,0.0,0.0,0.0,0.0,0.0,0.0,0.0,0.0,0.0,0.0,0.0,0.0,0.0,0.0,0.0,0.0,0.0,0.0,0.0,0.0,0.0,0.0,0.0,0.0,0.0,2.4194,2.4194,2.4194,0.0,0.0,0.0,0.0,0.0,0.0,0.0,0.0,0.0,0.0,0.0,0.0,0.0,0.0,0.0,0.0,0.0,0.0,0.0,0.0,0.0,0.0,0.0,0.0,0.0,0.0,0.0,0.0,0.0,0.0,0.0,0.0,0.0,0.0,0.0,0.0,0.0,0.0,0.0,0.0,0.0,0.0,0.0,0.0,0.0,0.0,0.0,0.0,0.0,0.0,0.0,0.0,0.0,0.0,0.0,0.0,0.0,0.0,0.0,0.0,0.0,0.0,0.0,0.0,0.0,0.0,0.0,0.0,0.0,0.0,0.0,0.0,0.0,0.0,0.0,0.0,0.0,0.0,0.0,0.0,0.0,0.0,0.0,0.0,0.0,0.0,0.0,0.0,0.0,0.0,0.0,0.0,0.0,0.0,0.0,0.0,0.0,0.0,0.0,0.0,0.0,0.0,0.0,0.0,0.0,0.0,0.0,0.0,0.0,0.0,2.4214,2.4194,2.4194,0.0,2.4194,0.0,0.0,0.0,0.0,0.0,0.0,0.0,0.0,0.0,0.0,0.0,0.0,0.0,0.0,0.0,0.0,0.0,0.0,0.0,0.0,0.0,0.0,0.0,0.0,0.0,0.0,0.0,0.0,0.0,0.0,0.0,0.0,0.0,0.0,0.0,0.0,0.0,0.0,0.0,0.0,0.0,0.0,0.0,0.0,0.0,0.0,0.0,0.0,0.0,0.0,0.0,0.0,0.0,0.0,0.0,0.0,0.0,0.0,0.0,0.0,0.0,0.0,0.0,0.0,0.0,0.0,0.0,0.0,0.0,0.0,0.0,0.0,0.0,0.0,0.0,0.0,0.0,0.0,0.0,0.0,0.0,0.0,0.0,0.0,0.0,0.0,0.0,0.0,0.0,0.0,0.0,0.0,0.0,0.0,0.0,0.0,0.0,0.0,0.0,0.0,0.0,0.0,0.0,0.0,0.0,0.0,0.0,0.0,0.0,0.0,2.4194,2.4194,2.4194,2.4194,0.0,0.0,0.0,0.0,0.0,0.0,0.0,0.0,0.0,0.0,0.0,0.0,0.0,0.0,0.0,0.0,0.0,0.0,0.0,0.0,0.0,0.0,0.0,0.0,0.0,0.0,0.0,0.0,0.0,0.0,0.0,0.0,0.0,0.0,0.0,0.0,0.0,0.0,0.0,0.0,0.0,0.0,0.0,0.0,0.0,0.0,0.0,0.0,0.0,0.0,0.0,0.0,0.0,0.0,0.0,0.0,0.0,0.0,0.0,0.0,0.0,0.0,0.0,0.0,0.0,0.0,0.0,0.0,0.0,0.0,0.0,0.0,0.0,0.0,0.0,0.0,0.0,0.0,0.0,0.0,0.0,0.0,0.0,0.0,0.0,0.0,0.0,0.0,0.0,0.0,0.0,0.0,0.0,0.0,0.0,0.0,0.0,0.0,0.0,0.0,0.0,0.0,0.0,0.0,0.0,0.0,0.0,0.0,0.0,0.0,2.4379,2.4194,2.4194,2.4194,2.4194,2.4194,0.0,0.0,0.0,0.0,0.0,0.0,0.0,0.0,0.0,0.0,0.0,0.0,0.0,0.0,0.0,0.0,0.0,0.0,0.0,0.0,0.0,0.0,0.0,0.0,0.0,0.0,0.0,0.0,0.0,0.0,0.0,0.0,0.0,0.0,0.0,0.0,0.0,0.0,0.0,0.0,0.0,0.0,0.0,0.0,0.0,0.0,0.0,0.0,0.0,0.0,0.0,0.0,0.0,0.0,0.0,0.0,0.0,0.0,0.0,0.0,0.0,0.0,0.0,0.0,0.0,0.0,0.0,0.0,0.0,0.0,0.0,0.0,0.0,0.0,0.0,0.0,0.0,0.0,0.0,0.0,0.0,0.0,0.0,0.0,0.0,0.0,0.0,0.0,0.0,0.0,0.0,0.0,0.0,0.0,0.0,0.0,0.0,0.0,0.0,0.0,0.0,0.0,0.0,0.0,0.0,0.0,0.0,0.0,2.4505,2.4307,2.4194,2.4194,2.4194,2.4194,0.0,0.0,0.0,0.0,0.0,0.0,0.0,0.0,0.0,0.0,0.0,0.0,0.0,0.0,0.0,0.0,0.0,0.0,0.0,0.0,0.0,0.0,0.0,0.0,0.0,0.0,0.0,0.0,0.0,0.0,0.0,0.0,0.0,0.0,0.0,0.0,0.0,0.0,0.0,0.0,0.0,0.0,0.0,0.0,0.0,0.0,0.0,0.0,0.0,0.0,0.0,0.0,0.0,0.0,0.0,0.0,0.0,0.0,0.0,0.0,0.0,0.0,0.0,0.0,0.0,0.0,0.0,0.0,0.0,0.0,0.0,0.0,0.0,0.0,0.0,0.0,0.0,0.0,0.0,0.0,0.0,0.0,0.0,0.0,0.0,0.0,0.0,0.0,0.0,0.0,0.0,0.0,0.0,0.0,0.0,0.0,0.0,0.0,0.0,0.0,0.0,0.0,0.0,0.0,0.0,0.0,0.0,0.0,0.0,2.4485,2.4303,2.4194,2.4194,2.4194,2.4194,0.0,0.0,0.0,0.0,0.0,0.0,0.0,0.0,0.0,0.0,0.0,0.0,0.0,0.0,0.0,0.0,0.0,0.0,0.0,0.0,0.0,0.0,0.0,0.0,0.0,0.0,0.0,0.0,0.0,0.0,0.0,0.0,0.0,0.0,0.0,0.0,0.0,0.0,0.0,0.0,0.0,0.0,0.0,0.0,0.0,0.0,0.0,0.0,0.0,0.0,0.0,0.0,0.0,0.0,0.0,0.0,0.0,0.0,0.0,0.0,0.0,0.0,0.0,0.0,0.0,0.0,0.0,0.0,0.0,0.0,0.0,0.0,0.0,0.0,0.0,0.0,0.0,0.0,0.0,0.0,0.0,0.0,0.0,0.0,0.0,0.0,0.0,0.0,0.0,0.0,0.0,0.0,0.0,0.0,0.0,0.0,0.0,0.0,0.0,0.0,0.0,0.0,0.0,0.0,0.0,0.0,0.0,0.0,0.0,2.4419,0.0,2.4194,2.4194,2.4194,2.4194,0.0,0.0,0.0,0.0,0.0,0.0,0.0,0.0,0.0,0.0,0.0,0.0,0.0,0.0,0.0,0.0,0.0,0.0,0.0,0.0,0.0,0.0,0.0,0.0,0.0,0.0,0.0,0.0,0.0,0.0,0.0,0.0,0.0,0.0,0.0,0.0,0.0,0.0,0.0,0.0,0.0,0.0,0.0,0.0,0.0,0.0,0.0,0.0,0.0,0.0,0.0,0.0,0.0,0.0,0.0,0.0,0.0,0.0,0.0,0.0,0.0,0.0,0.0,0.0,0.0,0.0,0.0,0.0,0.0,0.0,0.0,0.0,0.0,0.0,0.0,0.0,0.0,0.0,0.0,0.0,0.0,0.0,0.0,0.0,0.0,0.0,0.0,0.0,0.0,0.0,0.0,0.0,0.0,0.0,0.0,0.0,0.0,0.0,0.0,0.0,0.0,0.0,0.0,0.0,0.0,0.0,0.0,0.0,2.4599,2.4228,2.4199,2.419,2.419,2.4208,2.4208,0.0,0.0,0.0,0.0,0.0,0.0,0.0,0.0,0.0,0.0,0.0,0.0,0.0,0.0,0.0,0.0,0.0,0.0,0.0,0.0,0.0,0.0,0.0,0.0,0.0,0.0,0.0,0.0,0.0,0.0,0.0,0.0,0.0,0.0,0.0,0.0,0.0,0.0,0.0,0.0,0.0,0.0,0.0,0.0,0.0,0.0,0.0,0.0,0.0,0.0,0.0,0.0,0.0,0.0,0.0,0.0,0.0,0.0,0.0,0.0,0.0,0.0,0.0,0.0,0.0,0.0,0.0,0.0,0.0,0.0,0.0,0.0,0.0,0.0,0.0,0.0,0.0,0.0,0.0,0.0,0.0,0.0,0.0,0.0,0.0,0.0,0.0,0.0,0.0,0.0,0.0,0.0,0.0,0.0,0.0,0.0,0.0,0.0,0.0,0.0,0.0,0.0,0.0,0.0,0.0,0.0,0.0,0.0,0.0,2.4415,2.4266,2.4089,2.3863,2.4084,2.4094,0.0,0.0,0.0,0.0,0.0,0.0,0.0,0.0,0.0,0.0,0.0,0.0,0.0,0.0,0.0,0.0,0.0,0.0,0.0,0.0,0.0,0.0,0.0,0.0,0.0,0.0,0.0,0.0,0.0,0.0,0.0,0.0,0.0,0.0,0.0,0.0,0.0,0.0,0.0,0.0,0.0,0.0,0.0,0.0,0.0,0.0,0.0,0.0,0.0,0.0,0.0,0.0,0.0,0.0,0.0,0.0,0.0,0.0,0.0,0.0,0.0,0.0,0.0,0.0,0.0,0.0,0.0,0.0,0.0,0.0,0.0,0.0,0.0,0.0,0.0,0.0,0.0,0.0,0.0,0.0,0.0,0.0,0.0,0.0,0.0,0.0,0.0,0.0,0.0,0.0,0.0,0.0,0.0,0.0,0.0,0.0,0.0,0.0,0.0,0.0,0.0,0.0,0.0,0.0,0.0,0.0,0.0,0.0,0.0,2.491,2.445,2.4099,2.3891,2.4094,2.4099,2.3902,0.0,0.0,0.0,0.0,0.0,0.0,0.0,0.0,0.0,0.0,0.0,0.0,0.0,0.0,0.0,0.0,0.0,0.0,0.0,0.0,0.0,0.0,0.0,0.0,0.0,0.0,0.0,0.0,0.0,0.0,0.0,0.0,0.0,0.0,0.0,0.0,0.0,0.0,0.0,0.0,0.0,0.0,0.0,0.0,0.0,0.0,0.0,0.0,0.0,0.0,0.0,0.0,0.0,0.0,0.0,0.0,0.0,0.0,0.0,0.0,0.0,0.0,0.0,0.0,0.0,0.0,0.0,0.0,0.0,0.0,0.0,0.0,0.0,0.0,0.0,0.0,0.0,0.0,0.0,0.0,0.0,0.0,0.0,0.0,0.0,0.0,0.0,0.0,0.0,0.0,0.0,0.0,0.0,0.0,0.0,0.0,0.0,0.0,0.0,0.0,0.0,0.0,0.0,0.0,0.0,0.0,0.0,0.0,2.5693,2.481,2.4304,2.4239,2.4197,2.4161,0.0,0.0,0.0,0.0,0.0,0.0,0.0,0.0,0.0,0.0,0.0,0.0,0.0,0.0,0.0,0.0,0.0,0.0,0.0,0.0,0.0,0.0,0.0,0.0,0.0,0.0,0.0,0.0,0.0,0.0,0.0,0.0,0.0,0.0,0.0,0.0,0.0,0.0,0.0,0.0,0.0,0.0,0.0,0.0,0.0,0.0,0.0,0.0,0.0,0.0,0.0,0.0,0.0,0.0,0.0,0.0,0.0,0.0,0.0,0.0,0.0,0.0,0.0,0.0,0.0,0.0,0.0,0.0,0.0,0.0,0.0,0.0,0.0,0.0,0.0,0.0,0.0,0.0,0.0,0.0,0.0,0.0,0.0,0.0,0.0,0.0,0.0,0.0,0.0,0.0,0.0,0.0,0.0,0.0,0.0,0.0,0.0,0.0,0.0,0.0,0.0,0.0,0.0,0.0,0.0,0.0,0.0,0.0,0.0,2.5693,2.587,2.5565,2.4757,2.4153,2.3708,0.0,0.0,0.0,0.0,0.0,0.0,0.0,0.0,0.0,0.0,0.0,0.0,0.0,0.0,0.0,0.0,0.0,0.0,0.0,0.0,0.0,0.0,0.0,0.0,0.0,0.0,0.0,0.0,0.0,0.0,0.0,0.0,0.0,0.0,0.0,0.0,0.0,0.0,0.0,0.0,0.0,0.0,0.0,0.0,0.0,0.0,0.0,0.0,0.0,0.0,0.0,0.0,0.0,0.0,0.0,0.0,0.0,0.0,0.0,0.0,0.0,0.0,0.0,0.0,0.0,0.0,0.0,0.0,0.0,0.0,0.0,0.0,0.0,0.0,0.0,0.0,0.0,0.0,0.0,0.0,0.0,0.0,0.0,0.0,0.0,0.0,0.0,0.0,0.0,0.0,0.0,0.0,0.0,0.0,0.0,0.0,0.0,0.0,0.0,0.0,0.0,0.0,0.0,0.0,0.0,0.0,0.0,0.0,2.5681,2.605,2.5622,2.5392,2.5411,2.4624,2.3885,0.0,0.0,0.0,0.0,0.0,0.0,0.0,0.0,0.0,0.0,0.0,0.0,0.0,0.0,0.0,0.0,0.0,0.0,0.0,0.0,0.0,0.0,0.0,0.0,0.0,0.0,0.0,0.0,0.0,0.0,0.0,0.0,0.0,0.0,0.0,0.0,0.0,0.0,0.0,0.0,0.0,0.0,0.0,0.0,0.0,0.0,0.0,0.0,0.0,0.0,0.0,0.0,0.0,0.0,0.0,0.0,0.0,0.0,0.0,0.0,0.0,0.0,0.0,0.0,0.0,0.0,0.0,0.0,0.0,0.0,0.0,0.0,0.0,0.0,0.0,0.0,0.0,0.0,0.0,0.0,0.0,0.0,0.0,0.0,0.0,0.0,0.0,0.0,0.0,0.0,0.0,0.0,0.0,0.0,0.0,0.0,0.0,0.0,0.0,0.0,0.0,0.0,0.0,0.0,0.0,0.0,0.0,0.0,2.546,2.6539,2.4972,2.4742,2.596,2.5151,2.4205,0.0,0.0,0.0,0.0,0.0,0.0,0.0,0.0,0.0,0.0,0.0,0.0,0.0,0.0,0.0,0.0,0.0,0.0,0.0,0.0,0.0,0.0,0.0,0.0,0.0,0.0,0.0,0.0,0.0,0.0,0.0,0.0,0.0,0.0,0.0,0.0,0.0,0.0,0.0,0.0,0.0,0.0,0.0,0.0,0.0,0.0,0.0,0.0,0.0,0.0,0.0,0.0,0.0,0.0,0.0,0.0,0.0,0.0,0.0,0.0,0.0,0.0,0.0,0.0,0.0,0.0,0.0,0.0,0.0,0.0,0.0,0.0,0.0,0.0,0.0,0.0,0.0,0.0,0.0,0.0,0.0,0.0,0.0,0.0,0.0,0.0,0.0,0.0,0.0,0.0,0.0,0.0,0.0,0.0,0.0,0.0,0.0,0.0,0.0,0.0,0.0,0.0,0.0,0.0,0.0,0.0,0.0,0.0,2.5862,2.6581,2.6816,2.6532,2.5711,2.4063,2.3042,0.0,0.0,0.0,0.0,0.0,0.0,0.0,0.0,0.0,0.0,0.0,0.0,0.0,0.0,0.0,0.0,0.0,0.0,0.0,0.0,0.0,0.0,0.0,0.0,0.0,0.0,0.0,0.0,0.0,0.0,0.0,0.0,0.0,0.0,0.0,0.0,0.0,0.0,0.0,0.0,0.0,0.0,0.0,0.0,0.0,0.0,0.0,0.0,2.3827,0.0,0.0,0.0,0.0,0.0,0.0,0.0,0.0,0.0,0.0,0.0,0.0,0.0,0.0,0.0,0.0,0.0,0.0,0.0,0.0,0.0,0.0,0.0,0.0,0.0,0.0,0.0,0.0,0.0,0.0,0.0,0.0,0.0,0.0,0.0,0.0,0.0,0.0,0.0,0.0,0.0,0.0,0.0,0.0,0.0,0.0,0.0,0.0,0.0,0.0,0.0,0.0,0.0,0.0,0.0,0.0,0.0,0.0,0.0,2.5426,2.6017,2.5946,2.5603,2.5005,2.3522,2.2641,0.0,0.0,0.0,0.0,0.0,0.0,0.0,0.0,0.0,0.0,0.0,0.0,0.0,0.0,0.0,0.0,0.0,0.0,0.0,0.0,0.0,0.0,0.0,0.0,0.0,0.0,0.0,0.0,0.0,0.0,0.0,0.0,0.0,0.0,0.0,0.0,0.0,0.0,0.0,0.0,0.0,0.0,0.0,0.0,0.0,0.0,0.0,0.0,0.0,0.0,0.0,0.0,0.0,0.0,0.0,0.0,0.0,0.0,0.0,0.0,0.0,0.0,0.0,0.0,0.0,0.0,0.0,0.0,0.0,0.0,0.0,0.0,0.0,0.0,0.0,0.0,0.0,0.0,0.0,0.0,0.0,0.0,0.0,0.0,0.0,0.0,0.0,0.0,0.0,0.0,0.0,0.0,0.0,0.0,0.0,0.0,0.0,0.0,0.0,0.0,0.0,0.0,0.0,0.0,0.0,0.0,0.0,2.4543,2.4759,2.5324,2.4455,2.4091,2.4376,2.3455,2.2773,2.2384,0.0,0.0,0.0,0.0,0.0,0.0,0.0,0.0,0.0,0.0,0.0,0.0,0.0,0.0,0.0,0.0,0.0,0.0,0.0,0.0,0.0,0.0,0.0,0.0,0.0,0.0,0.0,0.0,0.0,0.0,0.0,0.0,0.0,0.0,0.0,0.0,0.0,0.0,2.4475,2.4418,0.0,0.0,0.0,0.0,0.0,0.0,0.0,0.0,2.4021,0.0,0.0,0.0,0.0,0.0,0.0,0.0,0.0,0.0,0.0,0.0,0.0,0.0,0.0,0.0,0.0,0.0,0.0,0.0,0.0,0.0,0.0,0.0,0.0,0.0,0.0,0.0,0.0,0.0,0.0,0.0,0.0,0.0,0.0,0.0,0.0,0.0,0.0,0.0,0.0,0.0,0.0,0.0,0.0,0.0,0.0,0.0,0.0,0.0,0.0,0.0,0.0,0.0,0.0,0.0,0.0,2.4557,2.4344,2.4624,2.5379,2.5211,2.4884,2.4419,2.4208,2.3668,2.2699,0.0,0.0,0.0,0.0,0.0,0.0,0.0,0.0,0.0,0.0,0.0,0.0,0.0,0.0,0.0,0.0,0.0,0.0,0.0,0.0,0.0,0.0,0.0,0.0,0.0,0.0,0.0,0.0,0.0,0.0,0.0,0.0,0.0,0.0,0.0,0.0,0.0,0.0,0.0,2.4793,2.5209,0.0,0.0,0.0,0.0,0.0,0.0,0.0,0.0,2.544,0.0,0.0,0.0,0.0,0.0,0.0,0.0,0.0,0.0,0.0,0.0,0.0,0.0,0.0,0.0,0.0,0.0,0.0,0.0,0.0,0.0,0.0,0.0,0.0,0.0,0.0,0.0,0.0,0.0,0.0,0.0,0.0,0.0,0.0,0.0,0.0,0.0,0.0,0.0,0.0,0.0,0.0,0.0,0.0,0.0,0.0,0.0,0.0,0.0,0.0,0.0,0.0,0.0,0.0,0.0,2.4665,2.4371,2.4392,2.4764,2.4787,2.4535,2.4043,2.3875,2.359,0.0,0.0,0.0,0.0,0.0,0.0,0.0,0.0,0.0,0.0,0.0,0.0,0.0,0.0,0.0,0.0,0.0,0.0,0.0,0.0,0.0,0.0,0.0,0.0,0.0,0.0,0.0,0.0,0.0,0.0,0.0,0.0,0.0,0.0,0.0,0.0,0.0,0.0,0.0,0.0,2.5926,2.6146,2.6032,0.0,0.0,0.0,0.0,0.0,0.0,2.6109,2.615,0.0,0.0,0.0,0.0,0.0,0.0,0.0,0.0,0.0,0.0,0.0,0.0,0.0,0.0,0.0,0.0,0.0,0.0,0.0,0.0,0.0,0.0,0.0,0.0,0.0,0.0,0.0,0.0,0.0,0.0,0.0,0.0,0.0,0.0,0.0,0.0,0.0,0.0,0.0,0.0,0.0,0.0,0.0,0.0,0.0,0.0,0.0,0.0,0.0,0.0,0.0,0.0,0.0,0.0,0.0,2.4786,2.441,2.4194,2.4194,2.4194,2.4006,2.361,2.3346,2.3329,0.0,0.0,0.0,0.0,0.0,0.0,0.0,0.0,0.0,0.0,0.0,0.0,0.0,0.0,0.0,0.0,0.0,0.0,0.0,0.0,0.0,0.0,0.0,0.0,0.0,0.0,0.0,0.0,0.0,0.0,0.0,0.0,0.0,0.0,0.0,0.0,0.0,0.0,0.0,0.0,0.0,2.7083,2.6916,2.7011,0.0,0.0,0.0,0.0,2.6525,2.668,0.0,0.0,0.0,0.0,0.0,0.0,0.0,0.0,0.0,0.0,0.0,0.0,0.0,0.0,0.0,0.0,0.0,0.0,0.0,0.0,0.0,0.0,0.0,0.0,0.0,0.0,0.0,0.0,0.0,0.0,0.0,0.0,0.0,0.0,0.0,0.0,0.0,0.0,0.0,0.0,0.0,0.0,0.0,0.0,0.0,0.0,0.0,0.0,0.0,0.0,0.0,0.0,0.0,0.0,0.0,0.0,2.4786,2.441,2.4194,2.4194,2.4194,2.3896,2.3271,2.323,2.323,0.0,0.0,0.0,0.0,0.0,0.0,0.0,0.0,0.0,0.0,0.0,0.0,0.0,0.0,0.0,0.0,0.0,0.0,0.0,0.0,0.0,0.0,0.0,0.0,0.0,0.0,0.0,0.0,0.0,0.0,0.0,0.0,0.0,0.0,0.0,0.0,0.0,0.0,0.0,0.0,0.0,2.7946,2.7935,2.8373,2.873,0.0,0.0,2.8072,2.7739,2.7729,0.0,0.0,0.0,0.0,0.0,0.0,0.0,0.0,0.0,0.0,0.0,0.0,0.0,0.0,0.0,0.0,0.0,0.0,0.0,0.0,0.0,0.0,0.0,0.0,0.0,0.0,0.0,0.0,0.0,0.0,0.0,0.0,0.0,0.0,0.0,0.0,0.0,0.0,0.0,0.0,0.0,0.0,0.0,0.0,0.0,0.0,0.0,0.0,0.0,0.0,0.0,0.0,0.0,0.0,0.0,2.5016,2.5442,2.5087,2.4874,2.4874,2.4699,2.4433,2.4098,2.3335,2.3299,0.0,0.0,0.0,0.0,0.0,0.0,0.0,0.0,0.0,0.0,0.0,0.0,0.0,0.0,0.0,0.0,0.0,0.0,0.0,0.0,0.0,0.0,0.0,0.0,0.0,0.0,0.0,0.0,0.0,0.0,0.0,0.0,0.0,0.0,0.0,0.0,0.0,0.0,0.0,0.0,0.0,0.0,2.8646,2.8833,0.0,0.0,0.0,2.9538,2.9839,0.0,0.0,0.0,0.0,0.0,0.0,0.0,0.0,0.0,0.0,0.0,0.0,0.0,0.0,0.0,0.0,0.0,0.0,0.0,0.0,0.0,0.0,0.0,0.0,0.0,0.0,0.0,0.0,0.0,0.0,0.0,0.0,0.0,0.0,0.0,0.0,0.0,0.0,0.0,0.0,0.0,0.0,0.0,0.0,0.0,0.0,0.0,0.0,0.0,0.0,0.0,0.0,0.0,0.0,0.0,0.0,0.0,2.5977,2.5801,2.5705,2.5676,2.5359,2.5109,2.4968,2.3686,0.0,0.0,0.0,0.0,0.0,0.0,0.0,0.0,0.0,0.0,0.0,0.0,0.0,0.0,0.0,0.0,0.0,0.0,0.0,0.0,0.0,0.0,0.0,0.0,0.0,0.0,0.0,2.5964,0.0,0.0,0.0,0.0,0.0,0.0,0.0,0.0,0.0,0.0,0.0,0.0,0.0,0.0,3.0171,2.9769,2.9621,2.98,0.0,0.0,3.0675,3.1192,3.1175,3.0827,0.0,0.0,0.0,0.0,0.0,0.0,0.0,0.0,0.0,0.0,0.0,0.0,0.0,0.0,0.0,0.0,0.0,0.0,0.0,0.0,0.0,0.0,0.0,0.0,0.0,0.0,0.0,0.0,0.0,0.0,0.0,0.0,0.0,0.0,0.0,0.0,0.0,0.0,0.0,0.0,0.0,0.0,0.0,0.0,0.0,0.0,0.0,0.0,0.0,0.0,0.0,0.0,0.0,0.0,0.0,2.6003,2.6343,2.6521,2.651,2.6135,2.5787,2.5445,2.4392,2.3986,0.0,0.0,0.0,0.0,0.0,0.0,0.0,0.0,0.0,0.0,0.0,0.0,0.0,0.0,0.0,0.0,0.0,0.0,0.0,0.0,0.0,0.0,0.0,0.0,0.0,0.0,0.0,0.0,0.0,0.0,0.0,0.0,0.0,0.0,0.0,0.0,0.0,0.0,0.0,0.0,0.0,3.1934,3.1642,3.1388,3.1262,0.0,0.0,3.1235,3.0998,3.0578,3.0402,3.0756,0.0,0.0,0.0,0.0,0.0,0.0,0.0,0.0,0.0,0.0,0.0,0.0,0.0,0.0,0.0,0.0,0.0,0.0,0.0,0.0,0.0,0.0,0.0,0.0,0.0,0.0,0.0,0.0,0.0,0.0,0.0,0.0,0.0,0.0,0.0,0.0,0.0,0.0,0.0,0.0,0.0,0.0,0.0,0.0,0.0,0.0,0.0,0.0,0.0,0.0,0.0,0.0,0.0,2.6977,2.7474,2.7377,2.7328,2.7341,2.6992,2.6735,2.6551,2.5285,2.4989,0.0,0.0,0.0,0.0,0.0,0.0,0.0,0.0,0.0,0.0,0.0,0.0,0.0,0.0,0.0,0.0,0.0,0.0,0.0,0.0,0.0,0.0,0.0,0.0,0.0,0.0,0.0,0.0,2.8626,2.93,2.9852,0.0,0.0,0.0,0.0,0.0,0.0,0.0,0.0,0.0,0.0,3.187,3.159,3.147,0.0,0.0,3.2155,3.2275,3.2638,3.2531,3.223,3.1732,3.1488,0.0,0.0,0.0,0.0,0.0,0.0,0.0,0.0,0.0,0.0,0.0,0.0,0.0,0.0,0.0,0.0,0.0,0.0,0.0,0.0,0.0,0.0,0.0,0.0,0.0,0.0,0.0,0.0,0.0,0.0,0.0,0.0,0.0,0.0,0.0,0.0,0.0,0.0,0.0,0.0,0.0,0.0,0.0,0.0,0.0,0.0,0.0,0.0,0.0,0.0,0.0,0.0,2.7834,2.841,2.8229,2.8154,2.8154,2.7809,2.7603,2.7529,2.6182,2.5823,0.0,0.0,0.0,0.0,0.0,0.0,0.0,0.0,0.0,0.0,0.0,0.0,0.0,0.0,0.0,0.0,0.0,0.0,0.0,0.0,0.0,0.0,0.0,0.0,0.0,0.0,0.0,0.0,2.9143,2.9833,3.0692,0.0,0.0,0.0,0.0,0.0,0.0,0.0,0.0,0.0,0.0,3.2416,3.2151,3.2113,3.2327,3.2883,3.2974,3.3158,3.3715,3.3567,3.3176,3.2517,0.0,0.0,0.0,0.0,0.0,0.0,0.0,0.0,0.0,0.0,0.0,0.0,0.0,0.0,0.0,0.0,0.0,0.0,0.0,0.0,0.0,0.0,0.0,0.0,0.0,0.0,0.0,0.0,0.0,0.0,2.7791,0.0,0.0,0.0,0.0,0.0,0.0,0.0,0.0,0.0,0.0,0.0,0.0,0.0,0.0,0.0,0.0,0.0,0.0,0.0,0.0,0.0,0.0,2.8387,2.842,2.877,2.895,2.8938,2.8584,2.8366,2.8316,2.6954,2.6343,2.6707,0.0,0.0,0.0,0.0,0.0,0.0,0.0,0.0,0.0,0.0,0.0,0.0,0.0,0.0,0.0,0.0,0.0,0.0,0.0,0.0,0.0,0.0,0.0,0.0,0.0,0.0,3.0365,3.0365,3.0731,0.0,0.0,0.0,0.0,0.0,0.0,0.0,0.0,0.0,0.0,3.4144,3.4037,3.375,3.3733,3.3697,3.3733,3.377,3.377,3.3782,3.3095,3.2681,0.0,0.0,0.0,0.0,0.0,0.0,0.0,0.0,0.0,0.0,0.0,0.0,0.0,0.0,0.0,0.0,0.0,0.0,0.0,0.0,0.0,0.0,0.0,0.0,0.0,0.0,0.0,2.7047,2.7043,0.0,0.0,0.0,0.0,0.0,0.0,0.0,0.0,0.0,0.0,0.0,3.0493,3.0353,0.0,0.0,0.0,0.0,0.0,0.0,0.0,0.0,0.0,0.0,0.0,0.0,2.9207,2.9073,2.9023,2.8987,2.8999,2.8863,2.8688,2.8389,2.7691,2.724,2.7111,0.0,0.0,0.0,0.0,0.0,0.0,0.0,0.0,0.0,0.0,0.0,0.0,0.0,0.0,0.0,0.0,0.0,0.0,0.0,0.0,0.0,0.0,0.0,0.0,0.0,3.1484,0.0,0.0,0.0,0.0,0.0,0.0,0.0,0.0,0.0,0.0,0.0,3.4103,3.4199,3.4049,3.3884,3.3827,3.3807,3.3807,0.0,0.0,0.0,0.0,0.0,0.0,0.0,0.0,0.0,0.0,0.0,0.0,0.0,0.0,3.0456,3.0473,3.0473,3.0473,3.0456,0.0,0.0,0.0,0.0,0.0,0.0,0.0,0.0,0.0,0.0,0.0,0.0,0.0,0.0,2.7444,0.0,2.7394,0.0,0.0,0.0,0.0,0.0,0.0,0.0,0.0,3.0182,3.0442,3.1071,3.0952,3.1223,0.0,3.1856,3.1428,0.0,0.0,0.0,0.0,0.0,0.0,0.0,0.0,2.9537,2.9397,2.9139,2.8987,2.8987,2.8987,2.8893,2.8602,2.8136,2.7641,2.7115,2.7091,2.7288,0.0,0.0,0.0,0.0,0.0,0.0,0.0,0.0,0.0,0.0,0.0,0.0,0.0,0.0,0.0,0.0,0.0,0.0,0.0,0.0,0.0,0.0,0.0,3.2194,0.0,0.0,0.0,0.0,0.0,0.0,0.0,0.0,0.0,3.4954,3.4526,3.4171,3.4062,3.3909,3.3807,3.3807,0.0,0.0,0.0,0.0,0.0,0.0,0.0,3.3166,3.2599,3.2501,3.2418,3.2109,3.1788,3.1507,3.1259,0.0,0.0,3.119,3.119,3.119,3.119,3.0167,2.9266,2.9266,2.8061,2.7001,0.0,0.0,0.0,0.0,0.0,0.0,0.0,0.0,2.8586,2.9002,0.0,2.8923,0.0,0.0,0.0,0.0,0.0,3.0699,0.0,0.0,3.1464,3.1403,3.144,3.1427,3.1439,3.1482,3.1513,3.1635,3.1862,3.205,0.0,0.0,0.0,0.0,0.0,0.0,2.9472,2.9488,2.9239,2.9078,2.9115,2.9097,2.9073,2.9019,2.8291,2.7542,2.6766,2.6801,2.6949,2.7353,2.7802,0.0,0.0,0.0,0.0,0.0,0.0,0.0,0.0,0.0,0.0,0.0,0.0,0.0,0.0,0.0,0.0,0.0,0.0,0.0,0.0,3.2412,0.0,0.0,0.0,0.0,0.0,0.0,0.0,0.0,0.0,0.0,3.4799,3.4441,3.4105,3.3835,0.0,0.0,0.0,0.0,3.3807,3.3807,3.3807,3.3782,3.3741,3.3083,3.2543,3.2459,0.0,0.0,3.121,3.12,3.121,3.119,3.119,3.119,3.119,3.119,3.119,3.1171,3.0249,2.9469,2.9291,2.8043,2.6772,2.8334,0.0,0.0,0.0,0.0,2.8713,2.876,2.8483,2.9022,2.9366,2.9568,2.9703,0.0,0.0,0.0,0.0,0.0,0.0,3.1483,3.1489,3.1154,3.1419,3.2246,3.1965,3.2295,3.3109,3.3116,3.3137,3.3227,3.3272,3.278,3.1775,0.0,0.0,0.0,0.0,3.103,3.0843,3.0735,3.0705,3.0705,3.0705,3.0289,2.9449,2.8708,2.7952,2.7156,2.7671,2.8164,2.8586,2.9508,0.0,0.0,0.0,0.0,0.0,0.0,0.0,0.0,0.0,0.0,0.0,0.0,0.0,0.0,0.0,0.0,0.0,0.0,0.0,3.3528,3.3901,3.4149,0.0,0.0,0.0,0.0,0.0,0.0,0.0,0.0,0.0,3.6098,3.4828,3.3883,0.0,0.0,3.3807,3.3807,3.3807,3.3807,3.3807,3.3807,0.0,3.2965,3.2934,3.2673,3.174,3.1378,3.119,3.119,3.119,3.119,3.119,3.119,3.119,3.119,3.119,3.119,3.1141,3.0559,2.9903,2.9446,2.858,2.7841,2.837,2.8322,2.8335,2.8238,2.816,2.8583,2.8534,2.8219,2.8956,2.9471,2.9737,2.9737,3.0158,3.0898,3.1068,0.0,0.0,0.0,3.1694,3.1833,3.1798,3.2136,3.2807,3.2756,3.3102,3.3775,3.3627,3.3576,3.3557,3.3564,3.3218,3.2566,0.0,0.0,3.1428,3.156,3.156,3.1403,3.1409,3.1409,3.1409,3.1245,3.0735,2.9865,2.923,2.8616,2.8021,2.8432,2.8881,2.9277,3.0149,3.0803,0.0,0.0,0.0,0.0,0.0,0.0,0.0,0.0,0.0,0.0,0.0,3.1038,3.1332,0.0,0.0,0.0,3.2831,3.3301,3.3999,3.4634,0.0,0.0,0.0,0.0,0.0,0.0,0.0,3.6896,3.6708,3.6542,3.6517,3.5535,3.478,3.478,3.4497,3.4387,3.475,0.0,3.3892,3.4222,3.4009,3.3564,3.2887,3.2848,3.2526,3.1397,3.119,3.119,3.119,3.119,3.119,3.119,3.119,3.119,3.119,3.119,3.119,3.1181,3.0726,3.0187,2.9816,2.9104,2.8383,2.8472,2.9022,2.8972,2.8743,2.8461,2.8505,2.8331,2.8052,2.8848,2.9542,3.0142,2.9521,2.9784,3.0734,3.0431,0.0,3.1397,3.138,3.1811,3.2509,3.2921,3.3105,3.3151,3.3476,3.3655,3.3694,3.3324,3.3151,3.3206,3.3151,3.3136,3.3125,3.278,3.2065,3.1126,3.142,3.158,3.153,3.1548,3.1536,3.1479,3.1123,3.0732,3.0305,2.9841,2.9412,2.9065,2.9107,2.9296,2.9685,3.0128,3.0601,3.1051,0.0,0.0,0.0,0.0,0.0,0.0,0.0,0.0,0.0,0.0,0.0,0.0,0.0,0.0,0.0,3.3435,0.0,3.3967,3.4946,0.0,0.0,0.0,3.7079,3.7132,3.6901,3.6786,3.6842,0.0,0.0,3.6486,3.6494,3.6512,3.6486,3.569,3.5389,3.62,3.4988,3.4284,3.5023,3.4479,3.3865,3.3463,3.2904,3.2205,3.1366,3.119,3.119,3.119,3.119,3.119,3.119,3.119,3.119,3.119,3.119,3.119,3.119,3.0771,3.0366,3.023,2.9395,2.8594,2.8755,2.9248,2.8696,2.8598,2.8916,2.9459,2.9633,2.9608,3.0345,3.0768,3.0949,3.109,3.148,3.2042,3.1957,3.2042,3.2209,3.2209,3.2324,3.2484,3.2239,3.2324,3.2648,3.239,3.2457,3.2775,3.2705,3.284,3.3176,3.2832,3.2665,3.2655,3.2583,3.2712,3.309,3.3173,3.3074,3.2759,3.277,3.2599,3.2255,3.2145,3.1757,3.1052,3.0634,3.0093,2.9429,2.9972,3.0344,3.0465,3.1403,3.2161,3.2624,3.2719,0.0,0.0,0.0,0.0,0.0,0.0,0.0,0.0,0.0,3.2391,3.2583,0.0,3.3653,0.0,3.4376,3.4896,3.5356,3.6011,0.0,0.0,3.6634,3.695,3.7359,3.7354,3.7536,3.8155,3.8165,3.8138,3.8112,3.8131,3.8131,3.8102,3.6883,3.6075,3.6273,3.6016,3.5752,3.5917,3.5775,3.5403,3.4427,3.3241,3.2107,3.1324,3.119,3.119,3.119,3.119,3.119,3.119,3.119,3.119,3.119,3.119,3.119,3.119,3.1075,3.0838,3.0393,2.9695,2.907,2.885,2.9363,2.8952,2.8935,2.9214,2.9546,2.9847,3.0149,3.0869,3.119,3.121,3.1439,3.1677,3.1914,3.1932,3.1914,3.1932,3.1932,3.1932,3.1905,3.1834,3.1942,3.217,3.2127,3.2256,3.2502,3.2281,3.2324,3.2549,3.2324,3.2179,3.2205,3.2391,3.2745,3.3203,3.3225,3.3211,3.3206,3.2973,3.2761,3.2509,3.229,3.2071,3.1823,3.1237,3.0805,3.0525,3.0789,3.1112,3.1506,3.2129,3.2801,3.3419,3.3473,3.3357,0.0,0.0,0.0,0.0,0.0,0.0,0.0,0.0,0.0,0.0,0.0,3.4567,3.5084,3.5404,3.5728,3.6044,3.6672,3.7059,3.7077,3.7385,3.7725,3.8003,3.8036,3.8219,3.8644,3.8699,3.8699,3.8699,3.8699,3.8699,3.8699,3.7936,3.7367,3.7276,3.6817,3.6413,3.6743,3.6339,3.5477,3.4208,3.306,3.2056,3.1369,3.119,3.119,3.119,3.119,3.119,3.119,3.119,3.119,3.119,3.119,3.119,3.119,3.119,3.0958,3.0425,3.0021,2.9574,2.8701,2.9168,2.9168,2.9214,2.9295,2.9172,2.9502,3.0172,3.089,3.119,3.119,3.119,3.119,3.119,3.119,3.119,3.119,3.119,3.119,3.1203,3.1556,3.1733,3.1734,3.2127,3.2386,3.2448,3.2063,3.1881,3.1945,3.1899,3.1881,3.1981,3.2301,3.2561,3.27,3.2649,3.2745,3.3014,3.2624,3.2417,3.2391,3.2021,3.2004,3.2358,3.162,3.137,3.1706,3.1399,3.1553,3.2273,3.2412,3.283,3.3647,3.3837,3.3959,0.0,3.4073,0.0,0.0,0.0,0.0,0.0,0.0,0.0,0.0,3.4699,3.5488,3.6248,3.6402,3.6457,3.6457,3.718,3.7658,3.7669,3.8293,3.8699,3.8699,3.8699,3.8699,3.8699,3.8699,3.8699,3.8699,3.8699,3.8699,3.8681,3.8634,3.8534,3.856,3.7533,3.6971,3.7577,3.6567,3.5363,3.3713,3.284,3.2192,3.1437,3.119,3.119,3.119,3.119,3.119,3.119,3.119,3.119,3.119,3.119,3.119,3.119,3.119,3.1035,3.0586,3.0219,2.9827,2.7848,2.7956,2.7944,2.8222,2.8662,2.8654,2.9259,3.0315,3.0928,3.119,3.119,3.119,3.119,3.119,3.119,3.119,3.119,3.119,3.119,3.119,3.1271,3.1303,3.1329,3.1399,3.1764,3.23,3.2236,3.2413,3.2759,3.2393,3.2403,3.2767,3.2483,3.282,3.3717,0.0,0.0,0.0,3.1977,3.1924,3.1924,3.1835,3.1835,3.1924,3.1458,0.0,3.1293,3.1249,3.1271,3.1454,3.201,0.0,0.0,0.0,0.0,0.0,0.0,0.0,0.0,0.0,0.0,0.0,3.5925,3.5532,3.4876,3.5569,3.6119,3.6292,3.6898,3.729,3.729,3.7999,3.8469,3.8469,3.8615,3.8699,3.8699,3.8699,3.8699,3.8699,3.8699,3.8699,3.8736,3.8699,3.8699,3.8699,3.8699,3.8699,3.8692,3.8346,3.827,3.8368,3.7401,3.6127,3.4254,3.3512,3.2679,3.1596,3.119,3.119,3.119,3.119,3.119,3.119,3.119,3.119,3.119,3.119,3.119,3.119,3.119,3.1171,3.1035,3.024,2.9496,2.7585,0.0,2.7585,2.7773,0.0,2.8383,2.885,2.9451,3.0032,3.0493,3.0777,3.1065,3.119,3.119,3.119,3.119,3.119,3.119,3.119,3.1207,3.1572,3.1725,3.1742,3.2131,3.2486,3.2841,3.2858,3.2975,3.3173,3.2948,3.2965,3.32,3.2965,3.3151,3.3717,3.3532,3.3131,3.2591,3.2574,3.2574,3.2601,3.2574,3.27,3.292,3.2517,0.0,0.0,0.0,0.0,0.0,0.0,0.0,0.0,3.4419,0.0,3.5465,3.5748,3.6206,3.6809,3.653,3.6475,3.6861,3.6898,3.6707,3.6266,3.6641,3.7063,3.7459,3.7863,3.8091,3.8109,3.8461,3.8854,3.9239,3.9294,3.9423,3.9764,3.9533,3.9452,3.9727,3.9177,3.8836,3.9239,3.8927,3.8718,3.8699,3.8699,3.8604,3.8348,3.83,3.8185,3.7658,3.72,3.6232,3.4672,3.3805,3.3068,3.2012,3.1437,3.1207,3.119,3.119,3.119,3.119,3.119,3.119,3.119,3.119,3.119,3.119,3.119,3.119,3.1181,3.0709,3.0091,2.7585,2.7585,2.7585,2.7585,2.765,2.8128,2.8347,2.8391,0.0,0.0,0.0,3.0978,3.1258,3.1386,3.1403,3.1471,3.1579,3.1596,3.1596,3.1613,3.2198,3.2503,3.252,3.3119,3.3463,3.3592,3.3592,3.3609,3.3592,3.3592,3.3582,3.3592,3.3582,3.366,3.3785,3.3785,3.3785,3.3795,3.3609,3.3532,3.3532,3.3515,3.3721,3.4086,3.3649,3.3577,3.3948,3.3608,3.3611,3.4096,3.4229,3.4503,3.4897,3.5155,3.5472,3.5879,3.6029,3.6526,3.7609,3.7099,3.7008,3.7676,3.7705,3.7713,3.7694,3.7731,3.7981,3.8644,3.8836,3.8846,3.8718,3.8854,3.9184,3.9835,3.989,4.0212,4.0912,4.0516,4.0359,4.081,3.9947,3.9294,3.9753,3.9357,3.8797,3.8606,3.8504,3.83,3.7799,3.7711,3.7497,3.6706,3.6508,3.5963,3.4746,3.3867,3.3136,3.2378,3.1657,3.1207,3.119,3.119,3.119,3.119,3.119,3.119,3.119,3.119,3.119,3.119,3.119,3.119,3.119,3.1121,3.0638,2.76,2.7585,2.7585,2.7585,2.7612,2.7685,2.7723,2.7872,2.9457,3.0508,3.1065,3.1161,3.1556,3.2141,3.2141,3.2503,3.3057,3.3074,3.3074,3.3102,3.3186,3.3254,3.3254,3.3345,3.3744,3.4303,3.4336,3.4347,3.4347,3.4347,3.4347,3.4336,3.4347,3.4658,3.5256,3.5278,3.5278,3.5267,3.4429,3.3997,3.4007,3.3997,3.4044,3.4076,3.3676,3.3427,3.3483,3.3455,3.3632,3.4171,3.4772,3.5337,3.5801,3.6791,3.7492,3.7577,3.7988,3.8334,3.8498,3.8424,3.8414,3.8516,3.8542,3.8542,3.8542,3.8542,3.8579,3.8726,3.9313,3.9441,3.8872,3.9331,3.9798,3.9918,3.9908,4.0238,4.1085,4.1022,4.1012,4.1177,4.0956,4.0427,4.0033,3.9805,3.9224,3.8331,3.8085,3.7694,3.702,3.7028,3.702,3.657,3.6412,3.5872,3.4844,3.3897,3.3247,3.2412,3.1792,3.1376,3.1376,3.1326,3.1292,3.1224,3.1224,3.119,3.119,3.119,3.119,3.119,3.119,3.119,3.1181,3.0828,3.0219,2.7774,2.8128,2.8141,2.8141,2.8141,2.8141,2.8328,2.8688,2.9493,2.9804,2.9859,3.0832,3.1498,3.1863,3.2572,3.3078,3.3389,3.3389,3.3389,3.3413,3.3829,3.3998,3.4032,3.4393,3.4765,3.5087,3.5115,3.5098,3.5087,3.5087,3.5103,3.5087,3.5087,3.5273,3.5583,3.5628,3.5628,3.5594,3.5146,3.4923,3.4899,3.4933,3.4906,3.4923,3.4688,3.4585,3.4596,3.4596,3.4699,3.4948,3.5283,3.5554,3.5797,3.6326,3.6761,3.7069,3.7587,3.7999,3.8232,3.8949,3.9166,3.8773,3.9507,3.98,3.9376,3.935,3.935,3.9368,4.0084,4.0406,4.0039,4.0351,4.0726,4.1148,4.1203,4.1523,4.2176,4.1992,4.1911,4.2187,4.1316,4.065,4.0714,4.0095,3.9409,3.8573,3.8008,3.7247,3.6508,3.6354,3.627,3.6028,3.5963,3.5757,3.5148,3.4489,3.3907,3.3518,3.2892,3.2459,3.2357,3.2121,3.1809,3.1759,3.1488,3.1224,3.119,3.119,3.119,3.119,3.119,3.119,3.1105,3.0487,2.9651,2.7616,2.8237,2.8454,2.8657,2.8831,2.8831,2.9115,2.949,2.9531,2.9223,2.9048,3.078,3.1715,3.1996,3.3111,3.3734,3.3869,3.3903,3.3892,3.3954,3.4489,3.4742,3.4793,3.534,3.5628,3.5628,3.5628,3.5628,3.5628,3.5628,3.5628,3.5633,3.578,3.5881,3.5881,3.6039,3.6135,3.6118,3.6118,3.5955,3.5616,3.5628,3.5611,3.5628,3.5611,3.5628,3.5628,3.5628,3.5735,3.5993,3.6021,3.6156,3.6442,3.6584,3.6817,3.7241,3.7638,3.7969,3.8259,3.9187,3.9528,3.8937,3.9993,4.0499,4.006,4.015,4.015,4.0095,4.0666,4.1078,4.0892,4.1186,4.1611,4.2223,4.2166,4.2326,4.3084,4.2648,4.2466,4.2949,4.1787,4.1005,4.1102,4.051,3.9558,3.8644,3.7708,3.6841,3.6291,3.592,3.5783,3.5633,3.5628,3.5622,3.5577,3.4951,3.4506,3.4483,3.3846,3.3254,3.3,3.2571,3.2209,3.1979,3.1556,3.1241,3.119,3.119,3.119,3.119,3.119,3.1095,3.0699,3.0081,2.9248,2.6657,2.7232,2.804,2.8802,2.9461,2.9503,2.9557,2.9596,2.9597,2.9567,2.9734,3.1474,3.2651,3.336,3.4024,3.4677,3.5239,3.538,3.5324,3.5307,3.5447,3.5509,3.5464,3.5577,3.5628,3.5616,3.5628,3.565,3.5752,3.5684,3.5661,3.5701,3.6315,3.6699,3.675,3.733,3.7657,3.7691,3.7691,3.7014,3.5701,3.5628,3.5628,3.5628,3.5628,3.5628,3.565,3.5628,3.6134,3.7191,3.7299,3.7828,3.8854,3.9443,3.9747,3.9748,3.9813,3.9737,3.9321,3.9372,3.9442,3.9357,3.954,3.9834,4.0167,4.0826,4.0926,4.0492,4.0914,4.1124,4.0465,4.1404,4.2106,4.2188,4.1842,4.1829,4.2543,4.223,4.2083,4.2694,4.2403,4.2205,4.1441,4.1067,4.0131,3.8192,3.7275,3.6513,3.6017,3.6006,3.6017,3.5717,3.5628,3.5628,3.5543,3.4996,3.4675,3.4506,3.3947,3.3457,3.3034,3.2672,3.2202,3.2232,3.1522,3.1454,3.1275,3.119,3.1241,3.119,3.1105,3.0882,2.9951,2.9518,2.9184,2.7011,2.7673,2.8522,2.917,2.9627,2.9982,3.0147,3.0118,3.0118,3.0342,3.0842,3.2013,3.246,3.244,3.3494,3.4132,3.4406,3.4411,3.464,3.5005,3.5,3.5219,3.5588,3.5628,3.5831,3.6231,3.5831,3.6067,3.684,3.6963,3.6963,3.698,3.7297,3.7449,3.7466,3.7736,3.791,3.791,3.791,3.7572,3.6997,3.6518,3.6079,3.5701,3.6062,3.6299,3.6366,3.6721,3.7198,3.7701,3.7729,3.798,3.8481,3.8718,3.8831,3.8842,3.9105,3.9294,3.9391,3.9835,3.9905,3.9446,4.0279,4.0739,4.0465,4.0855,4.093,4.0814,4.1555,4.2014,4.1692,4.1882,4.2016,4.1972,4.1783,4.1916,4.26,4.2152,4.2031,4.2539,4.207,4.1555,4.1134,4.069,3.9855,3.8517,3.7639,3.6855,3.6401,3.6094,3.5833,3.5678,3.5628,3.5628,3.5583,3.5391,3.5154,3.5087,3.4917,3.4512,3.4218,3.3806,3.3484,3.3112,3.2621,3.2182,3.1928,3.1826,3.1775,3.1471,3.1171,3.0918,3.0102,2.9651,2.9191,2.6942,2.7699,2.8752,2.9435,2.9841,3.0498,3.0777,3.0762,3.0762,3.1032,3.1538,3.2064,3.2038,3.1821,3.2987,3.3595,3.3595,3.3595,3.3962,3.4585,3.4785,3.5286,3.5904,3.6152,3.6524,3.6924,3.6541,3.6828,3.7826,3.791,3.791,3.7927,3.8108,3.8198,3.8244,3.8379,3.8497,3.8514,3.8497,3.8413,3.8159,3.768,3.7026,3.6372,3.6789,3.7105,3.7105,3.763,3.8007,3.821,3.8193,3.8294,3.8481,3.8632,3.871,3.8734,3.9021,3.933,3.9582,4.0128,4.0215,3.9778,4.0703,4.1159,4.0806,4.0819,4.099,4.1181,4.1807,4.2134,4.2157,4.1962,4.1828,4.1803,4.1693,4.1768,4.209,4.1682,4.153,4.2,4.1457,4.0903,4.0776,4.0147,3.9316,3.8916,3.8168,3.7396,3.6893,3.6293,3.591,3.5645,3.5628,3.5628,3.5628,3.5577,3.5628,3.5628,3.5509,3.5391,3.5391,3.4759,3.4269,3.344,3.3362,3.2983,3.2276,3.2124,3.1989,3.1454,3.1197,3.1039,3.0335,2.9816,2.9214,2.6026,2.6794,2.8338,2.9466,3.0318,3.1043,3.1422,3.1364,3.1421,3.1466,3.1496,3.1553,3.1538,3.1607,3.2886,3.3556,3.3543,3.3527,3.3888,3.4566,3.5231,3.6022,3.6761,3.7466,3.7792,3.7826,3.7669,3.7741,3.7944,3.7961,3.791,3.7978,3.8633,3.8949,3.9034,3.9559,3.9977,3.9859,3.9829,3.9609,3.9051,3.8916,3.851,3.7889,3.7821,3.7872,3.7872,3.7905,3.8244,3.8949,3.8949,3.9254,3.9896,4.0398,4.0584,4.0654,4.0689,4.0512,4.0112,4.0113,4.0101,4.0064,4.0197,4.0383,4.0747,4.0804,4.1018,4.1643,4.1223,4.1066,4.1093,4.1409,4.1642,4.164,4.1246,4.1036,4.103,4.0684,4.0502,4.0932,4.0949,4.0815,4.0833,3.9804,3.9253,3.8949,3.8381,3.7665,3.7067,3.6784,3.6378,3.5814,3.5628,3.5628,3.5628,3.5628,3.5628,3.5628,3.556,3.5442,3.4912,3.4449,3.4117,3.3761,3.3406,3.2977,3.2395,3.1972,3.1674,3.1393,3.1386,3.1116,3.0651,2.9886,2.9293,2.6595,2.7317,2.7934,2.8854,3.0006,3.0532,3.0922,3.1243,3.1426,3.1496,3.1496,3.1496,3.1496,3.1539,3.202,3.2256,3.2287,3.2686,3.3246,3.3934,3.4621,3.5575,3.6701,3.7028,3.7706,3.8444,3.8142,3.813,3.8633,3.9056,3.9292,3.9322,3.9559,3.9711,3.9762,3.996,4.0113,4.0113,4.0113,3.996,3.9723,3.9694,3.9559,3.9305,3.8848,3.8616,3.8611,3.9051,3.9423,3.9711,3.9694,3.9812,4.0087,4.0291,4.0392,4.0392,4.038,4.0299,4.0133,4.0113,4.0113,4.0113,4.0113,4.0184,4.0348,4.041,4.0502,4.0614,4.0552,4.0396,4.0407,4.0597,4.0719,4.068,4.0533,4.054,4.0697,4.0436,4.0311,4.0714,4.0648,4.0392,4.0358,3.9979,3.9706,3.9643,3.9085,3.834,3.7635,3.7139,3.6586,3.5847,3.5628,3.5628,3.5628,3.5628,3.5628,3.5628,3.5594,3.556,3.5222,3.5131,3.4901,3.4782,3.4184,3.3721,3.3383,3.2841,3.2357,3.1962,3.1911,3.1665,3.1002,3.038,2.9704,2.693,2.756,2.7846,2.8615,2.9661,3.0211,3.0793,3.1402,3.1627,3.1857,3.2094,3.2153,3.2138,3.2138,3.2153,3.2153,3.2168,3.2437,3.2971,3.3877,3.48,3.5887,3.6977,3.7566,3.8321,3.9109,3.8589,3.8485,3.8937,3.9466,3.9829,4.0054,4.0113,4.0113,4.0113,4.0113,4.0113,4.0113,4.0113,4.0113,4.0113,4.0113,4.0113,4.0045,3.9622,3.9356,3.9356,3.9829,4.0113,4.0113,4.0113,4.0113,4.0113,4.0113,4.0113,4.0113,4.0096,4.0113,4.0113,4.0113,4.0113,4.0113,4.0113,4.0113,4.0113,4.0113,4.0113,4.0113,4.0113,4.0113,4.0113,4.0113,4.0113,4.0113,4.0113,4.0254,4.0565,4.0311,4.0286,4.0485,4.036,4.0146,4.0113,4.0096,4.0066,4.0113,3.9626,3.9085,3.8362,3.7855,3.7105,3.6219,3.6062,3.5881,3.5712,3.5628,3.5628,3.5628,3.5628,3.5628,3.5628,3.5628,3.5611,3.5566,3.5323,3.4867,3.437,3.3795,3.3288,3.2791,3.2655,3.2496,3.1765,3.0981,3.0329,2.6856,2.7437,2.8135,2.879,2.9451,3.0133,3.1093,3.1789,3.2006,3.2443,3.2986,3.3349,3.329,3.3395,3.326,3.3395,3.3335,3.2946,3.332,3.4455,3.5863,3.6874,3.7631,3.8794,3.9431,3.9707,3.9169,3.8839,3.8923,3.9013,3.9368,3.9965,4.0113,4.0113,4.0113,4.0113,4.0113,4.0113,4.0113,4.0113,4.0113,4.0113,4.0113,4.0113,4.0045,3.9999,4.0062,4.0096,4.0113,4.0113,4.0113,4.0113,4.0113,4.0113,4.0113,4.0113,4.0113,4.0113,4.0113,4.0113,4.0113,4.0113,4.0113,4.0113,4.0113,4.0113,4.0113,4.0113,4.0113,4.0113,4.0113,4.0113,4.0113,4.0113,4.0113,4.0133,4.0133,4.0121,4.0096,4.0159,4.0108,4.0113,4.0113,4.0113,4.0113,4.0096,4.0011,3.9677,3.9,3.87,3.8239,3.7173,3.6564,3.6293,3.5943,3.5628,3.5628,3.5628,3.5628,3.5628,3.5628,3.5628,3.5628,3.5566,3.534,3.4917,3.4681,3.4157,3.3914,3.3525,3.3457,3.3267,3.2596,3.1825,3.1029,2.7374,2.7851,2.8109,2.8553,2.9083,2.957,3.0175,3.0885,3.1674,3.2267,3.2616,3.3223,3.3499,3.3514,3.3499,3.3769,3.4128,3.3964,3.4103,3.4622,3.5507,3.632,3.6993,3.7487,3.7989,3.8402,3.8276,3.8414,3.8786,3.8884,3.9315,3.9952,4.0083,4.0113,4.0113,4.0113,4.0113,4.0113,4.0113,4.0113,4.0113,4.0113,4.0113,4.0113,4.0113,4.0113,4.0113,4.0113,4.0113,4.0113,4.0113,4.0113,4.0113,4.0113,4.0113,4.0113,4.0113,4.0113,4.0113,4.0113,4.0113,4.0113,4.0113,4.0113,4.0113,4.0113,4.0113,4.0113,4.0113,4.0113,4.0113,4.0113,4.0113,4.0113,4.0113,4.0113,4.0113,4.0113,4.0113,4.0113,4.0113,4.0113,4.0113,4.0113,4.0113,4.0113,4.0096,3.9812,3.9237,3.9085,3.8425,3.7122,3.6897,3.6631,3.6113,3.5729,3.5628,3.5628,3.5628,3.5628,3.5628,3.5628,3.5628,3.556,3.5306,3.5103,3.4856,3.467,3.4461,3.4286,3.4184,3.3843,3.3386,3.273,3.1953,2.7908,2.8367,2.8392,2.8737,2.9227,2.9475,2.9941,3.0614,3.1415,3.2154,3.2861,3.3412,3.3919,3.4185,3.4233,3.4473,3.4846,3.4877,3.4877,3.4971,3.5574,3.6181,3.663,3.6919,3.707,3.7278,3.7353,3.7587,3.8015,3.8086,3.8591,3.9476,3.9649,3.9821,4.0058,4.0113,4.0113,4.0113,4.0113,4.0113,4.0113,4.0113,4.0113,4.0113,4.0113,4.0113,4.0113,4.0113,4.0113,4.0113,4.0113,4.0113,4.0113,4.0113,4.0113,4.0113,4.0113,4.0113,4.0113,4.0113,4.0113,4.0113,4.0113,4.0113,4.0113,4.0113,4.0113,4.0113,4.0113,4.0113,4.0113,4.0113,4.0113,4.0113,4.0113,4.0113,4.0113,4.0113,4.0113,4.0113,4.0113,4.0113,4.0113,4.0113,4.0113,4.0113,4.0096,4.0015,3.9542,3.944,3.8594,3.7867,3.7511,3.7009,3.6248,3.5881,3.5645,3.5628,3.5628,3.5628,3.5628,3.5628,3.5628,3.5628,3.5459,3.5442,3.5228,3.5312,3.5194,3.5053,3.4844,3.4715,3.4386,3.3719,3.2924,2.8473,2.8932,2.8957,2.9245,2.9716,2.9768,3.0202,3.0968,3.1212,3.2113,3.3385,3.3639,3.4345,3.5139,3.5039,3.5148,3.5473,3.5415,3.5385,3.5578,3.6039,3.6384,3.6492,3.6995,3.698,3.66,3.6554,3.6615,3.6873,3.7024,3.7439,3.8881,3.9153,3.9355,3.9965,4.0113,4.0113,4.0113,4.0113,4.0113,4.0113,4.0113,4.0113,4.0113,4.0113,4.0113,4.0113,4.0113,4.0113,4.0113,4.0113,4.0113,4.0113,4.0113,4.0113,4.0113,4.0113,4.0113,4.0113,4.0113,4.0113,4.0113,4.0113,4.0113,4.0113,4.0113,4.0113,4.0113,4.0113,4.0113,4.0113,4.0113,4.0113,4.0113,4.0113,4.0113,4.0113,4.0113,4.0113,4.0113,4.0113,4.0113,4.0113,4.0113,4.0113,4.0113,4.0113,4.0045,4.0028,3.9812,3.9643,3.9017,3.8193,3.7652,3.6958,3.6659,3.6405,3.6062,3.5966,3.5847,3.5678,3.5628,3.5628,3.5628,3.5628,3.5628,3.56,3.56,3.56,3.5425,3.5408,3.5577,3.5193,3.4442,3.3534,2.9032,2.9553,2.9566,2.9654,2.9779,2.9779,2.9934,3.026,3.0927,3.1462,3.2069,3.2682,3.3501,3.4361,3.4445,3.4789,3.5344,3.5489,3.5489,3.5521,3.5668,3.5782,3.5798,3.6006,3.6053,3.5831,3.5879,3.6054,3.663,3.7055,3.7862,3.8881,3.9289,3.9756,4.0083,4.0033,4.0113,4.0113,4.0113,4.0113,4.0113,4.0113,4.0113,4.0113,4.0113,4.0113,4.0113,4.0113,4.0113,4.0113,4.0113,4.0113,4.0113,4.0113,4.0113,4.0113,4.0113,4.0113,4.0113,4.0113,4.0113,4.0113,4.0113,4.0113,4.0113,4.0113,4.0113,4.0113,4.0113,4.0113,4.0113,4.0113,4.0113,4.0113,4.0113,4.0113,4.0113,4.0113,4.0113,4.0113,4.0113,4.0113,4.0113,4.0113,4.0113,4.0113,4.0113,4.0113,4.0113,4.0079,3.9859,3.9322,3.8667,3.8261,3.7855,3.7538,3.7166,3.6699,3.6445,3.6219,3.5932,3.5628,3.5628,3.5628,3.5628,3.5628,3.5628,3.56,3.5628,3.5628,3.5628,3.56,3.5424,3.485,3.3871,2.949,2.9779,2.9779,2.9779,2.9779,2.9779,2.9779,2.9895,3.0343,3.0871,3.1254,3.1742,3.2753,3.391,3.4013,3.456,3.5408,3.5489,3.5489,3.5489,3.5506,3.5522,3.5521,3.5489,3.5489,3.5489,3.5489,3.5718,3.6117,3.6615,3.7219,3.7803,3.8398,3.8772,3.9076,3.948,3.9597,3.9649,3.9889,4.0113,4.0113,4.0113,4.0113,4.0113,4.0113,4.0113,4.0113,4.0113,4.0113,4.0113,4.0113,4.0113,4.0113,4.0113,4.0113,4.0113,4.0113,4.0113,4.0113,4.0113,4.0113,4.0113,4.0113,4.0113,4.0113,4.0113,4.0113,4.0113,4.0113,4.0113,4.0113,4.0113,4.0113,4.0113,4.0113,4.0113,4.0113,4.0113,4.0113,4.0113,4.0113,4.0113,4.0113,4.0113,4.0113,4.0113,4.0113,4.0113,4.0096,4.0079,4.0011,3.9559,3.914,3.8734,3.8413,3.8125,3.7843,3.7376,3.7054,3.6806,3.6236,3.5814,3.5633,3.5633,3.5628,3.5628,3.5628,3.5628,3.5628,3.5628,3.5628,3.5577,3.5436,3.5063,3.4123,2.9779,2.9779,2.9779,2.9779,2.9779,2.9779,2.9779,2.9779,2.9856,3.0298,3.0871,3.1044,3.1942,3.3705,3.3587,3.4344,3.5279,3.5408,3.5489,3.5489,3.5489,3.5489,3.5489,3.5489,3.5489,3.5489,3.5489,3.5522,3.5701,3.5701,3.6039,3.6783,3.6934,3.7218,3.8019,3.8539,3.8802,3.9099,3.9555,3.994,4.0058,4.0113,4.0113,4.0113,4.0113,4.0113,4.0113,4.0113,4.0113,4.0113,4.0113,4.0113,4.0113,4.0113,4.0113,4.0113,4.0113,4.0113,4.0113,4.0113,4.0113,4.0113,4.0113,4.0113,4.0113,4.0113,4.0113,4.0113,4.0113,4.0113,4.0113,4.0113,4.0113,4.0113,4.0113,4.0113,4.0113,4.0113,4.0113,4.0113,4.0113,4.0113,4.0113,4.0113,4.0113,4.0113,4.0113,4.0113,4.0113,4.0096,4.0096,3.9994,3.9576,3.9203,3.8916,3.8662,3.8379,3.8058,3.7736,3.7369,3.6659,3.6203,3.5853,3.5684,3.5633,3.5628,3.5628,3.5628,3.5611,3.5628,3.5628,3.5628,3.5543,3.5016,3.4238,2.9779,2.9779,2.9779,2.9779,2.9779,2.9779,2.9779,2.9779,2.9779,2.994,3.0081,3.012,3.0827,3.1906,3.2642,3.3429,3.4377,3.5019,3.5489,3.5489,3.5489,3.5489,3.5489,3.5489,3.5489,3.5489,3.5489,3.5489,3.5587,3.5975,3.6399,3.6569,3.6995,3.7589,3.7704,3.7863,3.836,3.8813,3.9086,3.9476,3.9969,4.002,4.0045,4.0083,4.0113,4.0113,4.0113,4.0113,4.0113,4.0113,4.0113,4.0113,4.0113,4.0113,4.0113,4.0113,4.0113,4.0113,4.0113,4.0113,4.0113,4.0113,4.0113,4.0113,4.0113,4.0113,4.0113,4.0113,4.0113,4.0113,4.0113,4.0113,4.0113,4.0113,4.0113,4.0113,4.0113,4.0113,4.0113,4.0113,4.0113,4.0113,4.0113,4.0113,4.0113,4.0113,4.0113,4.0113,4.0113,4.0113,4.0113,4.0113,3.9943,3.9592,3.9441,3.913,3.8761,3.8526,3.8265,3.7874,3.7167,3.6924,3.6676,3.6169,3.5628,3.5678,3.5932,3.5616,3.5604,3.5616,3.5554,3.5413,3.5196,3.4788,3.426,2.9779,2.9779,2.9779,2.9779,2.9779,2.9779,2.9779,2.9779,2.9779,2.9779,2.9779,2.9779,3.0336,3.1185,3.1756,3.2451,3.338,3.4344,3.5052,3.5375,3.5489,3.5489,3.5489,3.5489,3.5489,3.5489,3.5489,3.5489,3.562,3.5878,3.6007,3.6086,3.6554,3.6554,3.6829,3.7086,3.7395,3.7788,3.823,3.8761,3.9411,3.9529,3.9795,4.002,4.0113,4.0113,4.0113,4.0113,4.0113,4.0113,4.0113,4.0113,4.0113,4.0113,4.0113,4.0113,4.0113,4.0113,4.0113,4.0113,4.0113,4.0113,4.0113,4.0113,4.0113,4.0113,4.0113,4.0113,4.0113,4.0113,4.0113,4.0113,4.0113,4.0113,4.0113,4.0113,4.0113,4.0113,4.0113,4.0113,4.0113,4.0113,4.0113,4.0113,4.0113,4.0113,4.0113,4.0113,4.0113,4.0113,4.0113,4.0113,4.0113,4.0003,3.991,3.9597,3.9107,3.8855,3.8633,3.8218,3.7639,3.7613,3.7664,3.706,3.6456,3.6372,3.6495,3.6099,3.5629,3.5508,3.5378,3.5143,3.4728,3.4181,3.3649,2.9643,2.9779,2.9779,2.9779,2.9779,2.9779,2.9779,2.9779,2.9779,2.9779,2.9779,2.9779,3.0235,3.0871,3.118,3.181,3.2873,3.3639,3.4576,3.5423,3.5489,3.5489,3.5489,3.5489,3.5489,3.5489,3.5489,3.5489,3.5489,3.5489,3.5636,3.5553,3.5538,3.587,3.5917,3.6238,3.6925,3.7373,3.8129,3.878,3.9446,3.9636,4.0113,4.0505,4.0405,4.0388,4.0337,4.0231,4.0113,4.0113,4.0113,4.0113,4.0113,4.0113,4.0113,4.0113,4.0113,4.0113,4.0113,4.0113,4.0113,4.0113,4.0113,4.0113,4.0113,4.0113,4.0113,4.0113,4.0113,4.0113,4.0113,4.0113,4.0113,4.0113,4.0113,4.0113,4.0113,4.0113,4.0113,4.0113,4.0113,4.0113,4.0113,4.0113,4.0113,4.0113,4.0113,4.0113,4.0113,4.007,4.0058,3.9901,3.9821,3.9332,3.9186,3.9089,3.872,3.8616,3.8534,3.8259,3.7852,3.7864,3.7821,3.786,3.7521,3.7265,3.6856,3.639,3.5959,3.5579,3.5307,3.5166,3.4483,3.3601,3.3137,2.8937,2.9779,2.9779,2.9779,2.9779,2.9779,2.9779,2.9779,2.9779,2.9779,2.9779,2.9779,2.9895,3.0222,3.0908,3.2087,3.321,3.3696,3.4402,3.5334,3.545,3.5407,3.5609,3.5519,3.5504,3.5489,3.5549,3.5579,3.5504,3.5489,3.5624,3.5534,3.5609,3.5833,3.6241,3.6527,3.712,3.7818,3.8638,3.9398,4.0103,4.0898,4.1298,4.1565,4.1186,4.1064,4.0878,4.0455,4.0113,4.0113,4.0113,4.0146,4.0214,4.0214,4.0214,4.0113,4.0113,4.0113,4.0113,4.0113,4.0113,4.0113,4.0113,4.0113,4.0113,4.0113,4.0113,4.0113,4.0113,4.0113,4.0113,4.0113,4.0113,4.0113,4.0113,4.0113,4.0113,4.0113,4.0113,4.0113,4.0113,4.0113,4.0113,4.0113,4.0113,4.0113,4.0113,4.0113,4.0113,4.0033,3.9969,3.9731,3.9447,3.8802,3.8191,3.8121,3.7946,3.793,3.7882,3.7882,3.7673,3.7814,3.7855,3.7875,3.7761,3.7452,3.7028,3.6564,3.6279,3.5901,3.5566,3.5186,3.4446,3.3662,3.3014,2.8747,2.976,2.9779,2.9779,2.9779,2.9779,2.9779,2.9779,2.9779,2.9779,2.9779,2.9779,2.9779,2.9914,3.0203,3.1418,3.2591,3.2636,3.3758,3.5119,3.5106,3.5305,3.5798,3.5699,3.5519,3.5609,3.5804,3.5804,3.5579,3.5893,3.5998,3.6103,3.6297,3.6671,3.6881,3.7004,3.734,3.8101,3.8512,3.9093,3.9902,4.1001,4.1599,4.1607,4.1799,4.1783,4.1694,4.1521,4.1048,4.0844,4.1031,4.098,4.087,4.0903,4.0878,4.0303,4.0146,4.0113,4.0113,4.0113,4.0113,4.0113,4.0113,4.0113,4.0113,4.0113,4.0113,4.0113,4.0113,4.0113,4.0113,4.007,4.0113,4.0113,4.0058,4.0033,4.0058,4.0058,3.9995,3.9956,3.9965,3.9995,4.0113,4.0113,4.0113,4.0113,4.0045,3.9995,3.9927,3.9731,3.9493,3.9129,3.8745,3.8218,3.7529,3.7279,3.7189,3.7175,3.7175,3.7189,3.7294,3.7337,3.7631,3.7828,3.7681,3.727,3.692,3.636,3.6276,3.6066,3.5236,3.4557,3.4257,3.3749,3.3084,2.8096,2.915,2.9365,2.9443,2.9495,2.9721,2.9779,2.9779,2.9779,2.9779,2.9779,2.9779,2.9779,2.9836,3.0078,3.0766,3.1916,3.1691,3.3367,3.5193,3.4889,3.5086,3.5948,3.6058,3.5774,3.5908,3.6372,3.6327,3.6013,3.6372,3.6641,3.6746,3.7195,3.7492,3.7569,3.7614,3.7614,3.7813,3.8037,3.8464,3.9436,4.047,4.1205,4.1244,4.188,4.2148,4.1824,4.175,4.1364,4.1079,4.1182,4.1489,4.1332,4.1722,4.1566,4.0734,4.0422,4.0282,4.0113,4.0113,4.0113,4.0113,4.0113,4.0113,4.0113,4.0113,4.0113,4.0113,4.0113,4.0113,4.007,3.9944,3.9821,3.9744,3.9653,3.9588,3.9467,3.9388,3.9305,3.9385,3.9623,3.9662,3.9584,3.961,3.9503,3.9119,3.9065,3.9106,3.9022,3.8857,3.8624,3.8272,3.7903,3.7513,3.701,3.6554,3.6446,3.6399,3.6399,3.6399,3.6585,3.6768,3.7002,3.7143,3.7042,3.664,3.6365,3.6295,3.6329,3.5876,3.468,3.427,3.4562,3.394,3.3034,2.586,2.6996,2.7927,2.8307,2.8537,2.9404,2.9779,2.9779,2.9779,2.9779,2.9779,2.9779,2.9779,2.9867,3.0256,3.1021,3.1791,3.2277,3.3515,3.55,3.5039,3.5281,3.6421,3.6462,3.6327,3.6447,3.7,3.6896,3.6716,3.706,3.7285,3.736,3.7509,3.7689,3.8257,3.8287,3.8569,3.913,3.981,4.0516,4.1179,4.155,4.1693,4.1799,4.1981,4.1939,4.1469,4.1409,4.1023,4.0307,4.0188,4.0471,4.0883,4.1088,4.1574,4.1638,4.1441,4.0798,4.0375,4.0367,4.0367,4.0417,4.0333,4.0163,4.0333,4.0354,4.0337,4.0113,4.0096,3.9918,3.9751,3.9385,3.9139,3.8867,3.8679,3.8402,3.8276,3.8723,3.864,3.8541,3.8709,3.8759,3.8759,3.8813,3.8813,3.8402,3.8108,3.8177,3.8163,3.8048,3.763,3.7248,3.7054,3.6723,3.6538,3.6054,3.5943,3.5799,3.5799,3.5799,3.599,3.6164,3.591,3.5993,3.6022,3.6243,3.6199,3.6244,3.6382,3.5968,3.5109,3.511,3.5393,3.4416,3.3195,2.5807,2.7441,2.7904,2.8486,2.9086,2.9605,2.9779,2.9779,2.9779,2.9779,2.9779,2.9779,2.9779,2.9867,3.008,3.07,3.1489,3.1709,3.3309,3.5198,3.5023,3.536,3.6951,3.6913,3.6596,3.7135,3.7584,3.7883,3.7719,3.7764,3.7958,3.8018,3.8332,3.8691,3.8886,3.896,3.9107,3.9394,3.9743,4.0115,4.0535,4.0962,4.1247,4.1281,4.1773,4.1755,4.1564,4.153,4.1202,4.0671,4.0751,4.0955,4.1103,4.1291,4.1649,4.1339,4.1214,4.112,4.1334,4.13,4.1212,4.1301,4.1305,4.142,4.1352,4.1229,4.0813,4.0147,4.0101,3.9787,3.9089,3.85,3.8358,3.8119,3.7867,3.7748,3.7648,3.7793,3.7966,3.7865,3.7749,3.7761,3.7817,3.7917,3.7991,3.7849,3.7662,3.7733,3.7617,3.7411,3.6859,3.6149,3.6038,3.5926,3.5862,3.5652,3.5702,3.562,3.562,3.5604,3.557,3.5554,3.5489,3.5489,3.5685,3.5863,3.6022,3.5992,3.5948,3.5839,3.5699,3.5552,3.537,3.4881,3.3743,2.5514,2.7276,2.7864,2.8597,2.9404,2.9663,2.9779,2.9779,2.9779,2.9779,2.9779,2.9779,2.9779,2.9905,3.0156,3.0793,3.1397,3.126,3.3048,3.4423,3.4993,3.5614,3.6931,3.7132,3.7287,3.7656,3.8315,3.8571,3.8616,3.8631,3.8646,3.8676,3.8987,3.9287,3.9361,3.9346,3.9376,3.9394,3.946,3.9517,3.9646,4.008,4.0309,4.0622,4.1113,4.1576,4.1411,4.1546,4.1245,4.0678,4.0754,4.0804,4.091,4.1198,4.1502,4.1356,4.1321,4.1512,4.1753,4.1836,4.1997,4.2055,4.2203,4.1987,4.1768,4.194,4.1519,4.0097,4.0009,3.9385,3.8593,3.8152,3.7833,3.7666,3.7362,3.7298,3.7252,3.7242,3.7075,3.6799,3.6692,3.6692,3.6783,3.6965,3.7086,3.716,3.722,3.7265,3.704,3.6738,3.6337,3.5669,3.5668,3.562,3.557,3.5489,3.5489,3.5489,3.5489,3.5489,3.5489,3.5489,3.5489,3.5489,3.5489,3.557,3.5766,3.562,3.5489,3.556,3.5566,3.5319,3.5046,3.4727,3.4249,2.392,2.5199,2.7235,2.8156,2.8367,2.9365,2.9779,2.9779,2.9779,2.9779,2.9779,2.9792,2.9792,3.0018,3.0645,3.1168,3.1461,3.2462,3.3614,3.4524,3.5135,3.5779,3.6916,3.7697,3.8112,3.8422,3.8886,3.9167,3.9272,3.9152,3.9242,3.9361,3.9346,3.9376,3.9406,3.9406,3.9406,3.9406,3.9406,3.9406,3.9406,3.9553,3.9592,3.9755,4.0255,4.0447,3.9735,4.0378,4.0521,3.972,3.9877,4.0187,4.0486,4.0665,4.092,4.119,4.129,4.1422,4.1531,4.1539,4.1251,4.1361,4.1699,4.2011,4.1578,4.1245,4.0674,4.0036,3.9898,3.9634,3.9058,3.8575,3.7732,3.7451,3.7154,3.681,3.6701,3.645,3.6244,3.5807,3.5901,3.6322,3.6249,3.6533,3.6367,3.643,3.6337,3.6368,3.6211,3.5958,3.5831,3.5538,3.5538,3.5522,3.5522,3.5489,3.5489,3.5489,3.5489,3.5489,3.5489,3.5489,3.5489,3.5489,3.5489,3.5489,3.5489,3.5489,3.5489,3.5489,3.5429,3.531,3.519,3.4997,3.4458,2.4403,2.4988,2.7174,2.8104,2.8184,2.9326,2.9779,2.9779,2.9779,2.9779,2.9779,2.9804,2.9993,3.0357,3.0633,3.1311,3.1851,3.2265,3.3429,3.4166,3.4681,3.5598,3.6703,3.7466,3.7888,3.8767,3.9265,3.9406,3.9376,3.9406,3.9406,3.9406,3.9406,3.9406,3.9406,3.9406,3.9406,3.9406,3.9406,3.9406,3.9406,3.9406,3.9406,3.9463,3.9592,3.9773,3.9535,3.9702,3.9631,3.9484,3.9406,3.9663,3.99,3.9955,4.0168,4.0499,4.0567,4.0567,4.0808,4.1086,4.1603,4.1648,4.1924,4.1934,4.147,4.1552,4.0878,4.0277,3.9736,3.9545,3.8302,3.7839,3.7455,3.7328,3.7061,3.6663,3.6475,3.6385,3.6417,3.6409,3.6512,3.676,3.6518,3.6263,3.5963,3.5708,3.5567,3.5489,3.5489,3.5489,3.5489,3.5489,3.5489,3.5489,3.5489,3.5489,3.5489,3.5489,3.5489,3.5489,3.5489,3.5489,3.5489,3.5489,3.5489,3.5489,3.5489,3.5489,3.5489,3.5489,3.5489,3.5459,3.534,3.522,3.4787,2.4296,2.4521,2.6335,2.753,2.8215,2.9314,2.9892,2.9993,2.9854,2.9779,2.9804,2.9955,3.0244,3.0608,3.1039,3.1416,3.2081,3.2504,3.3212,3.3807,3.4373,3.5209,3.6217,3.6973,3.7397,3.8649,3.8962,3.8925,3.9406,3.9406,3.9406,3.9406,3.9406,3.9406,3.9406,3.9406,3.9406,3.9406,3.9406,3.9571,3.9645,3.972,3.9945,3.9945,3.9991,3.9823,3.9712,3.9697,3.9463,3.9424,3.9406,3.9406,3.9424,3.9406,3.9406,3.9421,3.9421,3.9421,3.9806,4.0619,4.1707,4.1869,4.1949,4.1869,4.169,4.1577,4.0789,3.9848,3.9554,3.9148,3.7926,3.7985,3.7871,3.7801,3.7408,3.7043,3.7073,3.7043,3.7103,3.7165,3.7193,3.7118,3.6998,3.6686,3.6193,3.5833,3.5534,3.5504,3.5489,3.5489,3.5489,3.5489,3.5489,3.5489,3.5489,3.5489,3.5489,3.5489,3.5489,3.5489,3.5489,3.5489,3.5489,3.5489,3.5489,3.5489,3.5489,3.5489,3.5489,3.5489,3.5489,3.5489,3.5474,3.534,3.525,2.3178,2.3278,2.4478,2.6149,2.7924,2.9275,3.0022,3.0336,3.0091,2.9942,3.003,3.0394,3.0658,3.0914,3.1604,3.2056,3.2353,3.2801,3.3189,3.3428,3.3941,3.4624,3.519,3.5839,3.6736,3.7596,3.8088,3.8583,3.9406,3.9406,3.9406,3.9451,3.9496,3.9496,3.9421,3.9421,3.9421,3.9436,3.9496,3.9915,4.0262,4.0382,4.0651,4.0786,4.0606,4.0382,4.0307,4.0008,3.984,3.981,3.9765,3.975,3.9735,3.9705,3.969,3.9645,3.9601,3.9541,3.9544,4.0322,4.0961,4.1494,4.1379,4.1295,4.0877,4.0641,4.0452,3.9539,3.9447,3.9418,3.9047,3.8796,3.8497,3.8272,3.7911,3.7776,3.7836,3.7851,3.7956,3.803,3.7686,3.7417,3.7402,3.7193,3.6626,3.6148,3.5667,3.5533,3.5639,3.5504,3.5504,3.5489,3.5489,3.5489,3.5489,3.5489,3.5489,3.5504,3.5489,3.5489,3.5489,3.5489,3.5489,3.5489,3.5489,3.5489,3.5489,3.5489,3.5489,3.5489,3.5489,3.5489,3.5489,3.5474,3.537,2.3101,2.32,2.4329,2.522,2.6149,2.7916,2.9133,2.9971,3.0526,3.0846,3.0884,3.1085,3.1373,3.1717,3.1968,3.2428,3.2801,3.2889,3.3102,3.3188,3.3586,3.4095,3.4615,3.5142,3.6108,3.7372,3.7862,3.8265,3.9406,3.9275,3.9361,3.9451,3.98,3.9798,3.9675,3.9735,4.0064,4.0154,4.0472,4.0879,4.1044,4.1089,4.1194,4.1448,4.1209,4.1074,4.104,4.0715,4.0595,4.0561,4.0546,4.0576,4.0591,4.0591,4.0636,4.0666,4.07,4.0487,4.0116,4.0121,3.9917,4.0301,4.0409,4.0322,3.9882,3.9862,3.9628,3.9502,3.9406,3.9406,3.9272,3.9212,3.9047,3.9047,3.8868,3.8838,3.8868,3.8853,3.8898,3.8928,3.8748,3.8315,3.8135,3.7941,3.7402,3.7,3.6595,3.6237,3.6222,3.5744,3.5519,3.5504,3.5489,3.5489,3.5519,3.5699,3.5699,3.5669,3.5594,3.5489,3.5489,3.5489,3.5489,3.5489,3.5489,3.5489,3.5489,3.5489,3.5489,3.5489,3.5489,3.5489,3.5489,3.5489,3.5459,2.3101,2.3178,2.3898,2.4405,2.4948,2.6719,2.8137,2.929,3.0844,3.1486,3.1235,3.1461,3.1825,3.2144,3.2453,3.2629,3.309,3.3102,3.3102,3.3102,3.3124,3.3535,3.3971,3.4444,3.522,3.6546,3.7265,3.7749,3.8447,3.8758,3.9075,3.9587,4.0282,4.0479,4.0412,4.0576,4.0741,4.0831,4.1104,4.1433,4.1628,4.1777,4.1882,4.2002,4.1927,4.1747,4.1673,4.1568,4.1433,4.1448,4.1448,4.1433,4.1433,4.1418,4.1418,4.1403,4.1358,4.1134,4.073,4.0509,4.0446,4.0401,3.975,3.9436,3.9406,3.9499,3.9496,3.9424,3.9466,3.9436,3.9451,3.9451,3.9436,3.9421,3.9406,3.9361,3.9361,3.9331,3.9331,3.9421,3.9346,3.9017,3.8826,3.8584,3.824,3.7911,3.7584,3.7225,3.6851,3.6357,3.5983,3.5998,3.6073,3.6237,3.6193,3.6088,3.6043,3.5878,3.5744,3.5609,3.5489,3.5489,3.5489,3.5489,3.5489,3.5489,3.5489,3.5489,3.5489,3.5489,3.5489,3.5489,3.5489,3.5489,3.5489,2.3101,2.3101,2.3101,2.3648,2.4563,2.6075,2.7341,2.8486,3.1096,3.1679,3.0871,3.1938,3.2303,3.2378,3.2839,3.3052,3.3077,3.3102,3.3102,3.3102,3.3102,3.3287,3.3458,3.3862,3.4725,3.5218,3.5955,3.7016,3.7241,3.7909,3.8662,3.9412,4.0213,4.0625,4.0861,4.1124,4.1284,4.1462,4.1718,4.2062,4.2312,4.2406,4.2611,4.2716,4.2641,4.2466,4.2286,4.2047,4.1792,4.1673,4.1613,4.1553,4.1508,4.1478,4.1478,4.1508,4.1598,4.1478,4.1418,4.1268,4.1149,4.0909,4.0217,3.972,3.9645,3.9825,3.99,3.987,3.99,3.9675,3.9541,3.9526,3.9526,3.9511,3.9526,3.9511,3.9541,3.9526,3.9541,3.9526,3.9436,3.9272,3.9227,3.9062,3.8808,3.8733,3.8404,3.815,3.7749,3.7225,3.6909,3.6894,3.6998,3.7163,3.7045,3.6701,3.6596,3.6507,3.5983,3.5789,3.5654,3.5549,3.5489,3.5489,3.5489,3.5489,3.5489,3.5489,3.5489,3.5489,3.5489,3.5489,3.5489,3.5489,3.5489,2.3101,2.3101,2.3101,2.3435,2.4286,2.6487,2.8336,2.9943,3.1965,3.2591,3.239,3.2679,3.2788,3.2876,3.3027,3.309,3.3102,3.3102,3.3102,3.3115,3.3165,3.3357,3.3608,3.3947,3.4704,3.5492,3.6181,3.6673,3.7453,3.7861,3.7964,3.8496,3.9541,4.0152,4.0778,4.129,4.1656,4.2024,4.2304,4.2686,4.2891,4.297,4.316,4.313,4.3115,4.297,4.2831,4.2771,4.2607,4.2666,4.2711,4.2726,4.2741,4.2756,4.2756,4.2696,4.2447,4.2092,4.2017,4.1673,4.1493,4.1568,4.104,4.095,4.0831,4.0756,4.0711,4.0561,4.0516,4.0397,4.0187,4.0098,3.9978,3.9873,3.9948,4.0098,4.0113,4.0113,4.0094,4.0019,3.9933,3.9601,3.9556,3.9361,3.9152,3.9257,3.9197,3.8913,3.8599,3.8045,3.7791,3.7761,3.7731,3.7836,3.7567,3.7208,3.7195,3.706,3.6567,3.6178,3.6148,3.5998,3.5654,3.5489,3.5489,3.5489,3.5489,3.5489,3.5489,3.5489,3.5489,3.5489,3.5489,3.5489,3.5489,2.3101,2.3101,2.3101,2.3367,2.4264,2.6985,2.8906,3.005,3.1872,3.2742,3.2788,3.2964,3.3102,3.3077,3.309,3.3102,3.3102,3.3102,3.3102,3.314,3.3303,3.3571,3.3872,3.4321,3.4885,3.5662,3.613,3.6478,3.7147,3.7801,3.8017,3.8149,3.8814,3.9562,4.035,4.1105,4.1718,4.2195,4.2713,4.3185,4.3305,4.3305,4.3305,4.3305,4.3305,4.3305,4.3305,4.3305,4.3305,4.3305,4.3305,4.329,4.326,4.326,4.326,4.314,4.2965,4.2761,4.2686,4.2462,4.2222,4.2132,4.2102,4.2147,4.1863,4.1639,4.1433,4.1224,4.1254,4.1224,4.0984,4.076,4.0516,4.0292,4.0531,4.0789,4.0804,4.0804,4.0741,4.0666,4.0397,3.9989,3.975,3.9571,3.9406,3.9376,3.9361,3.9272,3.9077,3.8793,3.8599,3.8554,3.8464,3.8404,3.809,3.7866,3.7838,3.7674,3.7195,3.6881,3.6746,3.6387,3.5983,3.5699,3.5489,3.5489,3.5489,3.5489,3.5489,3.5489,3.5489,3.5489,3.5489,3.5489,3.5489,2.3101,2.3101,2.314,2.3415,2.4227,2.7112,2.8589,2.9069,3.1113,3.2147,3.2386,3.2855,3.3102,3.3102,3.3102,3.3102,3.3102,3.3102,3.3102,3.314,3.3571,3.3884,3.4301,3.4926,3.5277,3.5397,3.5693,3.6353,3.6243,3.6877,3.7672,3.8039,3.8716,3.9259,3.9639,4.0327,4.0859,4.1376,4.2079,4.2644,4.317,4.3305,4.3305,4.3305,4.3305,4.3305,4.3305,4.3305,4.3305,4.3305,4.3305,4.3305,4.3305,4.3305,4.3305,4.329,4.3205,4.319,4.3145,4.3025,4.31,4.313,4.3275,4.3085,4.2666,4.2342,4.2073,4.1998,4.2043,4.1852,4.1613,4.1463,4.1268,4.1119,4.1209,4.1388,4.1478,4.1433,4.1328,4.1194,4.0846,4.0502,4.0442,4.0292,4.0004,3.972,3.9586,3.9601,3.9406,3.9272,3.9242,3.9182,3.9002,3.8868,3.8868,3.8658,3.8527,3.8257,3.7823,3.7584,3.7464,3.6926,3.6267,3.5998,3.5729,3.5549,3.5489,3.5489,3.5489,3.5489,3.5489,3.5489,3.5489,3.5489,3.5489,2.3101,2.313,2.3496,2.3711,2.405,2.5896,2.7598,2.8891,3.0211,3.162,3.2723,3.3014,3.3102,3.3102,3.3102,3.3102,3.3102,3.3102,3.3102,3.3266,3.3646,3.4123,3.4515,3.513,3.5581,3.6017,3.6243,3.6306,3.631,3.668,3.6849,3.6873,3.7474,3.7861,3.8536,3.912,3.9596,4.0282,4.0866,4.1864,4.282,4.319,4.3305,4.3285,4.325,4.3305,4.3305,4.3305,4.3305,4.3305,4.3305,4.3305,4.3305,4.3305,4.3305,4.3305,4.3305,4.3305,4.3305,4.3305,4.3305,4.3305,4.3305,4.3305,4.317,4.2965,4.2816,4.2801,4.2681,4.2447,4.2271,4.2152,4.2066,4.1942,4.1867,4.2017,4.2152,4.2047,4.1927,4.1658,4.1343,4.1194,4.1134,4.0924,4.0651,4.0427,4.0262,4.0098,3.9735,3.9541,3.9556,3.9496,3.9346,3.9272,3.9316,3.9257,3.9002,3.8856,3.8497,3.8302,3.8138,3.7464,3.6776,3.6297,3.5983,3.5759,3.5579,3.5489,3.5489,3.5489,3.5489,3.5489,3.5489,3.5489,3.5489,2.3101,2.3149,2.3603,2.3811,2.4122,2.5684,2.7042,2.8174,2.9929,3.1312,3.2302,3.2797,3.3102,3.3102,3.3102,3.3102,3.3102,3.3102,3.3102,3.3266,3.3671,3.4186,3.4738,3.528,3.5793,3.6243,3.6356,3.6405,3.6417,3.6441,3.6476,3.6417,3.6452,3.6709,3.7448,3.7815,3.8356,3.9094,3.9505,4.0546,4.1906,4.2187,4.2487,4.2583,4.2955,4.3076,4.3305,4.325,4.2941,4.2705,4.2467,4.2955,4.311,4.3305,4.3305,4.3305,4.3305,4.3305,4.323,4.317,4.315,4.3095,4.323,4.321,4.3305,4.3095,4.3095,4.31,4.31,4.2876,4.2846,4.2776,4.2731,4.2656,4.2671,4.2746,4.2791,4.2746,4.2686,4.2581,4.2207,4.1852,4.1703,4.1358,4.1119,4.0995,4.0846,4.0819,4.0397,4.0008,3.9978,3.9885,3.978,3.9526,3.9376,3.9376,3.9316,3.9167,3.9017,3.8736,3.8392,3.7856,3.7302,3.6793,3.6314,3.5925,3.5744,3.5654,3.5519,3.5489,3.5489,3.5489,3.5489,3.5489,3.5489,2.314,2.3259,2.3701,2.3916,2.4212,2.5831,2.6789,2.7459,2.976,3.1043,3.1488,3.259,3.3025,3.3102,3.3102,3.3102,3.3102,3.3102,3.3102,3.3291,3.3784,3.4264,3.4803,3.5355,3.5931,3.6256,3.6392,3.6417,3.6417,3.6417,3.6417,3.6417,3.6417,3.6441,3.6722,3.7196,3.7906,3.8088,3.8496,3.9144,3.995,4.0703,4.119,4.1761,4.2249,4.28,4.284,4.2664,4.2187,4.185,4.1399,4.1767,4.2146,4.2345,4.2441,4.2386,4.2325,4.2386,4.2522,4.24,4.2522,4.2664,4.288,4.291,4.2879,4.2859,4.2859,4.292,4.292,4.3225,4.3195,4.315,4.3121,4.2797,4.2826,4.2741,4.2721,4.2721,4.2726,4.2717,4.2525,4.2129,4.1779,4.1448,4.155,4.1464,4.1436,4.1429,4.1298,4.0924,4.0696,4.0531,4.0367,4.0053,3.9556,3.9451,3.9466,3.9361,3.9182,3.896,3.8661,3.8215,3.7736,3.7197,3.6733,3.6387,3.6043,3.5878,3.5729,3.5624,3.5489,3.5489,3.5489,3.5489,3.5489,2.3318,2.3711,2.4098,2.4515,2.4908,2.533,2.6195,2.7585,2.903,3.0248,3.1267,3.2426,3.3102,3.3102,3.3102,3.3102,3.3102,3.3102,3.3102,3.3215,3.3847,3.4364,3.4941,3.5617,3.6155,3.6367,3.6417,3.6417,3.6417,3.6417,3.6417,3.6417,3.6417,3.6417,3.6441,3.6826,3.6943,3.7116,3.7093,3.7497,3.7929,3.8805,3.9994,4.0339,4.0418,4.0546,4.0546,4.0546,4.0418,4.031,4.0351,4.0587,4.0943,4.1199,4.1213,4.1412,4.132,4.127,4.1376,4.1376,4.1447,4.132,4.1355,4.1213,4.1185,4.1135,4.1234,4.1468,4.1769,4.2762,4.2914,4.286,4.2776,4.1856,4.1483,4.1091,4.088,4.0901,4.0887,4.1182,4.141,4.103,4.0653,4.0867,4.1669,4.1602,4.1686,4.1655,4.1494,4.1415,4.1448,4.1224,4.1014,4.0277,3.966,3.9586,3.9556,3.9481,3.9376,3.9182,3.896,3.8631,3.817,3.7691,3.733,3.7015,3.6656,3.6297,3.6088,3.5968,3.5624,3.5489,3.5519,3.5489,3.5489]},{"header":{"parameterUnit":"m.s-1","parameterCategory":1,"la1":31.0,"la2":29.5877,"lo1":-88.7671,"lo2":-86.6584,"dy":0.0162,"dx":0.0185,"nx":115,"ny":88,"refTime":"2023-05-31T06:00:00:Z","depth":0,"parameterNumber":3,"parameterNumberName":"V-component_of_WINDS"},"data":[0.0,0.0,0.0,0.0,0.0,0.0,0.0,0.0,0.0,0.0,0.0,0.0,0.0,0.0,0.0,0.0,0.0,0.0,0.0,0.0,0.0,0.0,0.0,0.0,0.0,0.0,0.0,0.0,0.0,0.0,0.0,0.0,0.0,0.0,0.0,0.0,0.0,0.0,0.0,0.0,0.0,0.0,0.0,0.0,0.0,0.0,0.0,0.0,0.0,0.0,0.0,0.0,0.0,0.0,0.0,0.0,0.0,0.0,0.0,0.0,0.0,0.0,0.0,0.0,0.0,0.0,0.0,0.0,0.0,0.0,0.0,0.0,0.0,0.0,0.0,0.0,0.0,0.0,0.0,0.0,0.0,0.0,0.0,0.0,0.0,0.0,0.0,0.0,0.0,0.0,0.0,0.0,0.0,0.0,0.0,0.0,0.0,0.0,0.0,0.0,0.0,0.0,0.0,0.0,0.0,0.0,0.0,0.0,0.0,0.0,0.0,0.0,0.0,0.0,0.0,0.0,0.0,0.0,0.0,0.0,0.0,0.0,0.0,0.0,0.0,0.0,0.0,0.0,0.0,0.0,0.0,0.0,0.0,0.0,0.0,0.0,0.0,0.0,0.0,0.0,0.0,0.0,0.0,0.0,0.0,0.0,0.0,0.0,0.0,0.0,0.0,0.0,0.0,0.0,0.0,0.0,0.0,0.0,0.0,0.0,0.0,0.0,0.0,0.0,0.0,0.0,0.0,0.0,0.0,0.0,0.0,0.0,0.0,0.0,0.0,0.0,0.0,0.0,0.0,0.0,0.0,0.0,0.0,0.0,0.0,0.0,0.0,0.0,0.0,0.0,0.0,0.0,0.0,0.0,0.0,0.0,0.0,0.0,0.0,0.0,0.0,0.0,0.0,0.0,0.0,0.0,0.0,0.0,0.0,0.0,0.0,0.0,0.0,0.0,0.0,0.0,0.0,0.0,0.0,0.0,0.0,0.0,0.0,0.0,0.0,0.0,0.0,0.0,0.0,0.0,0.0,0.0,0.0,0.0,0.0,0.0,0.0,0.0,0.0,0.0,0.0,0.0,0.0,0.0,0.0,0.0,0.0,0.0,0.0,0.0,0.0,0.0,0.0,0.0,0.0,0.0,0.0,0.0,0.0,0.0,0.0,0.0,0.0,0.0,0.0,0.0,0.0,0.0,0.0,0.0,0.0,0.0,0.0,0.0,0.0,0.0,0.0,0.0,0.0,0.0,0.0,0.0,0.0,0.0,0.0,0.0,0.0,0.0,0.0,0.0,0.0,0.0,0.0,0.0,0.0,0.0,0.0,0.0,0.0,0.0,0.0,0.0,0.0,0.0,0.0,0.0,0.0,0.0,0.0,0.0,0.0,0.0,0.0,0.0,0.0,0.0,0.0,0.0,0.0,0.0,0.0,0.0,0.0,0.0,0.0,0.0,0.0,0.0,0.0,0.0,0.0,0.0,0.0,0.0,0.0,0.0,0.0,0.0,0.0,0.0,0.0,0.0,0.0,0.0,0.0,0.0,0.0,0.0,0.0,0.0,0.0,0.0,0.0,0.0,0.0,0.0,0.0,0.0,0.0,0.0,0.0,0.0,0.0,0.0,0.0,0.0,0.0,0.0,0.0,0.0,0.0,0.0,0.0,0.0,0.0,0.0,0.0,0.0,0.0,0.0,0.0,0.0,0.0,0.0,0.0,0.0,0.0,0.0,0.0,0.0,0.0,0.0,0.0,0.0,0.0,0.0,0.0,0.0,0.0,0.0,0.0,0.0,0.0,0.0,0.0,0.0,0.0,0.0,0.0,0.0,0.0,0.0,0.0,0.0,0.0,0.0,0.0,0.0,0.0,0.0,0.0,0.0,0.0,0.0,0.0,0.0,0.0,0.0,0.0,0.0,0.0,0.0,0.0,0.0,0.0,0.0,0.0,0.0,0.0,0.0,0.0,0.0,0.0,0.0,0.0,0.0,0.0,0.0,0.0,0.0,0.0,0.0,0.0,0.0,0.0,0.0,0.0,0.0,0.0,0.0,0.0,0.0,0.0,0.0,0.0,0.0,0.0,0.0,0.0,0.0,0.0,0.0,0.0,0.0,0.0,0.0,0.0,0.0,0.0,0.0,0.0,0.0,0.0,0.0,0.0,0.0,0.0,0.0,0.0,0.0,0.0,0.0,0.0,0.0,0.0,0.0,0.0,0.0,0.0,0.0,0.0,0.0,0.0,0.0,0.0,0.0,0.0,0.0,0.0,0.0,0.0,0.0,0.0,0.0,0.0,0.0,0.0,0.0,0.0,0.0,0.0,0.0,0.0,0.0,0.0,0.0,0.0,0.0,0.0,0.0,0.0,0.0,0.0,0.0,0.0,0.0,0.0,0.0,0.0,0.0,0.0,0.0,0.0,0.0,0.0,0.0,0.0,0.0,0.0,0.0,0.0,0.0,0.0,0.0,0.0,0.0,0.0,0.0,0.0,0.0,0.0,0.0,0.0,0.0,0.0,0.0,0.0,0.0,0.0,0.0,0.0,0.0,0.0,0.0,0.0,0.0,0.0,0.0,0.0,0.0,0.0,0.0,0.0,0.0,0.0,0.0,0.0,0.0,0.0,0.0,0.0,0.0,0.0,0.0,0.0,0.0,0.0,0.0,0.0,0.0,0.0,0.0,0.0,0.0,0.0,0.0,0.0,0.0,0.0,0.0,0.0,0.0,0.0,0.0,0.0,0.0,0.0,0.0,0.0,0.0,0.0,0.0,0.0,0.0,0.0,0.0,0.0,0.0,0.0,0.0,0.0,0.0,0.0,0.0,0.0,0.0,0.0,0.0,0.0,0.0,0.0,0.0,0.0,0.0,0.0,0.0,0.0,0.0,0.0,0.0,0.0,0.0,0.0,0.0,0.0,0.0,0.0,0.0,0.0,0.0,0.0,0.0,0.0,0.0,0.0,0.0,0.0,0.0,0.0,0.0,0.0,0.0,0.0,0.0,0.0,0.0,0.0,0.0,0.0,0.0,0.0,0.0,0.0,0.0,0.0,0.0,0.0,0.0,0.0,0.0,0.0,0.0,0.0,0.0,0.0,0.0,0.0,0.0,0.0,0.0,0.0,0.0,0.0,0.0,0.0,0.0,0.0,0.0,0.0,0.0,0.0,0.0,0.0,0.0,0.0,0.0,0.0,0.0,0.0,0.0,0.0,0.0,0.0,0.0,0.0,0.0,0.0,0.0,0.0,0.0,0.0,0.0,0.0,0.0,0.0,0.0,0.0,0.0,0.0,0.0,0.0,0.0,0.0,0.0,0.0,0.0,0.0,0.0,0.0,0.0,0.0,0.0,0.0,0.0,0.0,0.0,0.0,0.0,0.0,0.0,0.0,0.0,0.0,0.0,0.0,0.0,0.0,0.0,0.0,0.0,0.0,0.0,0.0,0.0,0.0,0.0,0.0,0.0,0.0,0.0,0.0,0.0,0.0,0.0,0.0,0.0,0.0,0.0,0.0,0.0,0.0,0.0,0.0,0.0,0.0,0.0,0.0,0.0,0.0,0.0,0.0,0.0,0.0,0.0,0.0,0.0,0.0,0.0,0.0,0.0,0.0,0.0,0.0,0.0,0.0,0.0,0.0,0.0,0.0,0.0,0.0,0.0,0.0,0.0,0.0,0.0,0.0,0.0,0.0,0.0,0.0,0.0,0.0,0.0,0.0,0.0,0.0,0.0,0.0,0.0,0.0,0.0,0.0,0.0,0.0,0.0,0.0,0.0,0.0,0.0,0.0,0.0,0.0,0.0,0.0,0.0,0.0,0.0,0.0,0.0,0.0,0.0,0.0,0.0,0.0,0.0,0.0,0.0,0.0,0.0,0.0,0.0,0.0,0.0,0.0,0.0,0.0,0.0,0.0,0.0,0.0,0.0,0.0,0.0,0.0,0.0,0.0,0.0,0.0,0.0,0.0,0.0,0.0,0.0,0.0,0.0,0.0,0.0,0.0,0.0,0.0,0.0,0.0,0.0,0.0,0.0,0.0,0.0,0.0,0.0,0.0,0.0,0.0,0.0,0.0,0.0,0.0,0.0,0.0,0.0,0.0,0.0,0.0,0.0,0.0,0.0,0.0,0.0,0.0,0.0,0.0,0.0,0.0,0.0,0.0,0.0,0.0,0.0,0.0,0.0,0.0,0.0,0.0,0.0,0.0,0.0,0.0,0.0,0.0,0.0,0.0,0.0,0.0,0.0,0.0,0.0,0.0,0.0,0.0,0.0,0.0,0.0,0.0,0.0,0.0,0.0,0.8671,0.0,0.0,0.0,0.0,0.0,0.0,0.0,0.0,0.0,0.0,0.0,0.0,0.0,0.0,0.0,0.0,0.0,0.0,0.0,0.0,0.0,0.0,0.0,0.0,0.0,0.0,0.0,0.0,0.0,0.0,0.0,0.0,0.0,0.0,0.0,0.0,0.0,0.0,0.0,0.0,0.0,0.0,0.0,0.0,0.0,0.0,0.0,0.0,0.0,0.0,0.0,0.0,0.0,0.0,0.0,0.0,0.0,0.0,0.0,0.0,0.0,0.0,0.0,0.0,0.0,0.0,0.0,0.0,0.0,0.0,0.0,0.0,0.0,0.0,0.0,0.0,0.0,0.0,0.0,0.0,0.0,0.0,0.0,0.0,0.0,0.0,0.0,0.0,0.0,0.0,0.0,0.0,0.0,0.0,0.0,0.0,0.0,0.0,0.0,0.0,0.0,0.0,0.0,0.0,0.0,0.0,0.0,0.0,0.0,0.0,0.8388,0.8791,0.8791,0.8791,0.8791,0.0,0.0,0.0,0.0,0.0,0.0,0.0,0.0,0.0,0.0,0.0,0.0,0.0,0.0,0.0,0.0,0.0,0.0,0.0,0.0,0.0,0.0,0.0,0.0,0.0,0.0,0.0,0.0,0.0,0.0,0.0,0.0,0.0,0.0,0.0,0.0,0.0,0.0,0.0,0.0,0.0,0.0,0.0,0.0,0.0,0.0,0.0,0.0,0.0,0.0,0.0,0.0,0.0,0.0,0.0,0.0,0.0,0.0,0.0,0.0,0.0,0.0,0.0,0.0,0.0,0.0,0.0,0.0,0.0,0.0,0.0,0.0,0.0,0.0,0.0,0.0,0.0,0.0,0.0,0.0,0.0,0.0,0.0,0.0,0.0,0.0,0.0,0.0,0.0,0.0,0.0,0.0,0.0,0.0,0.0,0.0,0.0,0.0,0.0,0.0,0.0,0.0,0.0,0.0,0.0,0.0,0.0,0.0,0.0,0.0,0.0,0.0,0.8791,0.8791,0.8791,0.0,0.0,0.0,0.0,0.0,0.0,0.0,0.0,0.0,0.0,0.0,0.0,0.0,0.0,0.0,0.0,0.0,0.0,0.0,0.0,0.0,0.0,0.0,0.0,0.0,0.0,0.0,0.0,0.0,0.0,0.0,0.0,0.0,0.0,0.0,0.0,0.0,0.0,0.0,0.0,0.0,0.0,0.0,0.0,0.0,0.0,0.0,0.0,0.0,0.0,0.0,0.0,0.0,0.0,0.0,0.0,0.0,0.0,0.0,0.0,0.0,0.0,0.0,0.0,0.0,0.0,0.0,0.0,0.0,0.0,0.0,0.0,0.0,0.0,0.0,0.0,0.0,0.0,0.0,0.0,0.0,0.0,0.0,0.0,0.0,0.0,0.0,0.0,0.0,0.0,0.0,0.0,0.0,0.0,0.0,0.0,0.0,0.0,0.0,0.0,0.0,0.0,0.0,0.0,0.0,0.0,0.0,0.0,0.0,0.0,0.8738,0.8791,0.8791,0.0,0.8791,0.0,0.0,0.0,0.0,0.0,0.0,0.0,0.0,0.0,0.0,0.0,0.0,0.0,0.0,0.0,0.0,0.0,0.0,0.0,0.0,0.0,0.0,0.0,0.0,0.0,0.0,0.0,0.0,0.0,0.0,0.0,0.0,0.0,0.0,0.0,0.0,0.0,0.0,0.0,0.0,0.0,0.0,0.0,0.0,0.0,0.0,0.0,0.0,0.0,0.0,0.0,0.0,0.0,0.0,0.0,0.0,0.0,0.0,0.0,0.0,0.0,0.0,0.0,0.0,0.0,0.0,0.0,0.0,0.0,0.0,0.0,0.0,0.0,0.0,0.0,0.0,0.0,0.0,0.0,0.0,0.0,0.0,0.0,0.0,0.0,0.0,0.0,0.0,0.0,0.0,0.0,0.0,0.0,0.0,0.0,0.0,0.0,0.0,0.0,0.0,0.0,0.0,0.0,0.0,0.0,0.0,0.0,0.0,0.0,0.0,0.8791,0.8791,0.8791,0.8791,0.0,0.0,0.0,0.0,0.0,0.0,0.0,0.0,0.0,0.0,0.0,0.0,0.0,0.0,0.0,0.0,0.0,0.0,0.0,0.0,0.0,0.0,0.0,0.0,0.0,0.0,0.0,0.0,0.0,0.0,0.0,0.0,0.0,0.0,0.0,0.0,0.0,0.0,0.0,0.0,0.0,0.0,0.0,0.0,0.0,0.0,0.0,0.0,0.0,0.0,0.0,0.0,0.0,0.0,0.0,0.0,0.0,0.0,0.0,0.0,0.0,0.0,0.0,0.0,0.0,0.0,0.0,0.0,0.0,0.0,0.0,0.0,0.0,0.0,0.0,0.0,0.0,0.0,0.0,0.0,0.0,0.0,0.0,0.0,0.0,0.0,0.0,0.0,0.0,0.0,0.0,0.0,0.0,0.0,0.0,0.0,0.0,0.0,0.0,0.0,0.0,0.0,0.0,0.0,0.0,0.0,0.0,0.0,0.0,0.0,0.8142,0.8791,0.8791,0.8791,0.8791,0.8791,0.0,0.0,0.0,0.0,0.0,0.0,0.0,0.0,0.0,0.0,0.0,0.0,0.0,0.0,0.0,0.0,0.0,0.0,0.0,0.0,0.0,0.0,0.0,0.0,0.0,0.0,0.0,0.0,0.0,0.0,0.0,0.0,0.0,0.0,0.0,0.0,0.0,0.0,0.0,0.0,0.0,0.0,0.0,0.0,0.0,0.0,0.0,0.0,0.0,0.0,0.0,0.0,0.0,0.0,0.0,0.0,0.0,0.0,0.0,0.0,0.0,0.0,0.0,0.0,0.0,0.0,0.0,0.0,0.0,0.0,0.0,0.0,0.0,0.0,0.0,0.0,0.0,0.0,0.0,0.0,0.0,0.0,0.0,0.0,0.0,0.0,0.0,0.0,0.0,0.0,0.0,0.0,0.0,0.0,0.0,0.0,0.0,0.0,0.0,0.0,0.0,0.0,0.0,0.0,0.0,0.0,0.0,0.0,0.7624,0.8414,0.8791,0.8791,0.8791,0.8791,0.0,0.0,0.0,0.0,0.0,0.0,0.0,0.0,0.0,0.0,0.0,0.0,0.0,0.0,0.0,0.0,0.0,0.0,0.0,0.0,0.0,0.0,0.0,0.0,0.0,0.0,0.0,0.0,0.0,0.0,0.0,0.0,0.0,0.0,0.0,0.0,0.0,0.0,0.0,0.0,0.0,0.0,0.0,0.0,0.0,0.0,0.0,0.0,0.0,0.0,0.0,0.0,0.0,0.0,0.0,0.0,0.0,0.0,0.0,0.0,0.0,0.0,0.0,0.0,0.0,0.0,0.0,0.0,0.0,0.0,0.0,0.0,0.0,0.0,0.0,0.0,0.0,0.0,0.0,0.0,0.0,0.0,0.0,0.0,0.0,0.0,0.0,0.0,0.0,0.0,0.0,0.0,0.0,0.0,0.0,0.0,0.0,0.0,0.0,0.0,0.0,0.0,0.0,0.0,0.0,0.0,0.0,0.0,0.0,0.7691,0.8427,0.8791,0.8791,0.8791,0.8791,0.0,0.0,0.0,0.0,0.0,0.0,0.0,0.0,0.0,0.0,0.0,0.0,0.0,0.0,0.0,0.0,0.0,0.0,0.0,0.0,0.0,0.0,0.0,0.0,0.0,0.0,0.0,0.0,0.0,0.0,0.0,0.0,0.0,0.0,0.0,0.0,0.0,0.0,0.0,0.0,0.0,0.0,0.0,0.0,0.0,0.0,0.0,0.0,0.0,0.0,0.0,0.0,0.0,0.0,0.0,0.0,0.0,0.0,0.0,0.0,0.0,0.0,0.0,0.0,0.0,0.0,0.0,0.0,0.0,0.0,0.0,0.0,0.0,0.0,0.0,0.0,0.0,0.0,0.0,0.0,0.0,0.0,0.0,0.0,0.0,0.0,0.0,0.0,0.0,0.0,0.0,0.0,0.0,0.0,0.0,0.0,0.0,0.0,0.0,0.0,0.0,0.0,0.0,0.0,0.0,0.0,0.0,0.0,0.0,0.8023,0.0,0.8791,0.8791,0.8791,0.8791,0.0,0.0,0.0,0.0,0.0,0.0,0.0,0.0,0.0,0.0,0.0,0.0,0.0,0.0,0.0,0.0,0.0,0.0,0.0,0.0,0.0,0.0,0.0,0.0,0.0,0.0,0.0,0.0,0.0,0.0,0.0,0.0,0.0,0.0,0.0,0.0,0.0,0.0,0.0,0.0,0.0,0.0,0.0,0.0,0.0,0.0,0.0,0.0,0.0,0.0,0.0,0.0,0.0,0.0,0.0,0.0,0.0,0.0,0.0,0.0,0.0,0.0,0.0,0.0,0.0,0.0,0.0,0.0,0.0,0.0,0.0,0.0,0.0,0.0,0.0,0.0,0.0,0.0,0.0,0.0,0.0,0.0,0.0,0.0,0.0,0.0,0.0,0.0,0.0,0.0,0.0,0.0,0.0,0.0,0.0,0.0,0.0,0.0,0.0,0.0,0.0,0.0,0.0,0.0,0.0,0.0,0.0,0.0,0.7316,0.8699,0.8778,0.8804,0.8804,0.8811,0.8811,0.0,0.0,0.0,0.0,0.0,0.0,0.0,0.0,0.0,0.0,0.0,0.0,0.0,0.0,0.0,0.0,0.0,0.0,0.0,0.0,0.0,0.0,0.0,0.0,0.0,0.0,0.0,0.0,0.0,0.0,0.0,0.0,0.0,0.0,0.0,0.0,0.0,0.0,0.0,0.0,0.0,0.0,0.0,0.0,0.0,0.0,0.0,0.0,0.0,0.0,0.0,0.0,0.0,0.0,0.0,0.0,0.0,0.0,0.0,0.0,0.0,0.0,0.0,0.0,0.0,0.0,0.0,0.0,0.0,0.0,0.0,0.0,0.0,0.0,0.0,0.0,0.0,0.0,0.0,0.0,0.0,0.0,0.0,0.0,0.0,0.0,0.0,0.0,0.0,0.0,0.0,0.0,0.0,0.0,0.0,0.0,0.0,0.0,0.0,0.0,0.0,0.0,0.0,0.0,0.0,0.0,0.0,0.0,0.0,0.8036,0.8533,0.9021,0.9445,0.9035,0.9008,0.0,0.0,0.0,0.0,0.0,0.0,0.0,0.0,0.0,0.0,0.0,0.0,0.0,0.0,0.0,0.0,0.0,0.0,0.0,0.0,0.0,0.0,0.0,0.0,0.0,0.0,0.0,0.0,0.0,0.0,0.0,0.0,0.0,0.0,0.0,0.0,0.0,0.0,0.0,0.0,0.0,0.0,0.0,0.0,0.0,0.0,0.0,0.0,0.0,0.0,0.0,0.0,0.0,0.0,0.0,0.0,0.0,0.0,0.0,0.0,0.0,0.0,0.0,0.0,0.0,0.0,0.0,0.0,0.0,0.0,0.0,0.0,0.0,0.0,0.0,0.0,0.0,0.0,0.0,0.0,0.0,0.0,0.0,0.0,0.0,0.0,0.0,0.0,0.0,0.0,0.0,0.0,0.0,0.0,0.0,0.0,0.0,0.0,0.0,0.0,0.0,0.0,0.0,0.0,0.0,0.0,0.0,0.0,0.0,0.7899,0.8479,0.8995,0.9426,0.9008,0.8995,0.94,0.0,0.0,0.0,0.0,0.0,0.0,0.0,0.0,0.0,0.0,0.0,0.0,0.0,0.0,0.0,0.0,0.0,0.0,0.0,0.0,0.0,0.0,0.0,0.0,0.0,0.0,0.0,0.0,0.0,0.0,0.0,0.0,0.0,0.0,0.0,0.0,0.0,0.0,0.0,0.0,0.0,0.0,0.0,0.0,0.0,0.0,0.0,0.0,0.0,0.0,0.0,0.0,0.0,0.0,0.0,0.0,0.0,0.0,0.0,0.0,0.0,0.0,0.0,0.0,0.0,0.0,0.0,0.0,0.0,0.0,0.0,0.0,0.0,0.0,0.0,0.0,0.0,0.0,0.0,0.0,0.0,0.0,0.0,0.0,0.0,0.0,0.0,0.0,0.0,0.0,0.0,0.0,0.0,0.0,0.0,0.0,0.0,0.0,0.0,0.0,0.0,0.0,0.0,0.0,0.0,0.0,0.0,0.0,0.8209,0.8634,0.8891,0.8897,0.8897,0.8883,0.0,0.0,0.0,0.0,0.0,0.0,0.0,0.0,0.0,0.0,0.0,0.0,0.0,0.0,0.0,0.0,0.0,0.0,0.0,0.0,0.0,0.0,0.0,0.0,0.0,0.0,0.0,0.0,0.0,0.0,0.0,0.0,0.0,0.0,0.0,0.0,0.0,0.0,0.0,0.0,0.0,0.0,0.0,0.0,0.0,0.0,0.0,0.0,0.0,0.0,0.0,0.0,0.0,0.0,0.0,0.0,0.0,0.0,0.0,0.0,0.0,0.0,0.0,0.0,0.0,0.0,0.0,0.0,0.0,0.0,0.0,0.0,0.0,0.0,0.0,0.0,0.0,0.0,0.0,0.0,0.0,0.0,0.0,0.0,0.0,0.0,0.0,0.0,0.0,0.0,0.0,0.0,0.0,0.0,0.0,0.0,0.0,0.0,0.0,0.0,0.0,0.0,0.0,0.0,0.0,0.0,0.0,0.0,0.0,0.8209,0.9034,0.959,0.9893,0.9667,0.9775,0.0,0.0,0.0,0.0,0.0,0.0,0.0,0.0,0.0,0.0,0.0,0.0,0.0,0.0,0.0,0.0,0.0,0.0,0.0,0.0,0.0,0.0,0.0,0.0,0.0,0.0,0.0,0.0,0.0,0.0,0.0,0.0,0.0,0.0,0.0,0.0,0.0,0.0,0.0,0.0,0.0,0.0,0.0,0.0,0.0,0.0,0.0,0.0,0.0,0.0,0.0,0.0,0.0,0.0,0.0,0.0,0.0,0.0,0.0,0.0,0.0,0.0,0.0,0.0,0.0,0.0,0.0,0.0,0.0,0.0,0.0,0.0,0.0,0.0,0.0,0.0,0.0,0.0,0.0,0.0,0.0,0.0,0.0,0.0,0.0,0.0,0.0,0.0,0.0,0.0,0.0,0.0,0.0,0.0,0.0,0.0,0.0,0.0,0.0,0.0,0.0,0.0,0.0,0.0,0.0,0.0,0.0,0.0,0.7516,0.8811,0.9437,0.9986,1.0461,1.0168,1.0262,0.0,0.0,0.0,0.0,0.0,0.0,0.0,0.0,0.0,0.0,0.0,0.0,0.0,0.0,0.0,0.0,0.0,0.0,0.0,0.0,0.0,0.0,0.0,0.0,0.0,0.0,0.0,0.0,0.0,0.0,0.0,0.0,0.0,0.0,0.0,0.0,0.0,0.0,0.0,0.0,0.0,0.0,0.0,0.0,0.0,0.0,0.0,0.0,0.0,0.0,0.0,0.0,0.0,0.0,0.0,0.0,0.0,0.0,0.0,0.0,0.0,0.0,0.0,0.0,0.0,0.0,0.0,0.0,0.0,0.0,0.0,0.0,0.0,0.0,0.0,0.0,0.0,0.0,0.0,0.0,0.0,0.0,0.0,0.0,0.0,0.0,0.0,0.0,0.0,0.0,0.0,0.0,0.0,0.0,0.0,0.0,0.0,0.0,0.0,0.0,0.0,0.0,0.0,0.0,0.0,0.0,0.0,0.0,0.7708,0.9659,0.9774,1.0138,1.077,1.0579,1.0603,0.0,0.0,0.0,0.0,0.0,0.0,0.0,0.0,0.0,0.0,0.0,0.0,0.0,0.0,0.0,0.0,0.0,0.0,0.0,0.0,0.0,0.0,0.0,0.0,0.0,0.0,0.0,0.0,0.0,0.0,0.0,0.0,0.0,0.0,0.0,0.0,0.0,0.0,0.0,0.0,0.0,0.0,0.0,0.0,0.0,0.0,0.0,0.0,0.0,0.0,0.0,0.0,0.0,0.0,0.0,0.0,0.0,0.0,0.0,0.0,0.0,0.0,0.0,0.0,0.0,0.0,0.0,0.0,0.0,0.0,0.0,0.0,0.0,0.0,0.0,0.0,0.0,0.0,0.0,0.0,0.0,0.0,0.0,0.0,0.0,0.0,0.0,0.0,0.0,0.0,0.0,0.0,0.0,0.0,0.0,0.0,0.0,0.0,0.0,0.0,0.0,0.0,0.0,0.0,0.0,0.0,0.0,0.0,0.845,0.9658,0.9926,1.0502,1.1447,1.1477,1.152,0.0,0.0,0.0,0.0,0.0,0.0,0.0,0.0,0.0,0.0,0.0,0.0,0.0,0.0,0.0,0.0,0.0,0.0,0.0,0.0,0.0,0.0,0.0,0.0,0.0,0.0,0.0,0.0,0.0,0.0,0.0,0.0,0.0,0.0,0.0,0.0,0.0,0.0,0.0,0.0,0.0,0.0,0.0,0.0,0.0,0.0,0.0,0.0,0.9536,0.0,0.0,0.0,0.0,0.0,0.0,0.0,0.0,0.0,0.0,0.0,0.0,0.0,0.0,0.0,0.0,0.0,0.0,0.0,0.0,0.0,0.0,0.0,0.0,0.0,0.0,0.0,0.0,0.0,0.0,0.0,0.0,0.0,0.0,0.0,0.0,0.0,0.0,0.0,0.0,0.0,0.0,0.0,0.0,0.0,0.0,0.0,0.0,0.0,0.0,0.0,0.0,0.0,0.0,0.0,0.0,0.0,0.0,0.0,0.8461,0.9437,0.9798,1.0458,1.1445,1.1696,1.1959,0.0,0.0,0.0,0.0,0.0,0.0,0.0,0.0,0.0,0.0,0.0,0.0,0.0,0.0,0.0,0.0,0.0,0.0,0.0,0.0,0.0,0.0,0.0,0.0,0.0,0.0,0.0,0.0,0.0,0.0,0.0,0.0,0.0,0.0,0.0,0.0,0.0,0.0,0.0,0.0,0.0,0.0,0.0,0.0,0.0,0.0,0.0,0.0,0.0,0.0,0.0,0.0,0.0,0.0,0.0,0.0,0.0,0.0,0.0,0.0,0.0,0.0,0.0,0.0,0.0,0.0,0.0,0.0,0.0,0.0,0.0,0.0,0.0,0.0,0.0,0.0,0.0,0.0,0.0,0.0,0.0,0.0,0.0,0.0,0.0,0.0,0.0,0.0,0.0,0.0,0.0,0.0,0.0,0.0,0.0,0.0,0.0,0.0,0.0,0.0,0.0,0.0,0.0,0.0,0.0,0.0,0.0,0.7503,0.8299,0.917,0.9541,1.0226,1.127,1.1567,1.2045,1.2713,0.0,0.0,0.0,0.0,0.0,0.0,0.0,0.0,0.0,0.0,0.0,0.0,0.0,0.0,0.0,0.0,0.0,0.0,0.0,0.0,0.0,0.0,0.0,0.0,0.0,0.0,0.0,0.0,0.0,0.0,0.0,0.0,0.0,0.0,0.0,0.0,0.0,0.0,0.7849,0.8453,0.0,0.0,0.0,0.0,0.0,0.0,0.0,0.0,1.0042,0.0,0.0,0.0,0.0,0.0,0.0,0.0,0.0,0.0,0.0,0.0,0.0,0.0,0.0,0.0,0.0,0.0,0.0,0.0,0.0,0.0,0.0,0.0,0.0,0.0,0.0,0.0,0.0,0.0,0.0,0.0,0.0,0.0,0.0,0.0,0.0,0.0,0.0,0.0,0.0,0.0,0.0,0.0,0.0,0.0,0.0,0.0,0.0,0.0,0.0,0.0,0.0,0.0,0.0,0.0,0.0,0.7523,0.8249,0.881,0.919,0.9254,0.9943,1.1225,1.1353,1.1576,1.1974,0.0,0.0,0.0,0.0,0.0,0.0,0.0,0.0,0.0,0.0,0.0,0.0,0.0,0.0,0.0,0.0,0.0,0.0,0.0,0.0,0.0,0.0,0.0,0.0,0.0,0.0,0.0,0.0,0.0,0.0,0.0,0.0,0.0,0.0,0.0,0.0,0.0,0.0,0.0,0.8917,0.9144,0.0,0.0,0.0,0.0,0.0,0.0,0.0,0.0,1.1144,0.0,0.0,0.0,0.0,0.0,0.0,0.0,0.0,0.0,0.0,0.0,0.0,0.0,0.0,0.0,0.0,0.0,0.0,0.0,0.0,0.0,0.0,0.0,0.0,0.0,0.0,0.0,0.0,0.0,0.0,0.0,0.0,0.0,0.0,0.0,0.0,0.0,0.0,0.0,0.0,0.0,0.0,0.0,0.0,0.0,0.0,0.0,0.0,0.0,0.0,0.0,0.0,0.0,0.0,0.0,0.716,0.8228,0.8878,0.8998,0.8991,0.9495,1.0486,1.0865,1.0969,0.0,0.0,0.0,0.0,0.0,0.0,0.0,0.0,0.0,0.0,0.0,0.0,0.0,0.0,0.0,0.0,0.0,0.0,0.0,0.0,0.0,0.0,0.0,0.0,0.0,0.0,0.0,0.0,0.0,0.0,0.0,0.0,0.0,0.0,0.0,0.0,0.0,0.0,0.0,0.0,0.869,0.8955,0.9395,0.0,0.0,0.0,0.0,0.0,0.0,1.0715,1.0615,0.0,0.0,0.0,0.0,0.0,0.0,0.0,0.0,0.0,0.0,0.0,0.0,0.0,0.0,0.0,0.0,0.0,0.0,0.0,0.0,0.0,0.0,0.0,0.0,0.0,0.0,0.0,0.0,0.0,0.0,0.0,0.0,0.0,0.0,0.0,0.0,0.0,0.0,0.0,0.0,0.0,0.0,0.0,0.0,0.0,0.0,0.0,0.0,0.0,0.0,0.0,0.0,0.0,0.0,0.0,0.6656,0.8049,0.8791,0.8791,0.8791,0.9185,0.9961,1.0517,1.0555,0.0,0.0,0.0,0.0,0.0,0.0,0.0,0.0,0.0,0.0,0.0,0.0,0.0,0.0,0.0,0.0,0.0,0.0,0.0,0.0,0.0,0.0,0.0,0.0,0.0,0.0,0.0,0.0,0.0,0.0,0.0,0.0,0.0,0.0,0.0,0.0,0.0,0.0,0.0,0.0,0.0,0.8735,0.9416,0.9731,0.0,0.0,0.0,0.0,1.1038,1.0712,0.0,0.0,0.0,0.0,0.0,0.0,0.0,0.0,0.0,0.0,0.0,0.0,0.0,0.0,0.0,0.0,0.0,0.0,0.0,0.0,0.0,0.0,0.0,0.0,0.0,0.0,0.0,0.0,0.0,0.0,0.0,0.0,0.0,0.0,0.0,0.0,0.0,0.0,0.0,0.0,0.0,0.0,0.0,0.0,0.0,0.0,0.0,0.0,0.0,0.0,0.0,0.0,0.0,0.0,0.0,0.0,0.6656,0.8049,0.8791,0.8791,0.8791,0.9413,1.0636,1.0771,1.0771,0.0,0.0,0.0,0.0,0.0,0.0,0.0,0.0,0.0,0.0,0.0,0.0,0.0,0.0,0.0,0.0,0.0,0.0,0.0,0.0,0.0,0.0,0.0,0.0,0.0,0.0,0.0,0.0,0.0,0.0,0.0,0.0,0.0,0.0,0.0,0.0,0.0,0.0,0.0,0.0,0.0,0.8794,0.8892,0.9804,1.0492,0.0,0.0,1.1844,1.2605,1.2674,0.0,0.0,0.0,0.0,0.0,0.0,0.0,0.0,0.0,0.0,0.0,0.0,0.0,0.0,0.0,0.0,0.0,0.0,0.0,0.0,0.0,0.0,0.0,0.0,0.0,0.0,0.0,0.0,0.0,0.0,0.0,0.0,0.0,0.0,0.0,0.0,0.0,0.0,0.0,0.0,0.0,0.0,0.0,0.0,0.0,0.0,0.0,0.0,0.0,0.0,0.0,0.0,0.0,0.0,0.0,0.6703,0.6922,0.8303,0.9038,0.9038,0.945,0.9965,1.0604,1.1099,1.1129,0.0,0.0,0.0,0.0,0.0,0.0,0.0,0.0,0.0,0.0,0.0,0.0,0.0,0.0,0.0,0.0,0.0,0.0,0.0,0.0,0.0,0.0,0.0,0.0,0.0,0.0,0.0,0.0,0.0,0.0,0.0,0.0,0.0,0.0,0.0,0.0,0.0,0.0,0.0,0.0,0.0,0.0,0.9672,1.0263,0.0,0.0,0.0,1.1505,1.2018,0.0,0.0,0.0,0.0,0.0,0.0,0.0,0.0,0.0,0.0,0.0,0.0,0.0,0.0,0.0,0.0,0.0,0.0,0.0,0.0,0.0,0.0,0.0,0.0,0.0,0.0,0.0,0.0,0.0,0.0,0.0,0.0,0.0,0.0,0.0,0.0,0.0,0.0,0.0,0.0,0.0,0.0,0.0,0.0,0.0,0.0,0.0,0.0,0.0,0.0,0.0,0.0,0.0,0.0,0.0,0.0,0.0,0.7113,0.857,0.9324,0.9345,1.0069,1.0577,1.0857,1.1584,0.0,0.0,0.0,0.0,0.0,0.0,0.0,0.0,0.0,0.0,0.0,0.0,0.0,0.0,0.0,0.0,0.0,0.0,0.0,0.0,0.0,0.0,0.0,0.0,0.0,0.0,0.0,0.4593,0.0,0.0,0.0,0.0,0.0,0.0,0.0,0.0,0.0,0.0,0.0,0.0,0.0,0.0,0.8723,1.025,1.0671,1.0865,0.0,0.0,1.1259,1.1662,1.1928,1.2124,0.0,0.0,0.0,0.0,0.0,0.0,0.0,0.0,0.0,0.0,0.0,0.0,0.0,0.0,0.0,0.0,0.0,0.0,0.0,0.0,0.0,0.0,0.0,0.0,0.0,0.0,0.0,0.0,0.0,0.0,0.0,0.0,0.0,0.0,0.0,0.0,0.0,0.0,0.0,0.0,0.0,0.0,0.0,0.0,0.0,0.0,0.0,0.0,0.0,0.0,0.0,0.0,0.0,0.0,0.0,0.7166,0.8798,0.9653,0.9682,1.0443,1.1179,1.1798,1.2228,1.2123,0.0,0.0,0.0,0.0,0.0,0.0,0.0,0.0,0.0,0.0,0.0,0.0,0.0,0.0,0.0,0.0,0.0,0.0,0.0,0.0,0.0,0.0,0.0,0.0,0.0,0.0,0.0,0.0,0.0,0.0,0.0,0.0,0.0,0.0,0.0,0.0,0.0,0.0,0.0,0.0,0.0,0.895,0.9996,1.0827,1.1359,0.0,0.0,1.1659,1.2485,1.3335,1.3636,1.2818,0.0,0.0,0.0,0.0,0.0,0.0,0.0,0.0,0.0,0.0,0.0,0.0,0.0,0.0,0.0,0.0,0.0,0.0,0.0,0.0,0.0,0.0,0.0,0.0,0.0,0.0,0.0,0.0,0.0,0.0,0.0,0.0,0.0,0.0,0.0,0.0,0.0,0.0,0.0,0.0,0.0,0.0,0.0,0.0,0.0,0.0,0.0,0.0,0.0,0.0,0.0,0.0,0.0,0.7307,0.749,0.9094,0.9947,0.9968,1.0667,1.1194,1.1527,1.2315,1.2561,0.0,0.0,0.0,0.0,0.0,0.0,0.0,0.0,0.0,0.0,0.0,0.0,0.0,0.0,0.0,0.0,0.0,0.0,0.0,0.0,0.0,0.0,0.0,0.0,0.0,0.0,0.0,0.0,0.5015,0.5133,0.5264,0.0,0.0,0.0,0.0,0.0,0.0,0.0,0.0,0.0,0.0,0.9858,1.0781,1.1183,0.0,0.0,1.1703,1.1887,1.2366,1.2753,1.2981,1.2962,1.3244,0.0,0.0,0.0,0.0,0.0,0.0,0.0,0.0,0.0,0.0,0.0,0.0,0.0,0.0,0.0,0.0,0.0,0.0,0.0,0.0,0.0,0.0,0.0,0.0,0.0,0.0,0.0,0.0,0.0,0.0,0.0,0.0,0.0,0.0,0.0,0.0,0.0,0.0,0.0,0.0,0.0,0.0,0.0,0.0,0.0,0.0,0.0,0.0,0.0,0.0,0.0,0.0,0.7507,0.7695,0.9377,1.0247,1.0247,1.0937,1.1345,1.1473,1.2523,1.2946,0.0,0.0,0.0,0.0,0.0,0.0,0.0,0.0,0.0,0.0,0.0,0.0,0.0,0.0,0.0,0.0,0.0,0.0,0.0,0.0,0.0,0.0,0.0,0.0,0.0,0.0,0.0,0.0,0.5122,0.526,0.5446,0.0,0.0,0.0,0.0,0.0,0.0,0.0,0.0,0.0,0.0,1.065,1.1543,1.1648,1.1746,1.1989,1.2022,1.2089,1.2271,1.278,1.3194,1.3262,0.0,0.0,0.0,0.0,0.0,0.0,0.0,0.0,0.0,0.0,0.0,0.0,0.0,0.0,0.0,0.0,0.0,0.0,0.0,0.0,0.0,0.0,0.0,0.0,0.0,0.0,0.0,0.0,0.0,0.0,0.4916,0.0,0.0,0.0,0.0,0.0,0.0,0.0,0.0,0.0,0.0,0.0,0.0,0.0,0.0,0.0,0.0,0.0,0.0,0.0,0.0,0.0,0.0,0.7706,0.7732,0.9609,1.0573,1.0604,1.1368,1.175,1.1819,1.2947,1.326,1.2649,0.0,0.0,0.0,0.0,0.0,0.0,0.0,0.0,0.0,0.0,0.0,0.0,0.0,0.0,0.0,0.0,0.0,0.0,0.0,0.0,0.0,0.0,0.0,0.0,0.0,0.0,0.5388,0.5388,0.5453,0.0,0.0,0.0,0.0,0.0,0.0,0.0,0.0,0.0,0.0,1.0765,1.1162,1.2117,1.2278,1.2265,1.2278,1.2291,1.2291,1.2316,1.3857,1.4807,0.0,0.0,0.0,0.0,0.0,0.0,0.0,0.0,0.0,0.0,0.0,0.0,0.0,0.0,0.0,0.0,0.0,0.0,0.0,0.0,0.0,0.0,0.0,0.0,0.0,0.0,0.0,0.7421,0.7436,0.0,0.0,0.0,0.0,0.0,0.0,0.0,0.0,0.0,0.0,0.0,0.8296,0.8865,0.0,0.0,0.0,0.0,0.0,0.0,0.0,0.0,0.0,0.0,0.0,0.0,0.8186,0.8785,0.9958,1.0586,1.0609,1.0863,1.1264,1.1795,1.2711,1.3341,1.3646,0.0,0.0,0.0,0.0,0.0,0.0,0.0,0.0,0.0,0.0,0.0,0.0,0.0,0.0,0.0,0.0,0.0,0.0,0.0,0.0,0.0,0.0,0.0,0.0,0.0,0.5569,0.0,0.0,0.0,0.0,0.0,0.0,0.0,0.0,0.0,0.0,0.0,0.996,1.0721,1.1372,1.1916,1.2249,1.2305,1.2305,0.0,0.0,0.0,0.0,0.0,0.0,0.0,0.0,0.0,0.0,0.0,0.0,0.0,0.0,1.7561,1.7571,1.7571,1.7571,1.7561,0.0,0.0,0.0,0.0,0.0,0.0,0.0,0.0,0.0,0.0,0.0,0.0,0.0,0.0,0.9383,0.0,0.9349,0.0,0.0,0.0,0.0,0.0,0.0,0.0,0.0,0.9625,0.9836,0.9462,1.0038,1.0089,0.0,0.9701,0.9086,0.0,0.0,0.0,0.0,0.0,0.0,0.0,0.0,0.8732,0.9322,1.0158,1.0586,1.0586,1.0586,1.0839,1.1375,1.2435,1.35,1.4569,1.4614,1.4243,0.0,0.0,0.0,0.0,0.0,0.0,0.0,0.0,0.0,0.0,0.0,0.0,0.0,0.0,0.0,0.0,0.0,0.0,0.0,0.0,0.0,0.0,0.0,0.624,0.0,0.0,0.0,0.0,0.0,0.0,0.0,0.0,0.0,0.8351,0.9758,1.0938,1.1273,1.1904,1.2305,1.2305,0.0,0.0,0.0,0.0,0.0,0.0,0.0,1.3738,1.4985,1.5199,1.5419,1.6053,1.668,1.7285,1.7889,0.0,0.0,1.8008,1.8008,1.8008,1.8008,1.8691,1.9302,1.9302,1.9855,2.0346,0.0,0.0,0.0,0.0,0.0,0.0,0.0,0.0,1.0599,1.0826,0.0,1.076,0.0,0.0,0.0,0.0,0.0,0.9276,0.0,0.0,1.1026,1.143,1.1385,1.1419,1.1443,1.1439,1.1411,1.0951,1.0142,0.9323,0.0,0.0,0.0,0.0,0.0,0.0,0.9345,0.9422,1.0229,1.062,1.0633,1.0626,1.0635,1.0724,1.2228,1.3788,1.524,1.5337,1.4996,1.4201,1.3392,0.0,0.0,0.0,0.0,0.0,0.0,0.0,0.0,0.0,0.0,0.0,0.0,0.0,0.0,0.0,0.0,0.0,0.0,0.0,0.0,0.7894,0.0,0.0,0.0,0.0,0.0,0.0,0.0,0.0,0.0,0.0,0.9508,1.0263,1.1205,1.2169,0.0,0.0,0.0,0.0,1.2305,1.2305,1.2305,1.2316,1.2427,1.3936,1.5154,1.5287,0.0,0.0,1.7974,1.7991,1.7974,1.8008,1.8008,1.8008,1.8008,1.8008,1.8008,1.8042,1.9294,2.0467,2.0653,2.13,2.2118,1.4301,0.0,0.0,0.0,0.0,1.2578,1.305,1.3643,1.392,1.4105,1.4182,1.338,0.0,0.0,0.0,0.0,0.0,0.0,1.0362,1.1073,1.2037,1.2218,1.1796,1.243,1.2498,1.2051,1.2033,1.1918,1.1664,1.1416,1.0414,0.8719,0.0,0.0,0.0,0.0,1.0176,1.079,1.1035,1.1176,1.1176,1.1176,1.1344,1.173,1.3349,1.4319,1.4534,1.4771,1.4505,1.3654,1.3099,0.0,0.0,0.0,0.0,0.0,0.0,0.0,0.0,0.0,0.0,0.0,0.0,0.0,0.0,0.0,0.0,0.0,0.0,0.0,0.684,0.7963,0.8435,0.0,0.0,0.0,0.0,0.0,0.0,0.0,0.0,0.0,1.1058,1.1506,1.1978,0.0,0.0,1.2305,1.2305,1.2305,1.2305,1.2305,1.2305,0.0,1.4163,1.4235,1.4825,1.6854,1.764,1.8008,1.8008,1.8008,1.8008,1.8008,1.8008,1.8008,1.8008,1.8008,1.8008,1.8093,1.8911,1.9863,2.0499,2.1366,2.2195,1.6174,1.4411,1.3591,1.3431,1.3773,1.4018,1.4597,1.5401,1.5804,1.6085,1.6209,1.546,1.4486,1.3335,1.2257,0.0,0.0,0.0,1.2265,1.2922,1.311,1.3004,1.2635,1.2821,1.2686,1.2335,1.2677,1.2868,1.2861,1.2842,1.2152,1.0758,0.0,0.0,1.1187,1.0809,1.0867,1.1372,1.1412,1.1412,1.1412,1.1799,1.2301,1.2966,1.4296,1.5075,1.5194,1.5377,1.5074,1.42,1.3581,1.2858,0.0,0.0,0.0,0.0,0.0,0.0,0.0,0.0,0.0,0.0,0.0,0.9898,0.8781,0.0,0.0,0.0,0.9221,0.9059,0.8556,0.9442,0.0,0.0,0.0,0.0,0.0,0.0,0.0,1.0776,1.1662,1.2293,1.2307,1.2518,1.2659,1.2659,1.2577,1.2537,1.2626,0.0,1.2357,1.2477,1.2378,1.2842,1.4343,1.4432,1.5145,1.7606,1.8008,1.8008,1.8008,1.8008,1.8008,1.8008,1.8008,1.8008,1.8008,1.8008,1.8008,1.8025,1.8714,1.9464,1.9993,2.1049,2.2075,1.7792,1.6841,1.4941,1.4488,1.5034,1.5076,1.5523,1.6216,1.6635,1.7035,1.7402,1.6915,1.6446,1.5956,1.4863,0.0,1.4745,1.4737,1.4876,1.5181,1.4314,1.3882,1.3774,1.3018,1.2604,1.2556,1.3401,1.3774,1.3691,1.3774,1.381,1.3784,1.2706,1.2389,1.2793,1.1943,1.1514,1.1593,1.16,1.1634,1.173,1.2594,1.3422,1.4131,1.5041,1.5865,1.657,1.6615,1.6239,1.5391,1.4593,1.3765,1.2822,0.0,0.0,0.0,0.0,0.0,0.0,0.0,0.0,0.0,0.0,0.0,0.0,0.0,0.0,0.0,1.2128,0.0,1.2091,1.1587,0.0,0.0,0.0,1.0348,1.045,1.1304,1.1864,1.1882,0.0,0.0,1.328,1.326,1.3267,1.328,1.3012,1.2924,1.3153,1.2713,1.2478,1.279,1.2571,1.2767,1.3989,1.493,1.6123,1.7701,1.8008,1.8008,1.8008,1.8008,1.8008,1.8008,1.8008,1.8008,1.8008,1.8008,1.8008,1.8008,1.8603,1.9183,1.9398,2.0606,2.1768,2.0463,1.9612,1.8747,1.7589,1.6318,1.6667,1.6915,1.7116,1.7519,1.7764,1.7801,1.699,1.617,1.5391,1.5115,1.5027,1.5084,1.5084,1.5116,1.5234,1.5702,1.5526,1.4879,1.5341,1.52,1.455,1.4754,1.445,1.3763,1.4468,1.4843,1.4817,1.4549,1.3759,1.2496,1.2218,1.2428,1.3132,1.3157,1.3524,1.4277,1.4523,1.4619,1.4562,1.5378,1.5791,1.5792,1.5978,1.5986,1.5753,1.5232,1.4487,1.3513,1.3282,0.0,0.0,0.0,0.0,0.0,0.0,0.0,0.0,0.0,1.145,1.0705,0.0,1.1629,0.0,1.2047,1.2037,1.0473,1.1074,0.0,0.0,1.1441,1.1739,1.2682,1.2999,1.3246,1.3488,1.375,1.3881,1.3895,1.3902,1.3902,1.3868,1.3447,1.3153,1.318,1.3087,1.3013,1.3073,1.3065,1.3612,1.5305,1.6846,1.7775,1.7971,1.8008,1.8008,1.8008,1.8008,1.8008,1.8008,1.8008,1.8008,1.8008,1.8008,1.8008,1.8008,1.8168,1.8529,1.9177,2.0171,2.1096,2.1396,2.0584,2.032,1.9517,1.841,1.8061,1.7713,1.7429,1.7822,1.8008,1.7974,1.7449,1.6932,1.6481,1.6446,1.6437,1.6446,1.6446,1.6446,1.6454,1.655,1.6341,1.5843,1.593,1.5711,1.5242,1.5614,1.5526,1.5048,1.557,1.5825,1.5816,1.5385,1.4665,1.3647,1.3593,1.3629,1.3691,1.4145,1.4629,1.5181,1.5597,1.5556,1.4988,1.6174,1.6574,1.6018,1.6522,1.6455,1.5644,1.5346,1.454,1.3164,1.308,1.2784,0.0,0.0,0.0,0.0,0.0,0.0,0.0,0.0,0.0,0.0,0.0,1.2326,1.191,1.2537,1.2499,1.1365,1.2026,1.2535,1.2541,1.2668,1.3059,1.3738,1.382,1.3887,1.4089,1.4109,1.4109,1.4109,1.4109,1.4109,1.4109,1.3808,1.3601,1.3567,1.34,1.3253,1.3373,1.3677,1.4537,1.6385,1.7741,1.8461,1.8088,1.8008,1.8008,1.8008,1.8008,1.8008,1.8008,1.8008,1.8008,1.8008,1.8008,1.8008,1.8008,1.8008,1.8327,1.9127,1.9683,2.0349,2.1628,2.0926,2.0926,2.0862,2.068,1.9515,1.8502,1.7662,1.7902,1.8008,1.8008,1.8008,1.8008,1.8008,1.8008,1.8008,1.8008,1.8008,1.8008,1.7947,1.7156,1.6784,1.674,1.593,1.5578,1.5673,1.6447,1.6796,1.6674,1.6805,1.6796,1.6648,1.5973,1.5618,1.5554,1.566,1.5182,1.4099,1.4932,1.5376,1.5385,1.6184,1.6219,1.5499,1.7079,1.7613,1.6836,1.7562,1.7243,1.5675,1.5612,1.481,1.3063,1.2841,1.2739,0.0,1.2486,0.0,0.0,0.0,0.0,0.0,0.0,0.0,0.0,1.2651,1.2939,1.3193,1.3227,1.3247,1.3247,1.3487,1.366,1.3687,1.3914,1.4109,1.4109,1.4109,1.4109,1.4109,1.4109,1.4109,1.4109,1.4109,1.4109,1.4103,1.4062,1.4049,1.4035,1.3661,1.3433,1.3654,1.4496,1.5699,1.6993,1.8063,1.8539,1.8127,1.8008,1.8008,1.8008,1.8008,1.8008,1.8008,1.8008,1.8008,1.8008,1.8008,1.8008,1.8008,1.8008,1.8236,1.8904,1.9414,1.9977,2.2778,2.2613,2.2628,2.2249,2.1647,2.1397,2.0392,1.8897,1.8263,1.8008,1.8008,1.8008,1.8008,1.8008,1.8008,1.8008,1.8008,1.8008,1.8008,1.8008,1.7828,1.7733,1.7725,1.7562,1.763,1.795,1.8145,1.7828,1.7099,1.7863,1.7846,1.7126,1.766,1.7774,1.7458,0.0,0.0,0.0,1.6227,1.6332,1.6332,1.6506,1.6506,1.6376,1.7415,0.0,1.775,1.7906,1.7828,1.7503,1.7789,0.0,0.0,0.0,0.0,0.0,0.0,0.0,0.0,0.0,0.0,0.0,1.3053,1.2933,1.2737,1.2946,1.3146,1.3187,1.3407,1.3527,1.3527,1.3807,1.4001,1.4001,1.4055,1.4109,1.4109,1.4109,1.4109,1.4109,1.4109,1.4109,1.4123,1.4109,1.4109,1.4109,1.4109,1.4109,1.413,1.4052,1.3976,1.4107,1.5659,1.6942,1.7524,1.8504,1.8867,1.8242,1.8008,1.8008,1.8008,1.8008,1.8008,1.8008,1.8008,1.8008,1.8008,1.8008,1.8008,1.8008,1.8008,1.8042,1.8236,1.9381,2.0462,2.3095,0.0,2.3095,2.2869,0.0,2.2075,2.1396,2.0526,1.9666,1.9054,1.863,1.8185,1.8008,1.8008,1.8008,1.8008,1.8008,1.8008,1.8008,1.8018,1.8205,1.8293,1.8303,1.8527,1.8732,1.8937,1.8947,1.8704,1.827,1.8712,1.8722,1.8261,1.8722,1.8828,1.8618,1.9068,1.8864,1.7949,1.794,1.794,1.7932,1.794,1.7709,1.7297,1.8164,0.0,0.0,0.0,0.0,0.0,0.0,0.0,0.0,1.6486,0.0,1.4872,1.4284,1.3808,1.342,1.3273,1.3253,1.3393,1.3407,1.336,1.32,1.3313,1.3467,1.3634,1.3781,1.384,1.3847,1.4022,1.4142,1.4282,1.4302,1.4349,1.4497,1.4389,1.4384,1.4484,1.4283,1.4135,1.4282,1.4168,1.4116,1.4109,1.4109,1.4313,1.4768,1.4894,1.5186,1.6301,1.7322,1.8287,1.8703,1.898,1.9092,1.8459,1.8127,1.8018,1.8008,1.8008,1.8008,1.8008,1.8008,1.8008,1.8008,1.8008,1.8008,1.8008,1.8008,1.8008,1.8025,1.8704,1.9612,2.3095,2.3095,2.3095,2.3095,2.3047,2.2399,2.2122,2.2032,0.0,0.0,0.0,1.8293,1.8047,1.8098,1.8108,1.8147,1.8232,1.8242,1.8242,1.8252,1.8566,1.8742,1.8752,1.9121,1.9344,1.9394,1.9394,1.9404,1.9394,1.9394,1.9413,1.9394,1.9413,1.9434,1.953,1.953,1.953,1.9512,1.9209,1.9068,1.9068,1.9058,1.8692,1.7933,1.882,1.8949,1.8193,1.8894,1.8847,1.7915,1.7913,1.7509,1.6528,1.6346,1.5886,1.5045,1.4786,1.4388,1.3735,1.348,1.3447,1.3666,1.37,1.368,1.3673,1.3686,1.38,1.4089,1.4135,1.4163,1.4116,1.4142,1.4262,1.4474,1.4494,1.4636,1.4941,1.4772,1.4689,1.4879,1.4564,1.4302,1.4469,1.4301,1.4241,1.4362,1.4468,1.4894,1.5923,1.6129,1.6621,1.8301,1.8778,1.9147,1.9658,1.9504,1.9131,1.8646,1.8254,1.8018,1.8008,1.8008,1.8008,1.8008,1.8008,1.8008,1.8008,1.8008,1.8008,1.8008,1.8008,1.8008,1.8008,1.8127,1.8821,2.3108,2.3095,2.3095,2.3095,2.3093,2.2975,2.2929,2.2747,2.0483,1.8994,1.8185,1.8059,1.8196,1.851,1.851,1.8742,1.911,1.912,1.912,1.9111,1.916,1.9199,1.9199,1.9276,1.9482,1.9805,1.9824,1.9805,1.9805,1.9805,1.9805,1.9824,1.9805,2.001,2.0381,2.0419,2.0419,2.0361,1.8864,1.81,1.8082,1.81,1.8054,1.7952,1.8811,1.9251,1.9113,1.9242,1.8811,1.7812,1.8053,1.7763,1.6718,1.6188,1.5746,1.5541,1.4725,1.4142,1.4036,1.4009,1.3981,1.4042,1.4028,1.4028,1.4028,1.4028,1.4041,1.4095,1.4309,1.4355,1.4148,1.4315,1.4461,1.4529,1.4501,1.4621,1.4979,1.4981,1.4952,1.5013,1.4932,1.4789,1.467,1.4611,1.4885,1.5293,1.5436,1.617,1.7658,1.7686,1.7658,1.8658,1.9006,1.9275,1.9764,1.957,1.9171,1.8666,1.8332,1.8115,1.8115,1.8086,1.8066,1.8027,1.8027,1.8008,1.8008,1.8008,1.8008,1.8008,1.8008,1.8008,1.8025,1.8546,1.9414,2.3958,2.3602,2.3587,2.3587,2.3587,2.3587,2.33,2.2794,2.1675,2.0772,2.0069,1.936,1.9137,1.9287,1.909,1.9074,1.9277,1.9277,1.9277,1.9315,1.9531,1.9629,1.9648,1.9882,2.0097,2.0283,2.0273,2.0264,2.0283,2.0283,2.0293,2.0283,2.0283,2.039,2.0595,2.0596,2.0596,2.0576,1.9784,1.9383,1.9345,1.9364,1.9374,1.9383,1.9801,2.0018,1.9999,1.9999,1.9782,1.9297,1.9457,1.9329,1.8834,1.8534,1.8103,1.7508,1.6465,1.5594,1.5012,1.4562,1.4255,1.4136,1.4404,1.4511,1.4307,1.4322,1.4322,1.4329,1.4589,1.4732,1.4598,1.4711,1.4823,1.4977,1.4997,1.5088,1.5351,1.5284,1.528,1.5433,1.5756,1.5961,1.5961,1.6403,1.6425,1.6249,1.628,1.722,1.8778,1.9076,1.9234,1.9766,1.9883,1.9973,2.0216,1.9912,1.9552,1.9327,1.8966,1.874,1.8682,1.8545,1.8342,1.8313,1.8157,1.8027,1.8008,1.8008,1.8008,1.8008,1.8008,1.8008,1.8117,1.9027,2.0236,2.5167,2.4736,2.4545,2.4368,2.4192,2.4192,2.3788,2.3196,2.3176,2.2935,2.2365,2.0834,2.0156,2.0188,1.9675,1.9501,1.9579,1.9599,1.9617,1.9628,1.9912,2.0059,2.0088,2.0429,2.0596,2.0596,2.0596,2.0596,2.0596,2.0596,2.0596,2.0625,2.0684,2.0742,2.0742,2.086,2.0889,2.0879,2.0879,2.0811,2.0615,2.0596,2.0586,2.0596,2.0586,2.0596,2.0596,2.0596,2.0528,2.039,2.038,2.03,2.0148,1.9889,1.937,1.8542,1.7676,1.6954,1.6388,1.5783,1.5347,1.5142,1.5552,1.5597,1.5103,1.5086,1.5086,1.5066,1.5432,1.5614,1.5442,1.5271,1.5248,1.5394,1.5661,1.5957,1.6162,1.6264,1.6248,1.6352,1.6698,1.7064,1.7288,1.7825,1.7897,1.7357,1.7433,1.8118,1.9195,1.9962,2.0245,2.0547,2.0596,2.0566,2.0566,2.0205,1.9922,1.9883,1.9541,1.9199,1.9053,1.8781,1.8549,1.844,1.8196,1.8037,1.8008,1.8008,1.8008,1.8008,1.8008,1.8134,1.8721,1.9628,2.0814,2.6541,2.6849,2.6176,2.5454,2.4748,2.4729,2.4664,2.4587,2.4616,2.4591,2.4266,2.186,2.0977,2.11,2.0318,2.0172,2.0525,2.0478,2.0497,2.0487,2.0517,2.0527,2.0527,2.0566,2.0596,2.0615,2.0596,2.0635,2.0693,2.0654,2.0615,2.0664,2.0967,2.1162,2.1191,2.1553,2.1769,2.1788,2.1788,2.1397,2.0664,2.0596,2.0596,2.0596,2.0596,2.0596,2.0635,2.0596,2.0339,1.9749,1.9754,1.9457,1.8846,1.7819,1.7179,1.7128,1.6976,1.7252,1.8179,1.8255,1.8105,1.8196,1.8124,1.7709,1.674,1.6833,1.6847,1.6772,1.713,1.6982,1.6684,1.6127,1.5821,1.5826,1.6508,1.7166,1.7486,1.8472,1.8709,1.763,1.7618,1.7536,1.759,1.767,1.8051,1.9172,1.8865,1.9109,2.0068,1.9805,1.9785,2.0362,2.0596,2.0596,2.0547,2.0205,2.0019,1.9922,1.96,1.9316,1.9072,1.884,1.8522,1.8586,1.8176,1.8137,1.8057,1.8008,1.8037,1.8008,1.8117,1.8418,1.9824,2.043,2.0937,2.8001,2.7763,2.6919,2.5892,2.4915,2.513,2.5268,2.5272,2.5272,2.546,2.5594,2.4015,2.3207,2.3033,2.2327,2.2139,2.2291,2.232,2.1962,2.1451,2.1422,2.1136,2.0625,2.0596,2.0713,2.0918,2.0713,2.085,2.1269,2.1368,2.1368,2.1378,2.1533,2.1621,2.1631,2.1787,2.1915,2.1915,2.1915,2.172,2.1387,2.1084,2.083,2.0664,2.082,2.0957,2.0996,2.1201,2.1234,2.0979,2.0967,2.0837,2.0568,2.0075,1.9812,1.9791,1.9178,1.8742,1.863,1.8787,1.8821,1.8604,1.8943,1.8835,1.8308,1.9051,1.9577,1.9276,1.772,1.6709,1.7243,1.7295,1.743,1.7789,1.8276,1.8362,1.7755,1.8795,1.9016,1.8002,1.8979,1.9765,1.9648,1.949,1.9952,2.0831,2.0277,1.9881,2.07,2.0369,2.0196,2.0469,2.0596,2.0596,2.0595,2.0459,2.0322,2.0283,2.0185,1.995,1.9756,1.9493,1.9308,1.9093,1.881,1.8557,1.841,1.8352,1.8322,1.8147,1.8042,1.8395,1.9595,2.0236,2.0894,2.9434,2.8966,2.7948,2.6766,2.5628,2.5761,2.5854,2.5841,2.5841,2.6097,2.6405,2.5734,2.52,2.4749,2.3912,2.3496,2.3496,2.3496,2.2962,2.2086,2.2134,2.1703,2.086,2.0899,2.1114,2.1318,2.1123,2.129,2.1866,2.1915,2.1915,2.1925,2.2002,2.2081,2.208,2.2158,2.2227,2.2236,2.2227,2.2178,2.2031,2.1727,2.1377,2.1026,2.124,2.1396,2.1396,2.1698,2.1943,2.206,2.2051,2.2109,2.2217,2.1913,2.1734,2.1692,2.0967,2.0338,1.9843,2.0062,2.0105,1.9887,2.0266,2.0269,2.0013,2.0686,2.1083,2.0532,1.8368,1.7452,1.8494,1.9262,1.9644,1.9604,1.9747,1.9588,1.8933,1.977,2.0087,1.9085,2.0192,2.1293,2.1283,2.1262,2.1569,2.2046,2.1184,2.0357,2.098,2.0927,2.0732,2.0605,2.0596,2.0596,2.0596,2.0566,2.0596,2.0596,2.0527,2.0459,2.0459,2.0068,1.9785,1.9307,1.9286,1.9043,1.8588,1.85,1.8422,1.8137,1.8035,1.8306,1.9233,1.9993,2.0862,3.0811,3.1028,2.957,2.8362,2.7508,2.6777,2.6483,2.6552,2.6453,2.6461,2.6487,2.6418,2.6375,2.62,2.4446,2.3551,2.3569,2.3694,2.3209,2.2367,2.2634,2.2183,2.125,2.1631,2.1847,2.1866,2.1748,2.1817,2.1935,2.1944,2.1915,2.1954,2.2305,2.2459,2.2508,2.281,2.3023,2.2955,2.2967,2.284,2.2518,2.244,2.2206,2.1875,2.1836,2.1865,2.1865,2.1885,2.208,2.2459,2.2459,2.2635,2.2889,2.1991,2.1437,2.1389,2.1323,2.1739,2.255,2.2666,2.2688,2.2754,2.2598,2.2385,2.1296,2.1355,2.1069,1.9807,1.969,1.9835,2.0881,2.1758,2.1649,2.0085,2.0621,2.1078,2.1047,2.1832,2.2249,2.1279,2.1203,2.1502,2.1426,2.1979,2.2322,2.2459,2.2076,2.1637,2.1266,2.121,2.0976,2.0703,2.0596,2.0596,2.0596,2.0596,2.0596,2.0596,2.0556,2.0488,2.0156,1.9864,1.9697,1.9492,1.9287,1.9015,1.8656,1.8412,1.8264,1.8125,1.8098,1.8443,1.8875,1.9922,2.0751,3.0968,3.0673,3.0086,2.9588,2.904,2.7824,2.7508,2.7794,2.69,2.6487,2.6487,2.6487,2.6487,2.6435,2.5756,2.5429,2.5453,2.5767,2.5396,2.4569,2.4952,2.4307,2.2794,2.2858,2.2684,2.228,2.2021,2.2042,2.2305,2.2549,2.2685,2.2674,2.281,2.2898,2.2927,2.3013,2.3101,2.3101,2.3101,2.3013,2.2877,2.2888,2.281,2.2664,2.2401,2.2295,2.2264,2.2518,2.2732,2.2898,2.2888,2.2957,2.3028,2.2709,2.2448,2.2448,2.247,2.2655,2.3025,2.3101,2.3101,2.3101,2.3101,2.2938,2.2567,2.2457,2.2249,2.188,2.1789,2.2076,2.234,2.2881,2.2745,2.2087,2.2151,2.2098,2.1725,2.2328,2.2633,2.1734,2.1898,2.2448,2.2429,2.2705,2.2867,2.2859,2.2537,2.2108,2.1728,2.1415,2.1123,2.0723,2.0596,2.0596,2.0596,2.0596,2.0596,2.0596,2.0576,2.0556,2.0361,2.0283,2.0175,2.0107,1.9736,1.9444,1.9249,1.8937,1.8682,1.843,1.8401,1.8397,1.8444,1.9847,2.0607,3.1323,3.098,3.0723,3.0653,3.0547,2.9334,2.8809,2.8869,2.792,2.7298,2.705,2.701,2.7027,2.7027,2.701,2.701,2.7022,2.7218,2.6848,2.6113,2.6224,2.5363,2.3927,2.3474,2.314,2.2808,2.2844,2.2981,2.3252,2.3509,2.3432,2.3125,2.3101,2.3101,2.3101,2.3101,2.3101,2.3101,2.3101,2.3101,2.3101,2.3101,2.3101,2.3062,2.2818,2.2693,2.2693,2.2967,2.3101,2.3101,2.3101,2.3101,2.3101,2.3101,2.3101,2.3101,2.3091,2.3101,2.3101,2.3101,2.3101,2.3101,2.3101,2.3101,2.3101,2.3101,2.3101,2.3101,2.3101,2.3101,2.3101,2.3101,2.3101,2.3101,2.3101,2.2775,2.2053,2.2633,2.2677,2.224,2.2545,2.3003,2.3101,2.3091,2.3103,2.3101,2.2849,2.2537,2.2148,2.1855,2.1396,2.0938,2.082,2.0742,2.0644,2.0596,2.0596,2.0596,2.0596,2.0596,2.0596,2.0596,2.0586,2.0586,2.042,2.0156,1.9844,1.9512,1.9219,1.8908,1.883,1.8832,1.9299,1.9999,2.0699,3.1899,3.2303,3.1592,3.166,3.2035,3.1204,3.0388,2.9774,2.9425,2.8766,2.8142,2.8045,2.7934,2.8021,2.7908,2.8021,2.7971,2.7645,2.7254,2.6738,2.6266,2.5521,2.4497,2.3977,2.3605,2.3448,2.4298,2.4713,2.4618,2.4585,2.4125,2.3278,2.3101,2.3101,2.3101,2.3101,2.3101,2.3101,2.3101,2.3101,2.3101,2.3101,2.3101,2.3101,2.3062,2.3064,2.3071,2.3091,2.3101,2.3101,2.3101,2.3101,2.3101,2.3101,2.3101,2.3101,2.3101,2.3101,2.3101,2.3101,2.3101,2.3101,2.3101,2.3101,2.3101,2.3101,2.3101,2.3101,2.3101,2.3101,2.3101,2.3101,2.3101,2.3101,2.3101,2.3025,2.3025,2.3047,2.3091,2.2982,2.3069,2.3101,2.3101,2.3101,2.3101,2.3091,2.3042,2.2879,2.2488,2.2344,2.2049,2.1435,2.1084,2.0927,2.0752,2.0596,2.0596,2.0596,2.0596,2.0596,2.0596,2.0596,2.0596,2.0586,2.0429,2.0185,2.0048,1.9745,1.958,1.9355,1.9316,1.9255,1.9585,2.0129,2.0954,3.2587,3.3155,3.2911,3.3174,3.3567,3.2376,3.1867,3.1808,3.0321,2.9342,2.8983,2.8375,2.8109,2.8122,2.8109,2.8304,2.8605,2.8467,2.8331,2.8193,2.8307,2.7806,2.6938,2.6585,2.614,2.5599,2.5787,2.5546,2.4978,2.4861,2.4211,2.3299,2.3113,2.3101,2.3101,2.3101,2.3101,2.3101,2.3101,2.3101,2.3101,2.3101,2.3101,2.3101,2.3101,2.3101,2.3101,2.3101,2.3101,2.3101,2.3101,2.3101,2.3101,2.3101,2.3101,2.3101,2.3101,2.3101,2.3101,2.3101,2.3101,2.3101,2.3101,2.3101,2.3101,2.3101,2.3101,2.3101,2.3101,2.3101,2.3101,2.3101,2.3101,2.3101,2.3101,2.3101,2.3101,2.3101,2.3101,2.3101,2.3101,2.3101,2.3101,2.3101,2.3101,2.3101,2.3091,2.2957,2.2625,2.2537,2.2157,2.1405,2.1249,2.1123,2.085,2.0654,2.0596,2.0596,2.0596,2.0596,2.0596,2.0596,2.0596,2.0556,2.041,2.0293,2.0175,2.0067,1.9921,1.9795,1.9736,1.9663,1.9593,2.0229,2.1224,3.326,3.3844,3.3874,3.4247,3.4754,3.3796,3.3436,3.33,3.1864,3.078,3.0111,2.9528,2.9034,2.878,2.8725,2.8894,2.9239,2.9233,2.9233,2.9182,2.9065,2.8747,2.8076,2.7663,2.7493,2.7177,2.7107,2.6748,2.6066,2.5963,2.5241,2.3984,2.3735,2.3485,2.3157,2.3101,2.3101,2.3101,2.3101,2.3101,2.3101,2.3101,2.3101,2.3101,2.3101,2.3101,2.3101,2.3101,2.3101,2.3101,2.3101,2.3101,2.3101,2.3101,2.3101,2.3101,2.3101,2.3101,2.3101,2.3101,2.3101,2.3101,2.3101,2.3101,2.3101,2.3101,2.3101,2.3101,2.3101,2.3101,2.3101,2.3101,2.3101,2.3101,2.3101,2.3101,2.3101,2.3101,2.3101,2.3101,2.3101,2.3101,2.3101,2.3101,2.3101,2.3101,2.3091,2.3074,2.2801,2.2742,2.2254,2.1835,2.163,2.1367,2.0928,2.0742,2.0605,2.0596,2.0596,2.0596,2.0596,2.0596,2.0596,2.0596,2.0498,2.0488,2.039,2.0439,2.037,2.0263,2.0117,2.0144,2.0205,2.0968,2.1844,3.3933,3.4518,3.4548,3.4892,3.5415,3.532,3.482,3.4168,3.3839,3.2821,3.1612,3.1198,3.0654,3.0012,2.9827,2.9821,2.9798,2.9716,2.9691,2.9459,2.8956,2.8426,2.8287,2.7626,2.7646,2.8116,2.8207,2.8096,2.7723,2.7522,2.6921,2.483,2.4436,2.4146,2.3278,2.3101,2.3101,2.3101,2.3101,2.3101,2.3101,2.3101,2.3101,2.3101,2.3101,2.3101,2.3101,2.3101,2.3101,2.3101,2.3101,2.3101,2.3101,2.3101,2.3101,2.3101,2.3101,2.3101,2.3101,2.3101,2.3101,2.3101,2.3101,2.3101,2.3101,2.3101,2.3101,2.3101,2.3101,2.3101,2.3101,2.3101,2.3101,2.3101,2.3101,2.3101,2.3101,2.3101,2.3101,2.3101,2.3101,2.3101,2.3101,2.3101,2.3101,2.3101,2.3101,2.3062,2.3052,2.2957,2.2859,2.2498,2.2051,2.1738,2.1338,2.1192,2.1045,2.082,2.0791,2.0723,2.0625,2.0596,2.0596,2.0596,2.0596,2.0596,2.0605,2.0605,2.0605,2.0478,2.0468,2.0566,2.0912,2.147,2.2091,3.4637,3.522,3.5235,3.534,3.5489,3.5489,3.5359,3.5003,3.431,3.3739,3.3136,3.2504,3.1687,3.0871,3.0777,3.0476,2.9921,2.9779,2.9779,2.9772,2.9534,2.9365,2.9346,2.9059,2.9,2.9275,2.9216,2.8937,2.8076,2.7513,2.6357,2.483,2.4253,2.3594,2.3113,2.32,2.3101,2.3101,2.3101,2.3101,2.3101,2.3101,2.3101,2.3101,2.3101,2.3101,2.3101,2.3101,2.3101,2.3101,2.3101,2.3101,2.3101,2.3101,2.3101,2.3101,2.3101,2.3101,2.3101,2.3101,2.3101,2.3101,2.3101,2.3101,2.3101,2.3101,2.3101,2.3101,2.3101,2.3101,2.3101,2.3101,2.3101,2.3101,2.3101,2.3101,2.3101,2.3101,2.3101,2.3101,2.3101,2.3101,2.3101,2.3101,2.3101,2.3101,2.3101,2.3101,2.3101,2.3081,2.2955,2.2674,2.2324,2.209,2.1855,2.17,2.1485,2.1162,2.1015,2.0938,2.0772,2.0596,2.0596,2.0596,2.0596,2.0596,2.0596,2.0605,2.0596,2.0596,2.0596,2.0605,2.0867,2.133,2.2075,3.5145,3.5489,3.5489,3.5489,3.5489,3.5489,3.5489,3.5392,3.4905,3.4361,3.3959,3.3449,3.2433,3.1278,3.1167,3.0677,2.9876,2.9779,2.9779,2.9779,2.976,2.974,2.9772,2.9779,2.9779,2.9779,2.9779,2.9443,2.8858,2.8159,2.729,2.6408,2.5535,2.4999,2.4595,2.4016,2.3822,2.3735,2.3408,2.3101,2.3101,2.3101,2.3101,2.3101,2.3101,2.3101,2.3101,2.3101,2.3101,2.3101,2.3101,2.3101,2.3101,2.3101,2.3101,2.3101,2.3101,2.3101,2.3101,2.3101,2.3101,2.3101,2.3101,2.3101,2.3101,2.3101,2.3101,2.3101,2.3101,2.3101,2.3101,2.3101,2.3101,2.3101,2.3101,2.3101,2.3101,2.3101,2.3101,2.3101,2.3101,2.3101,2.3101,2.3101,2.3101,2.3101,2.3101,2.3101,2.3091,2.3081,2.3042,2.281,2.2598,2.2363,2.2178,2.2012,2.1876,2.1552,2.1366,2.125,2.0947,2.0703,2.0625,2.0625,2.0596,2.0596,2.0596,2.0596,2.0596,2.0596,2.0596,2.0644,2.0847,2.1355,2.2081,3.5489,3.5489,3.5489,3.5489,3.5489,3.5489,3.5489,3.5489,3.5424,3.497,3.4361,3.4177,3.3258,3.1499,3.1596,3.0889,2.9998,2.9876,2.9779,2.9779,2.9779,2.9779,2.9779,2.9779,2.9779,2.9779,2.9779,2.974,2.9495,2.9495,2.8956,2.7876,2.7643,2.7258,2.613,2.5357,2.4988,2.4521,2.3855,2.3321,2.3157,2.3101,2.3101,2.3101,2.3101,2.3101,2.3101,2.3101,2.3101,2.3101,2.3101,2.3101,2.3101,2.3101,2.3101,2.3101,2.3101,2.3101,2.3101,2.3101,2.3101,2.3101,2.3101,2.3101,2.3101,2.3101,2.3101,2.3101,2.3101,2.3101,2.3101,2.3101,2.3101,2.3101,2.3101,2.3101,2.3101,2.3101,2.3101,2.3101,2.3101,2.3101,2.3101,2.3101,2.3101,2.3101,2.3101,2.3101,2.3101,2.3091,2.3091,2.3033,2.282,2.2606,2.244,2.2293,2.2158,2.1973,2.1787,2.1602,2.1192,2.0928,2.0752,2.0654,2.0625,2.0596,2.0596,2.0596,2.0664,2.0596,2.0596,2.0596,2.0702,2.1432,2.2155,3.5489,3.5489,3.5489,3.5489,3.5489,3.5489,3.5489,3.5489,3.5489,3.5328,3.5182,3.5149,3.4426,3.3293,3.2571,3.1792,3.0852,3.0241,2.9779,2.9779,2.9779,2.9779,2.9779,2.9779,2.9779,2.9779,2.9779,2.9779,2.9663,2.9067,2.8406,2.8156,2.7626,2.6812,2.6616,2.6389,2.5662,2.4935,2.4542,2.3984,2.3309,2.3222,2.3178,2.3113,2.3101,2.3101,2.3101,2.3101,2.3101,2.3101,2.3101,2.3101,2.3101,2.3101,2.3101,2.3101,2.3101,2.3101,2.3101,2.3101,2.3101,2.3101,2.3101,2.3101,2.3101,2.3101,2.3101,2.3101,2.3101,2.3101,2.3101,2.3101,2.3101,2.3101,2.3101,2.3101,2.3101,2.3101,2.3101,2.3101,2.3101,2.3101,2.3101,2.3101,2.3101,2.3101,2.3101,2.3101,2.3101,2.3101,2.3101,2.3101,2.3003,2.283,2.2857,2.2849,2.2975,2.2835,2.2624,2.2365,2.1948,2.1318,2.1202,2.0908,2.0596,2.0625,2.0772,2.0849,2.0946,2.0771,2.0683,2.0886,2.1174,2.1764,2.2515,3.5489,3.5489,3.5489,3.5489,3.5489,3.5489,3.5489,3.5489,3.5489,3.5489,3.5489,3.5489,3.4937,3.3996,3.3463,3.2735,3.1815,3.0889,3.0203,2.9914,2.9779,2.9779,2.9779,2.9779,2.9779,2.9779,2.9779,2.9779,2.9592,2.9248,2.8996,2.8897,2.8271,2.8271,2.7879,2.7536,2.6982,2.6429,2.5786,2.5052,2.4092,2.3898,2.3529,2.3222,2.3101,2.3101,2.3101,2.3101,2.3101,2.3101,2.3101,2.3101,2.3101,2.3101,2.3101,2.3101,2.3101,2.3101,2.3101,2.3101,2.3101,2.3101,2.3101,2.3101,2.3101,2.3101,2.3101,2.3101,2.3101,2.3101,2.3101,2.3101,2.3101,2.3101,2.3101,2.3101,2.3101,2.3101,2.3101,2.3101,2.3101,2.3101,2.3101,2.3101,2.3101,2.3101,2.3101,2.3101,2.3101,2.3101,2.3101,2.3101,2.3101,2.3096,2.3217,2.3441,2.3877,2.384,2.3791,2.3535,2.3207,2.2461,2.1718,2.1396,2.1075,2.1026,2.1124,2.1184,2.125,2.0994,2.1022,2.1299,2.1859,2.2705,2.3452,3.5603,3.5489,3.5489,3.5489,3.5489,3.5489,3.5489,3.5489,3.5489,3.5489,3.5489,3.5489,3.505,3.4361,3.4027,3.3411,3.2339,3.1541,3.0658,2.9888,2.9779,2.9779,2.9779,2.9779,2.9779,2.9779,2.9779,2.9779,2.9779,2.9779,2.9573,2.9733,2.9721,2.9504,2.9509,2.9051,2.843,2.8131,2.7166,2.6157,2.5069,2.4767,2.4102,2.3592,2.3298,2.3288,2.3259,2.3169,2.3101,2.3101,2.3101,2.3101,2.3101,2.3101,2.3101,2.3101,2.3101,2.3101,2.3101,2.3101,2.3101,2.3101,2.3101,2.3101,2.3101,2.3101,2.3101,2.3101,2.3101,2.3101,2.3101,2.3101,2.3101,2.3101,2.3101,2.3101,2.3101,2.3101,2.3101,2.3101,2.3101,2.3101,2.3101,2.3101,2.3101,2.3101,2.3101,2.3101,2.3101,2.3135,2.3157,2.3387,2.3485,2.4221,2.4456,2.4574,2.4935,2.4988,2.4935,2.4786,2.4552,2.4209,2.3433,2.2079,2.169,2.1705,2.19,2.2218,2.2062,2.1484,2.1557,2.2081,2.2851,2.3692,2.4269,3.6054,3.5489,3.5489,3.5489,3.5489,3.5489,3.5489,3.5489,3.5489,3.5489,3.5489,3.5489,3.5392,3.5036,3.4327,3.3119,3.2105,3.1594,3.0942,3.0144,2.9977,2.9908,2.988,2.9804,2.9792,2.9779,2.9829,2.9854,2.9792,2.9779,2.9892,2.9817,2.988,3.0068,3.0342,3.0211,2.9825,2.9414,2.846,2.7363,2.6355,2.5216,2.4631,2.4179,2.3898,2.3679,2.3571,2.3327,2.3101,2.3101,2.3101,2.312,2.3159,2.3159,2.3159,2.3101,2.3101,2.3101,2.3101,2.3101,2.3101,2.3101,2.3101,2.3101,2.3101,2.3101,2.3101,2.3101,2.3101,2.3101,2.3101,2.3101,2.3101,2.3101,2.3101,2.3101,2.3101,2.3101,2.3101,2.3101,2.3101,2.3101,2.3101,2.3101,2.3101,2.3101,2.3101,2.3101,2.3101,2.32,2.3309,2.3637,2.3996,2.4988,2.5912,2.6016,2.6202,2.6191,2.6157,2.6157,2.6013,2.6049,2.5294,2.3753,2.2858,2.2727,2.297,2.3378,2.3279,2.3037,2.3014,2.3097,2.3674,2.4345,2.4568,3.6181,3.5506,3.5489,3.5489,3.5489,3.5489,3.5489,3.5489,3.5489,3.5489,3.5489,3.5489,3.5489,3.5375,3.5052,3.41,3.331,3.2743,3.2211,3.1517,3.0855,3.0388,3.0171,2.9955,2.9804,2.988,3.0043,3.0043,2.9854,3.0118,3.0206,3.0294,3.0457,3.0771,3.0947,3.0982,3.0884,3.0443,2.9954,2.9126,2.7972,2.6372,2.5492,2.5217,2.4591,2.4154,2.4072,2.3942,2.3669,2.3552,2.3659,2.363,2.3626,2.3645,2.3571,2.324,2.312,2.3101,2.3101,2.3101,2.3101,2.3101,2.3101,2.3101,2.3101,2.3101,2.3101,2.3101,2.3101,2.3101,2.3101,2.3135,2.3101,2.3101,2.3157,2.32,2.3157,2.3157,2.3266,2.3331,2.3278,2.3266,2.3101,2.3101,2.3101,2.3101,2.3178,2.3266,2.3343,2.3637,2.3994,2.451,2.5041,2.5839,2.6862,2.7209,2.7331,2.7351,2.7351,2.7331,2.7189,2.7096,2.638,2.5157,2.4529,2.4407,2.4582,2.5165,2.4873,2.473,2.5133,2.5338,2.4889,2.4888,2.5157,3.6615,3.5957,3.5782,3.5718,3.5701,3.5538,3.5489,3.5489,3.5489,3.5489,3.5489,3.5489,3.5489,3.5518,3.5569,3.5392,3.5021,3.4433,3.3807,3.271,3.183,3.1144,3.0567,3.0256,3.0018,3.0131,3.052,3.0482,3.0218,3.052,3.0746,3.0834,3.121,3.1494,3.1524,3.1562,3.1562,3.1659,3.139,3.0802,2.9482,2.7977,2.6919,2.6752,2.5633,2.5075,2.5536,2.5055,2.4977,2.4958,2.5051,2.496,2.4498,2.4607,2.4332,2.3548,2.3308,2.3198,2.3101,2.3101,2.3101,2.3101,2.3101,2.3101,2.3101,2.3101,2.3101,2.3101,2.3101,2.3101,2.3135,2.3353,2.3485,2.3616,2.3767,2.3875,2.4038,2.4167,2.4264,2.4135,2.3779,2.3714,2.3844,2.38,2.3941,2.4563,2.4648,2.4584,2.4681,2.4904,2.5263,2.5724,2.6264,2.6851,2.7606,2.8239,2.8379,2.847,2.847,2.847,2.8199,2.7959,2.7256,2.6831,2.7036,2.6958,2.7001,2.6734,2.6455,2.6577,2.737,2.7259,2.6311,2.5838,2.5925,3.8203,3.7457,3.6768,3.6477,3.6322,3.575,3.5489,3.5489,3.5489,3.5489,3.5489,3.5489,3.5489,3.5594,3.6058,3.5765,3.5424,3.5379,3.4781,3.3468,3.2532,3.1628,3.0765,3.0595,3.0482,3.0583,3.1047,3.0959,3.0809,3.1097,3.1286,3.1348,3.1474,3.1625,3.2102,3.2127,3.2399,3.258,3.1808,3.0775,2.9816,2.9229,2.8991,2.856,2.7623,2.7008,2.7513,2.6891,2.6482,2.7316,2.7491,2.7074,2.6266,2.6018,2.5383,2.4557,2.3926,2.3555,2.331,2.3247,2.3247,2.3276,2.3227,2.313,2.3227,2.3269,2.3259,2.3101,2.3208,2.3396,2.3679,2.4135,2.4457,2.4851,2.5179,2.5599,2.5787,2.5147,2.5274,2.5389,2.5168,2.502,2.502,2.4935,2.4935,2.5599,2.6069,2.5933,2.5954,2.6088,2.6687,2.7218,2.7481,2.8019,2.8291,2.8937,2.9106,2.9314,2.9314,2.9314,2.9079,2.8831,2.9177,2.892,2.904,2.8732,2.8187,2.7905,2.7886,2.8007,2.8273,2.7897,2.725,2.6979,2.682,3.8215,3.7084,3.6737,3.6337,3.5959,3.5635,3.5489,3.5489,3.5489,3.5489,3.5489,3.5489,3.5489,3.5594,3.5848,3.6144,3.6264,3.6357,3.5837,3.4627,3.3601,3.2472,3.1559,3.0939,3.0708,3.116,3.1537,3.1788,3.165,3.1687,3.1851,3.1901,3.2164,3.2466,3.2629,3.2692,3.2851,3.2873,3.2544,3.2052,3.1456,3.0832,3.0417,3.0372,2.9012,2.8798,2.8834,2.8643,2.8119,2.8611,2.8667,2.8511,2.7986,2.7884,2.7665,2.7071,2.6797,2.582,2.4226,2.3935,2.3854,2.3815,2.3848,2.3884,2.3845,2.3863,2.4071,2.4422,2.4424,2.4561,2.4903,2.5452,2.563,2.5985,2.6453,2.6554,2.673,2.6524,2.6276,2.6421,2.6586,2.6502,2.6388,2.6243,2.6171,2.641,2.6709,2.6575,2.6739,2.6994,2.7807,2.8819,2.8988,2.9157,2.9268,2.9553,2.9463,2.9592,2.9592,2.9611,2.9682,2.9702,2.9779,2.9779,2.9514,2.9236,2.9008,2.8951,2.8851,2.8893,2.8941,2.8533,2.8166,2.812,2.7878,3.8411,3.7157,3.6767,3.6275,3.575,3.5587,3.5489,3.5489,3.5489,3.5489,3.5489,3.5489,3.5489,3.5639,3.5938,3.6576,3.7293,3.7255,3.6946,3.6156,3.4917,3.3575,3.2566,3.1678,3.1253,3.1633,3.2185,3.2365,3.2403,3.2416,3.2428,3.2453,3.2751,3.3002,3.3065,3.3052,3.3077,3.3056,3.3038,3.2939,3.2754,3.2096,3.1777,3.1311,3.0631,3.0,3.026,2.9908,2.9658,3.0169,3.0329,3.0228,2.9587,2.9556,2.9297,2.879,2.8499,2.7836,2.6281,2.548,2.4985,2.4772,2.4519,2.4425,2.4911,2.489,2.5287,2.6008,2.6107,2.6378,2.6742,2.6963,2.7142,2.7241,2.7426,2.7348,2.7345,2.7589,2.7748,2.7951,2.8091,2.8059,2.7907,2.7666,2.7504,2.7403,2.7322,2.7261,2.7565,2.7968,2.8549,2.9502,2.9534,2.9592,2.9682,2.9779,2.9779,2.9779,2.9779,2.9779,2.9779,2.9779,2.9779,2.9779,2.9779,2.9682,2.9385,2.9592,2.9779,2.9542,2.9351,2.9374,2.9213,2.9107,2.8675,3.9516,3.8619,3.7187,3.6569,3.643,3.5782,3.5489,3.5489,3.5489,3.5489,3.5489,3.5504,3.5504,3.5774,3.6522,3.7103,3.7494,3.8644,3.8245,3.7266,3.6067,3.4702,3.3606,3.2698,3.2122,3.224,3.2629,3.2901,3.2989,3.2889,3.2964,3.3065,3.3052,3.3077,3.3102,3.3102,3.3102,3.3102,3.3102,3.3102,3.3102,3.2896,3.2819,3.259,3.1877,3.1601,3.2646,3.1689,3.141,3.2201,3.2255,3.1931,3.1136,3.1063,3.0661,3.0133,2.9896,2.9478,2.8744,2.7299,2.6343,2.5877,2.5553,2.5493,2.6266,2.6244,2.6731,2.7677,2.7808,2.7946,2.8182,2.8381,2.8725,2.8835,2.8963,2.9117,2.916,2.9287,2.9448,2.955,2.9528,2.9413,2.9256,2.8963,2.8701,2.8558,2.8581,2.8542,2.8771,2.9118,2.9275,2.9721,2.9721,2.974,2.974,2.9779,2.9779,2.9779,2.9779,2.9779,2.9779,2.9779,2.9779,2.9779,2.9779,2.9779,2.9779,2.9779,2.9779,2.9779,2.9729,2.9628,2.9528,2.9333,2.8881,3.9196,3.8756,3.7231,3.6584,3.6523,3.5814,3.5489,3.5489,3.5489,3.5489,3.5489,3.5519,3.5744,3.6178,3.6507,3.7315,3.7958,3.8452,3.8329,3.7779,3.6746,3.5637,3.4527,3.3697,3.3044,3.2891,3.3057,3.3102,3.3077,3.3102,3.3102,3.3102,3.3102,3.3102,3.3102,3.3102,3.3102,3.3102,3.3102,3.3102,3.3102,3.3102,3.3102,3.3004,3.2819,3.2568,3.2918,3.2655,3.2742,3.2948,3.3102,3.2732,3.2382,3.2283,3.1987,3.1534,3.1446,3.1446,3.1101,2.9544,2.8293,2.8158,2.7815,2.7624,2.8038,2.816,2.8623,2.9196,2.9537,2.963,3.0127,3.0301,3.0466,3.0498,3.0516,3.0628,3.064,3.0565,3.0557,3.0415,3.0535,3.0573,3.0406,3.0193,2.9943,2.9731,2.9778,2.9779,2.9779,2.9779,2.9779,2.9779,2.9779,2.9779,2.9779,2.9779,2.9779,2.9779,2.9779,2.9779,2.9779,2.9779,2.9779,2.9779,2.9779,2.9779,2.9779,2.9779,2.9779,2.9779,2.9779,2.9754,2.9654,2.9553,2.9157,3.9262,3.9099,3.783,3.6993,3.6523,3.5799,3.5624,3.5744,3.5579,3.5489,3.5519,3.5699,3.6043,3.6477,3.7032,3.7481,3.8275,3.8608,3.8544,3.8128,3.7512,3.662,3.5707,3.4895,3.4268,3.3746,3.3535,3.3577,3.3102,3.3102,3.3102,3.3102,3.3102,3.3102,3.3102,3.3102,3.3102,3.3102,3.3102,3.3241,3.3303,3.3366,3.3555,3.3555,3.3408,3.3305,3.3285,3.3089,3.3004,3.3081,3.3102,3.3102,3.3081,3.3102,3.3102,3.3115,3.3115,3.3115,3.2559,3.138,2.9818,2.9215,2.9135,2.9317,2.9841,2.9965,3.0216,3.1098,3.1252,3.1385,3.1859,3.1697,3.1497,3.1369,3.1077,3.1117,3.1143,3.1117,3.1168,3.1185,3.1243,3.118,3.108,3.0783,3.0369,3.0068,2.9817,2.9792,2.9779,2.9779,2.9779,2.9779,2.9779,2.9779,2.9779,2.9779,2.9779,2.9779,2.9779,2.9779,2.9779,2.9779,2.9779,2.9779,2.9779,2.9779,2.9779,2.9779,2.9779,2.9779,2.9779,2.9779,2.9767,2.9654,2.9578,4.0045,3.9965,3.9126,3.7958,3.6722,3.5831,3.5898,3.6475,3.5941,3.5684,3.5789,3.6222,3.6537,3.6883,3.7706,3.8245,3.8556,3.9047,3.9205,3.8924,3.8322,3.7785,3.7205,3.647,3.5398,3.4829,3.4408,3.3911,3.3102,3.3102,3.3102,3.314,3.3178,3.3178,3.3115,3.3115,3.3115,3.3128,3.3178,3.353,3.3784,3.3884,3.411,3.4223,3.4073,3.3884,3.3822,3.3571,3.3467,3.3442,3.3404,3.3391,3.3379,3.3354,3.3341,3.3303,3.3266,3.3215,3.2998,3.1823,3.0866,3.0147,3.0271,3.0418,3.0978,3.1255,3.1498,3.2269,3.2626,3.2784,3.2801,3.2554,3.2303,3.2114,3.1846,3.1733,3.1783,3.1796,3.1884,3.1947,3.1658,3.1432,3.1419,3.1243,3.0733,3.0331,2.9962,2.9849,2.9905,2.9792,2.9792,2.9779,2.9779,2.9779,2.9779,2.9779,2.9779,2.9792,2.9779,2.9779,2.9779,2.9779,2.9779,2.9779,2.9779,2.9779,2.9779,2.9779,2.9779,2.9779,2.9779,2.9779,2.9779,2.9767,2.9679,4.0113,4.0033,3.9219,3.8605,3.7958,3.6753,3.6872,3.7678,3.7154,3.6761,3.6806,3.7045,3.7389,3.7841,3.814,3.8646,3.9047,3.9152,3.9406,3.9334,3.8892,3.8368,3.79,3.7438,3.6425,3.5156,3.4656,3.4416,3.3102,3.347,3.3248,3.314,3.3544,3.3395,3.3329,3.3379,3.3655,3.3731,3.396,3.4264,3.4402,3.4439,3.4527,3.4741,3.454,3.4427,3.4437,3.4126,3.4025,3.4035,3.4022,3.4048,3.406,3.406,3.4098,3.4123,3.4113,3.3972,3.3624,3.2853,3.236,3.1913,3.1713,3.1823,3.2404,3.246,3.2776,3.2927,3.3102,3.3102,3.2989,3.2939,3.2801,3.2801,3.265,3.2625,3.265,3.2638,3.2675,3.27,3.255,3.2185,3.2035,3.1871,3.1419,3.1047,3.0741,3.0407,3.0394,2.9993,2.9804,2.9792,2.9779,2.9779,2.9804,2.9955,2.9955,2.993,2.9867,2.9779,2.9779,2.9779,2.9779,2.9779,2.9779,2.9779,2.9779,2.9779,2.9779,2.9779,2.9779,2.9779,2.9779,2.9779,2.9754,4.0113,4.0045,3.9529,3.9631,3.9684,3.7894,3.7466,3.7914,3.7752,3.7524,3.7225,3.7494,3.7928,3.835,3.8676,3.8886,3.9391,3.9406,3.9406,3.9406,3.9388,3.8962,3.8608,3.8423,3.7686,3.6347,3.6144,3.5979,3.4884,3.486,3.4799,3.4602,3.4215,3.4042,3.3909,3.4048,3.4186,3.4261,3.4452,3.4728,3.4891,3.5017,3.5104,3.5205,3.5142,3.4992,3.4929,3.4841,3.4728,3.4741,3.4741,3.4728,3.4728,3.4715,3.4715,3.4703,3.4665,3.4477,3.4138,3.3916,3.3564,3.3526,3.3391,3.3128,3.3102,3.2961,3.2995,3.3081,3.3153,3.3128,3.314,3.314,3.3128,3.3115,3.3102,3.3065,3.3065,3.304,3.304,3.3115,3.3052,3.2776,3.2579,3.2411,3.2123,3.1846,3.1537,3.1235,3.0922,3.0507,3.0193,3.0206,3.0269,3.0407,3.0369,3.0281,3.0244,3.0105,2.9993,2.988,2.9779,2.9779,2.9779,2.9779,2.9779,2.9779,2.9779,2.9779,2.9779,2.9779,2.9779,2.9779,2.9779,2.9779,2.9779,4.0113,4.0113,4.0113,4.0857,4.1543,3.907,3.7545,3.6956,3.7975,3.7796,3.6791,3.8063,3.8497,3.8586,3.9092,3.9346,3.9376,3.9406,3.9406,3.9406,3.9406,3.9276,3.9566,3.9735,3.8906,3.8645,3.8389,3.7915,3.7281,3.705,3.6889,3.6432,3.5695,3.5314,3.513,3.5123,3.5027,3.4906,3.4966,3.5255,3.5504,3.5544,3.5755,3.5843,3.578,3.5594,3.5443,3.5242,3.5029,3.4929,3.4879,3.4828,3.4791,3.4766,3.4766,3.4791,3.4866,3.4766,3.4715,3.459,3.449,3.4289,3.3746,3.3366,3.3303,3.3454,3.3517,3.3492,3.3517,3.3329,3.3215,3.3203,3.3203,3.319,3.3203,3.319,3.3215,3.3203,3.3215,3.3203,3.3128,3.2989,3.2952,3.2813,3.26,3.2537,3.2261,3.2047,3.1675,3.1235,3.1004,3.0992,3.108,3.1218,3.1085,3.0796,3.0708,3.0633,3.0193,3.003,2.9917,2.9829,2.9779,2.9779,2.9779,2.9779,2.9779,2.9779,2.9779,2.9779,2.9779,2.9779,2.9779,2.9779,2.9779,4.0113,4.0113,4.0113,4.0641,4.123,3.9923,3.9091,3.889,3.908,3.8841,3.8601,3.8945,3.9032,3.9137,3.9316,3.9391,3.9406,3.9406,3.9406,3.9421,3.9481,3.9753,4.0053,4.0278,3.9835,3.9634,3.9485,3.9456,3.828,3.8318,3.8297,3.7624,3.7523,3.7157,3.6878,3.6893,3.6211,3.5694,3.5695,3.5818,3.6029,3.6056,3.6256,3.623,3.6218,3.6056,3.5979,3.5929,3.5791,3.5841,3.5879,3.5891,3.5904,3.5916,3.5916,3.5866,3.5617,3.528,3.5217,3.4929,3.4778,3.4841,3.4437,3.4361,3.4261,3.4198,3.4161,3.4035,3.3997,3.3897,3.3721,3.3646,3.3545,3.3458,3.352,3.3646,3.3658,3.3658,3.368,3.3617,3.3508,3.3266,3.3228,3.3065,3.2889,3.2977,3.2927,3.2688,3.2424,3.1959,3.1746,3.1721,3.1695,3.1783,3.1557,3.1256,3.121,3.1097,3.0683,3.0357,3.0331,3.0206,2.9917,2.9779,2.9779,2.9779,2.9779,2.9779,2.9779,2.9779,2.9779,2.9779,2.9779,2.9779,2.9779,4.0113,4.0113,4.0113,4.0523,4.1039,4.0577,4.0246,4.006,3.9358,3.902,3.9032,3.9242,3.9406,3.9376,3.9391,3.9406,3.9406,3.9406,3.9406,3.9451,3.9645,4.0008,4.0367,4.0857,4.0891,4.071,4.0792,4.1005,3.9922,3.9574,3.9583,3.9591,3.9627,3.8963,3.8458,3.7997,3.744,3.6842,3.6481,3.6438,3.6417,3.6417,3.6417,3.6417,3.6417,3.6417,3.6417,3.6417,3.6417,3.6417,3.6417,3.6405,3.638,3.638,3.638,3.6279,3.6092,3.5881,3.5818,3.5629,3.5429,3.5353,3.5328,3.5366,3.5127,3.4939,3.4728,3.4552,3.4577,3.4552,3.4352,3.4163,3.3997,3.3809,3.401,3.4189,3.4201,3.4201,3.4186,3.4123,3.3897,3.3592,3.3391,3.3241,3.3102,3.3077,3.3065,3.2989,3.2826,3.2587,3.2424,3.2386,3.2311,3.2261,3.1997,3.1808,3.175,3.1612,3.121,3.0947,3.0834,3.0532,3.0193,2.9955,2.9779,2.9779,2.9779,2.9779,2.9779,2.9779,2.9779,2.9779,2.9779,2.9779,2.9779,4.0113,4.0113,4.018,4.0608,4.1129,4.0961,4.0877,4.0706,3.929,3.8525,3.8682,3.9155,3.9406,3.9406,3.9406,3.9406,3.9406,3.9406,3.9406,3.9451,4.0008,4.0382,4.0924,4.1624,4.1763,4.2045,4.2255,4.2283,4.2248,4.1774,4.1429,4.1649,4.0887,4.0256,3.9855,3.9242,3.8689,3.8164,3.7475,3.707,3.6546,3.6417,3.6417,3.6417,3.6417,3.6417,3.6417,3.6417,3.6417,3.6417,3.6417,3.6417,3.6417,3.6417,3.6417,3.6405,3.6293,3.6281,3.6243,3.6143,3.6205,3.623,3.6392,3.6193,3.5841,3.5529,3.5303,3.524,3.5278,3.5079,3.4879,3.4753,3.459,3.4465,3.454,3.469,3.4766,3.4728,3.464,3.4527,3.4274,3.3985,3.3935,3.3809,3.3605,3.3366,3.3253,3.3266,3.3102,3.2989,3.2964,3.2914,3.2763,3.265,3.265,3.2474,3.2328,3.2102,3.1738,3.1537,3.1436,3.0984,3.0432,3.0206,2.998,2.9829,2.9779,2.9779,2.9779,2.9779,2.9779,2.9779,2.9779,2.9779,2.9779,4.0113,4.0163,4.0696,4.1068,4.1188,4.1142,4.106,4.0832,3.9865,3.931,3.9214,3.9302,3.9406,3.9406,3.9406,3.9406,3.9406,3.9406,3.9406,3.9601,4.0098,4.0666,4.1179,4.1912,4.2451,4.2876,4.3145,4.322,4.2986,4.2852,4.286,4.284,4.2263,4.1864,4.119,4.0554,4.0118,3.9456,3.8908,3.7861,3.6896,3.6523,3.6417,3.6441,3.6452,3.6417,3.6417,3.6417,3.6417,3.6417,3.6417,3.6417,3.6417,3.6417,3.6417,3.6417,3.6417,3.6417,3.6417,3.6417,3.6417,3.6417,3.6417,3.6417,3.6304,3.6092,3.5967,3.5954,3.5854,3.5617,3.5431,3.533,3.5219,3.5155,3.5092,3.5217,3.533,3.5242,3.5142,3.4916,3.4653,3.4527,3.4477,3.4301,3.411,3.3922,3.3784,3.3646,3.3379,3.3215,3.3228,3.3178,3.3052,3.2989,3.3027,3.2977,3.2763,3.2604,3.2303,3.2139,3.2001,3.1436,3.0859,3.0457,3.0193,3.0005,2.9854,2.9779,2.9779,2.9779,2.9779,2.9779,2.9779,2.9779,2.9779,4.0113,4.0197,4.0882,4.1191,4.1259,4.1504,4.1591,4.133,4.0539,4.0078,3.9889,3.961,3.9406,3.9406,3.9406,3.9406,3.9406,3.9406,3.9406,3.9601,4.0127,4.0741,4.1399,4.2092,4.2656,4.3145,4.328,4.329,4.3305,4.3285,4.323,4.3305,4.325,4.2981,4.2234,4.1906,4.1358,4.0661,4.0289,3.9241,3.7815,3.753,3.7219,3.714,3.6769,3.6628,3.6417,3.6452,3.6756,3.7,3.7243,3.6769,3.6617,3.6417,3.6417,3.6417,3.6417,3.6417,3.6476,3.6546,3.657,3.6604,3.6476,3.6499,3.6417,3.6241,3.6241,3.6205,3.6205,3.6017,3.5992,3.5893,3.5855,3.5793,3.5805,3.5868,3.5906,3.5868,3.5818,3.573,3.5416,3.5079,3.4954,3.4665,3.4465,3.4399,3.4274,3.4214,3.3897,3.3571,3.3545,3.3504,3.3416,3.3203,3.3077,3.3077,3.3027,3.2901,3.2776,3.2503,3.2215,3.1729,3.1265,3.0839,3.0437,3.0111,2.9993,2.9917,2.9804,2.9779,2.9779,2.9779,2.9779,2.9779,2.9779,4.018,4.0337,4.1052,4.1424,4.1568,4.2102,4.2356,4.2182,4.1292,4.0778,4.0485,3.9755,3.9445,3.9406,3.9406,3.9406,3.9406,3.9406,3.9406,3.9631,4.0262,4.0879,4.1523,4.2182,4.2821,4.316,4.3275,4.3305,4.3305,4.3305,4.3305,4.3305,4.3305,4.3285,4.2996,4.2508,4.1823,4.1657,4.1281,4.0667,3.982,3.905,3.8536,3.7975,3.7461,3.6919,3.6873,3.7047,3.753,3.7848,3.8311,3.7939,3.7576,3.7381,3.7302,3.7335,3.7405,3.7335,3.7209,3.7348,3.7209,3.7047,3.6826,3.6851,3.6947,3.6971,3.6971,3.69,3.69,3.6512,3.6487,3.6449,3.6424,3.6714,3.6739,3.6868,3.6892,3.6892,3.6856,3.6807,3.64,3.6022,3.592,3.5556,3.5135,3.5025,3.4846,3.4763,3.4615,3.4301,3.4148,3.401,3.3872,3.3608,3.3228,3.314,3.3153,3.3065,3.2914,3.2692,3.2441,3.2031,3.1629,3.1177,3.0789,3.0532,3.0244,3.0105,2.998,2.9892,2.9779,2.9779,2.9779,2.9779,2.9779,4.0438,4.1068,4.1792,4.2408,4.2926,4.3109,4.3115,4.2938,4.214,4.1395,4.0656,3.9864,3.9406,3.9406,3.9406,3.9406,3.9406,3.9406,3.9406,3.9541,4.0337,4.0999,4.1688,4.2447,4.304,4.3245,4.3305,4.3305,4.3305,4.3305,4.3305,4.3305,4.3305,4.3305,4.3285,4.288,4.278,4.2603,4.2624,4.2243,4.1802,4.0937,3.9776,3.9426,3.9373,3.9241,3.9241,3.9241,3.9373,3.9483,3.9609,3.9452,3.9195,3.9011,3.9024,3.8956,3.8997,3.8993,3.8965,3.8965,3.8947,3.8997,3.8988,3.9024,3.9083,3.9078,3.9002,3.8754,3.84,3.7172,3.6936,3.6849,3.6858,3.7812,3.8221,3.8613,3.8836,3.8814,3.8801,3.8487,3.807,3.8135,3.8452,3.7736,3.6583,3.6363,3.5879,3.5734,3.5322,3.5022,3.4741,3.4552,3.4377,3.3796,3.3316,3.3253,3.3228,3.3165,3.3077,3.2914,3.2692,3.2416,3.1993,3.1591,3.1323,3.106,3.0758,3.0457,3.0281,3.0181,2.9892,2.9779,2.9804,2.9779,2.9779]}]]